GFSGL_prec_radar_000.txt.gz
Reflectivity
-20 -20 -18 20 -20 -20 -20 -20 -20 -20 -20 -20 -20 -20 -20 -20 -20 -20 -20 -20 -20 -20 -20 -20 -20 -20 -20 -20 -20 -20 -20 -20 -20 -20 -20 -20 -20 -20 -20 -20 -20 -20 -20
-20 -20 -20 -20 22 -20 -20 -20 -20 -20 -20 -20 -20 -20 -20 -20 -20 -20 -20 -20 -20 -20 -20 -20 -20 -20 -20 -20 -20 -20 -20 -20 -20 -20 -20 -20 -20 -20 -20 -20 -20 -20 -20
-20 -20 -20 -20 -20 -20 -18 -20 -20 -20 -20 -20 -20 -20 -20 -20 -20 -20 -20 -20 -20 -20 -20 -20 -20 -20 -20 -20 -20 -20 -20 -14 -20 -20 -20 -20 -20 -20 -20 -20 -20 -20 -20
-20 -20 -20 -20 -20 35 19 28 -10 -17 -20 -20 -20 -20 -20 -20 -20 -20 -20 -20 -20 -20 -20 -20 -20 -20 -20 -20 -20 -20 -20 -20 -0 -20 -20 -20 -20 -20 -20 -20 -20 -20 -20
-20 -20 -20 -20 -2 25 29 28 20 0 -20 -20 -20 -20 -20 -20 -20 -20 -20 -20 -20 -20 -20 -20 -20 -20 -20 -20 -20 -20 -20 -20 -20 -20 -20 -20 -20 -20 -20 -20 -20 -20 -20
-20 -20 -20 -20 31 31 43 44 31 10 -12 -20 -20 -20 -20 -20 -20 -20 -20 -20 -20 -20 -20 -20 -20 -20 -20 -20 -20 -20 -20 -20 -20 -20 -20 -20 -20 -20 -20 -20 -20 -20 -5
-20 -20 -20 -20 -5 29 27 37 27 15 10 -20 -20 -20 -20 -20 -20 -20 -20 -20 -20 -20 -20 -20 -20 -20 -20 -20 -20 -20 -20 -20 -20 -15 -20 -20 -18 -20 -20 -20 -20 4 -1
-20 -20 -20 -20 10 37 23 23 19 11 -5 -20 -20 -20 -20 -18 5 3 -8 14 -11 -20 -20 -20 -20 -20 -20 -20 -20 -20 -20 -20 -20 -20 -20 -20 -20 -20 -4 5 -20 -8 -10
-20 -20 -20 -13 -20 9 36 18 22 7 -18 -20 -20 -20 9 31 12 1 8 22 -20 -20 -20 -20 -20 -20 -20 -20 -20 -20 -20 -20 -20 -20 -20 -20 -20 -20 -20 4 -19 1 3
-20 -20 -20 -20 -20 -20 -18 18 -20 -20 21 -20 24 -1 2 37 36 33 27 -19 -19 -20 -20 -20 -20 -20 -20 -20 -20 -20 -20 -20 -20 -20 -20 -20 -20 -20 -20 -10 3 3 5
-20 -20 -20 -20 -20 -20 18 -6 -20 -17 -5 22 20 5 14 42 34 29 20 6 12 -12 -11 -20 -20 -20 -20 -20 -9 -20 -20 -20 -20 -20 -20 -20 -20 -20 -20 -20 -20 -0 -6
-20 25 31 -20 -20 -18 -20 -7 8 7 18 7 31 4 -1 -20 27 29 -11 -17 -20 -17 -20 -20 -20 -20 -20 -20 -20 -20 -20 -20 -20 -20 -20 -20 -20 -20 -20 -20 -10 18 18
-20 -20 -18 -20 -20 -20 -20 -20 -20 -18 2 15 22 6 -20 18 -15 -20 -20 -12 -20 -20 -20 -20 -20 -20 -20 -20 -20 -20 -20 -20 -20 -20 -20 -20 -20 -20 -20 -20 -10 16 33
-20 -20 -20 20 -20 -18 17 -19 3 -12 27 23 22 -5 -20 -20 -20 -20 -20 -20 -20 -20 -20 -20 -20 -20 -20 -20 -20 -20 -20 -20 -20 -20 -20 -20 -20 -20 -20 -20 -20 21 21
-20 -20 -20 8 10 15 -20 5 30 32 17 -17 -14 -20 -20 -20 -20 -20 -20 -20 -20 -20 -20 -20 -20 -20 -20 -20 -20 -20 -20 -20 -20 -20 -20 -20 -20 -20 -20 -20 -18 6 34
-20 -18 -6 -20 -11 -20 -20 -20 -20 5 -20 9 6 -9 -20 -20 -20 -20 -20 -20 -16 -20 -20 -20 -20 -20 -20 -20 -20 -20 -20 -20 -20 -20 -20 -20 -20 -20 -20 -20 -19 18 26
-20 -20 -20 -16 -20 -20 -20 -20 -20 -20 -9 -20 -20 -20 -20 -20 -20 -20 -20 -20 -20 -20 -20 -20 -20 -20 -20 -20 -20 -20 -20 -20 -20 -20 -20 -20 -20 -20 -20 -20 -20 0 10
-20 -20 -20 -20 -20 -20 -20 -20 -20 -15 -20 -20 -20 -20 -20 -20 -20 -20 -20 -20 -20 -20 -20 -20 -20 -20 -20 -20 -20 -20 -20 -20 -20 -20 -20 -20 -20 -20 -20 -20 -20 -13 21
-20 -20 -20 -20 -20 -20 -20 -20 -20 -10 -20 -20 -20 -4 1 -19 -20 -20 -20 -20 -20 -20 -20 -20 -20 -20 -20 -20 -20 -20 -20 -20 -20 -20 -20 -20 -20 -20 -20 -20 -20 -1 8
-20 -20 -20 -20 -20 -20 -20 -20 -20 -20 -20 -20 -20 -20 -20 -20 -20 -20 -20 -20 -20 -20 -20 -20 -20 -20 -20 -20 -20 -20 -20 -20 -20 -20 -20 -20 -20 -20 -20 -20 -20 -18 -8
-20 -20 -20 -20 -20 -20 -20 -20 -20 -20 -20 -20 -20 -20 -20 -20 -20 -20 -20 -20 -20 -20 -20 -20 -20 -20 -20 -20 -20 -20 -20 -20 -20 -20 -20 -20 -20 -20 -20 -20 -20 -20 -20
-9 -20 -20 -20 -20 -20 3 -20 -20 -20 -20 -20 -20 -20 -20 -20 -20 -20 -20 -20 -20 -20 -20 -20 -20 -20 -20 -20 -20 -20 -20 -20 -20 -20 -20 -20 -20 -20 -20 -20 -20 -20 -20
-20 -20 -20 -20 -20 -20 -20 -3 -5 -20 -20 -20 -20 -20 -20 -20 -20 -20 -20 -20 -20 -20 -20 -20 -20 -20 -20 -20 -20 -20 -20 -20 -20 -20 -20 -20 -20 -20 -20 -20 -20 -20 -20
-20 -20 -20 -20 -20 -20 -20 -20 -20 -20 -20 -20 -15 -13 -20 -20 -17 -20 -20 -20 -20 -20 -20 -20 -20 -20 -20 -20 -20 -20 -20 -20 -20 -20 -20 -20 -20 -20 -20 -20 -20 -20 -20
-20 -20 -20 -20 -20 -20 -20 -20 -20 -20 -20 -20 -20 -20 -20 -20 -20 -20 -20 -20 -20 -20 -20 -20 -20 -20 -20 -20 -20 -20 -20 -20 -20 -20 -20 -20 -20 -20 -20 -20 -20 -20 -20
-20 -20 -20 -20 -20 -20 -20 -20 -20 -20 -20 -20 -20 -20 -20 -20 -20 -20 -20 -20 -20 -20 -20 -20 -20 -20 -20 -20 -20 -20 -20 -20 -20 -20 -20 -20 -20 -20 -20 -20 -20 -20 -20

GFSGL_prec_radar_003.txt.gz
Reflectivity
-20 -20 -20 -20 -20 -20 -20 5 -9 -20 12 -20 -20 -20 -20 -20 -20 -20 -20 -20 -20 -20 -20 -20 -20 4 13 -20 -20 -20 -20 -20 -20 -20 -20 -20 -20 -20 -20 -20 -20 -20 -20
-20 -20 -20 -20 -20 15 29 4 16 -10 9 13 -17 -20 -20 -20 -20 -20 -20 -20 -20 -20 -20 -20 -20 -20 -20 -20 -20 -20 -17 -20 -20 -20 -20 -20 -20 -20 -20 -20 -20 -20 -20
-20 -20 -20 -20 -20 -20 5 -2 -2 20 -4 14 13 8 -20 -20 -20 -20 -20 -20 -20 -20 -20 -20 -20 -20 -20 -20 -20 -20 -20 -5 17 3 -20 -20 -20 -20 -20 -20 -20 -20 -20
-20 -20 -20 -20 -20 -20 -20 29 -3 28 33 14 9 6 6 -18 -20 -20 -20 -20 -20 -20 -20 -20 -20 -3 -20 -20 -20 -20 -20 -20 -20 -14 -18 -20 -20 -20 -20 7 -18 -20 -20
-20 -20 -20 -20 -20 -20 15 17 25 32 40 31 22 24 0 -20 -20 -20 -20 -20 -20 -20 -20 -20 -20 -20 -20 -20 -20 -20 -20 -20 -20 -20 -13 -20 -20 -20 -20 -20 -7 -20 -20
-20 -20 -20 -20 -20 -20 -20 30 23 28 41 29 6 -9 -8 -20 -20 -20 -20 -20 -20 -20 -20 24 -13 -20 -20 -20 -20 -20 -20 -20 -20 -20 -15 14 -7 -20 -20 10 6 -20 -20
-20 -20 -20 -20 -20 -20 -20 -19 30 28 25 28 10 -20 -2 -20 -20 -20 -20 -20 -20 -20 -20 -20 -20 -20 -20 -20 -20 -20 -20 -20 -20 -20 -2 -6 2 -7 10 2 -18 -6 -13
-20 -20 -20 -20 -20 -20 -20 -14 -20 5 -20 -20 -20 -20 -20 -20 -20 -20 -0 -4 -6 2 -2 20 -20 -20 -20 -20 -20 -20 -20 -20 -20 -20 -20 -20 -20 -20 -19 -10 8 11 4
-20 -20 -20 -20 -20 -12 -18 -20 27 -20 -20 -20 -20 -20 -20 -6 -3 -20 14 13 -7 10 22 2 -20 -20 -11 -13 -20 -20 -20 -20 -20 -20 -20 -20 -20 -20 -20 -3 -4 4 -0
-20 -20 -20 -20 -20 -20 -20 4 -3 -1 -20 -19 -20 -20 -18 -20 -15 -19 0 14 26 21 12 -17 -20 -20 -20 -20 -20 -20 -20 -20 -20 -20 -20 -20 -20 -20 -20 -12 -11 7 3
-20 -18 -20 2 -20 -20 2 4 -18 -17 -20 -20 -20 -20 -20 -16 20 -9 -20 -1 -13 -11 -20 -20 -20 -20 -20 -20 -20 -20 -20 -20 -20 -20 -20 -20 -20 -20 -20 -20 -20 -6 5
2 8 -3 -19 -9 -11 6 -19 -18 -3 -2 -20 -20 -20 -20 -20 -5 -7 -20 -20 -20 -20 -20 -20 -20 -20 -20 -20 -20 -20 -20 -20 -20 -20 -20 -20 -20 -20 -20 -20 -20 -20 -20
-0 -10 0 3 -17 -20 -20 -20 -20 -20 -20 -20 -20 -20 -17 1 7 -7 -1 3 -11 -20 -20 -20 -20 -20 -20 -20 -20 -20 -20 -20 -20 -20 -20 -20 -20 -20 -20 -20 -20 -20 -20
-10 -2 5 9 -20 -20 -20 -20 -20 -20 -20 14 27 28 -20 -20 -20 -20 -20 -20 -20 -20 -20 -20 -20 -20 -20 -20 -20 -20 -20 -20 -20 -20 -20 -20 -20 -20 -20 -20 -20 -20 -8
-20 3 4 -8 -20 -20 -20 -20 -20 -20 -9 -20 -20 -20 -20 -20 -20 -20 -20 -20 -20 -4 -20 -20 -20 -20 -20 -20 -20 -20 -20 -20 -20 -20 -20 -20 -20 -20 -20 -20 -20 -20 -5
10 8 -7 -20 -20 -20 -20 -20 -15 -1 -14 4 3 -20 -16 -20 -20 -20 -20 -20 -18 -20 -20 -20 -20 -20 -20 -20 -20 -20 -20 -20 -20 -20 -20 -20 -20 -20 -20 -20 -20 -20 0
-20 -20 -20 -20 -20 -20 -20 -20 -20 -20 -20 -20 -20 -20 -20 -20 -20 -20 -20 -20 -20 -20 -20 -20 -20 -20 -20 -20 -20 -20 -20 -20 -20 -20 -20 -20 -20 -20 -20 -20 -20 -20 -20
-20 -15 -20 -20 -20 -20 -20 -20 -20 -20 -20 -20 -20 -20 -20 -20 -20 -20 -20 -20 -20 -20 -20 -20 -20 -20 -20 -20 -20 -20 -20 -20 -20 -20 -20 -20 -20 -20 -20 -20 -20 -20 -20
-20 -20 -20 -20 -20 -20 -20 -20 -20 -20 -20 -20 -20 -20 -17 -20 -20 -20 -20 -20 -20 -20 -20 -20 -20 -20 -20 -20 -20 -20 -20 -20 -20 -20 -20 -20 -20 -20 -20 -20 -20 -20 -20
-20 -20 -20 -20 -20 -20 -20 -20 -20 -20 -20 -20 -20 -20 -20 -20 -20 -20 -20 -20 -20 -20 -20 -20 -20 -20 -20 -20 -20 -20 -20 -20 -20 -20 -20 -20 -20 -20 -20 -20 -20 -20 -20
-20 -20 -20 -19 -20 -20 -20 -20 -20 -20 -20 -20 -20 -20 -20 -20 -20 -20 -20 -20 -20 -20 -20 -20 -20 -20 -20 -20 -20 -20 -20 -20 -20 -20 -20 -20 -20 -20 -20 -20 -20 -20 -20
-20 -20 -6 -11 -20 -20 -20 -20 -20 -20 -20 -20 -20 -20 -15 -20 -20 -20 -20 -20 -20 -20 -20 -20 -20 -20 -20 -20 -20 -20 -20 -20 -20 -20 -20 -20 -20 -20 -20 -20 -20 -20 -20
-20 -20 -20 -20 -20 -5 -18 -20 -20 -9 -1 -20 -20 -20 -20 -20 -20 -20 -20 -20 -20 -20 -20 -20 -20 -20 -20 -20 -20 -20 -20 -20 -20 -20 -20 -20 -20 -20 -20 -20 -20 -20 -20
-20 -20 -20 -20 -20 -20 -20 -20 -20 -18 -17 -20 -20 -20 -20 -20 -20 -20 -20 -20 -20 -20 -20 -20 -20 -20 -20 -20 -20 -20 -20 -20 -20 -20 -20 -20 -20 -20 -20 -20 -20 -20 -20
-20 -20 -20 -20 -20 -20 -20 -20 -20 -20 -20 -20 -20 -20 -20 -20 -20 -20 -20 -20 -20 -20 -20 -20 -20 -20 -20 -20 -20 -20 -20 -20 -20 -2 -20 -20 -20 -20 -20 -20 -20 -20 -20
-20 -20 -20 -20 -20 -20 -20 -20 -20 -20 -20 -20 -20 -20 -20 -20 -20 -20 -20 -20 -20 -20 -20 -20 -20 -20 -20 -20 -20 -20 -20 -20 -20 -20 -20 -20 -20 -20 -20 -20 -20 -20 -20

GFSGL_prec_radar_006.txt.gz
Reflectivity
-20 -20 -20 -20 -20 -20 -20 -20 -18 -20 -20 -20 -20 -20 17 -20 -20 -20 -20 -20 -20 -20 -20 -20 -20 -20 -20 -20 -20 -20 -20 -20 -20 -20 -20 -20 -20 -20 -20 -20 -20 -20 -20
-20 -20 -20 -20 -20 -20 -20 -20 -2 -20 -19 -11 19 22 -9 4 -20 -20 -20 -20 -20 -20 -20 -20 -20 -20 -20 -20 -20 -20 -20 -20 -20 15 -20 -20 -20 -20 -20 -20 -20 -20 -20
-20 -20 -20 -20 -20 -20 -20 -20 -20 -20 -20 -20 27 30 29 10 -20 -20 -20 -20 -20 -20 -20 -20 -20 -20 -20 -20 -20 -20 -20 -20 -20 -20 -20 -20 -20 -20 -20 -20 -20 -20 -20
-20 -20 -20 -20 -20 -20 -20 -20 -20 -20 -20 -7 25 4 -2 1 -20 -20 -4 -20 -20 -20 -20 -20 -20 -20 -20 -20 -20 -20 -20 -20 -20 -20 -8 5 -20 -20 -19 6 5 -20 -20
-20 -20 -20 -20 -20 -20 -20 -20 -20 -20 -20 -20 22 8 -4 -14 -20 -3 -19 -20 -20 -20 -20 -20 -20 -20 -20 -10 -20 -20 -20 -20 -20 -20 -20 -20 -20 -20 24 -20 -20 -20 -20
-20 -20 -20 -20 -20 -20 -17 -20 -20 -20 8 20 12 -20 -20 -20 -20 -20 -20 -20 -20 -20 -20 -12 -20 -4 0 -8 -20 -20 -20 -20 -20 -20 -20 -20 -19 -19 -20 -20 -20 -20 -1
-20 -20 -20 -20 -20 -4 -0 -13 -20 -13 25 32 -20 -20 -20 -20 -20 -20 -20 -20 -20 -20 -20 -4 -18 -20 3 18 20 -20 -3 -20 -20 -20 -14 -14 -1 9 1 10 8 5 -20
-20 -20 -20 -20 -20 -5 -2 -4 -20 -20 -14 -20 -20 -20 -20 -20 -20 -20 -20 -20 16 -20 -20 -20 -20 -20 1 20 24 -20 -20 -20 -20 -2 -6 -15 -20 -20 -20 -20 -20 -20 -20
-20 -20 -20 -20 -20 -19 -4 -16 -20 -2 -10 -20 -20 -20 -3 -14 -20 -20 -11 -20 -20 -20 -18 -1 -3 2 25 23 -12 -20 -20 -20 -20 -20 -20 -20 -20 -20 -20 -20 -20 -3 2
-20 -20 -20 -20 -20 -6 -8 -1 -2 1 -20 -20 -20 -10 -3 -2 21 12 -20 -20 -20 -20 -20 12 24 4 -11 3 -20 -20 -20 -20 -20 -20 -20 -20 -20 -20 -20 -19 -19 5 -0
-20 -20 -20 -20 -20 -3 5 -10 3 8 1 7 -5 -13 -10 -20 -6 18 -20 -20 -20 -20 -20 -20 -10 -20 -20 -20 -20 -20 -20 -14 -20 -20 -20 -20 -20 -20 -20 -20 1 -8 -20
-20 -20 -15 -2 -4 -13 5 -8 -18 -3 13 7 18 27 25 -20 25 -7 -15 -11 -9 -20 -20 -20 -11 -6 -20 -20 -20 -20 -20 -20 -20 -20 -20 -20 -20 -20 -20 -20 -20 -20 -20
-13 -20 -18 4 -18 -7 -8 -20 -18 9 7 9 -7 25 25 -15 -17 -3 3 11 9 14 -20 -2 -20 -20 -20 -20 -20 -20 -20 -20 -20 -20 -20 -20 -20 -20 -20 -20 -20 -20 -20
-5 -3 -3 -1 10 -6 3 -11 8 3 8 13 24 -20 -19 9 14 16 -18 7 -17 -20 -19 -20 -20 -18 -20 -20 -20 -20 -20 -20 -20 -20 -20 -20 -20 -20 -20 -20 -20 -20 -20
-2 2 -16 1 -0 2 -17 -20 -15 -20 -8 -20 -20 -20 -16 7 9 -19 -20 -20 -20 -2 -20 -20 -20 -20 -20 -20 -20 -20 -20 -20 -20 -20 -20 -20 -20 -20 -20 -20 -20 -20 -18
-16 -19 -14 -19 -6 -1 -17 -20 4 3 -7 5 -13 -20 -19 -20 -20 -20 -20 -20 -20 -20 -20 -20 -20 -20 -20 -20 -20 -20 -20 -20 -20 -20 -20 -20 -20 -20 -20 -20 -20 -20 -20
-20 -20 -20 -20 -20 -20 -20 -20 -20 -20 -20 -20 -20 -20 -20 -20 -20 -20 -20 -20 -20 -20 -20 -20 -20 -20 -20 -20 -20 -20 -20 -20 -20 -20 -20 -20 -20 -20 -20 -20 -20 -20 -20
-20 -13 -20 -20 -20 -20 -20 -20 -20 -20 -20 -20 -20 -20 -20 -20 -20 -20 -20 -20 -13 -5 -20 -20 -20 -20 -20 -20 -20 -20 -20 -20 -20 -20 -20 -20 -20 -20 -20 -20 -20 -20 -20
-20 -20 -20 -20 -20 -20 -20 -20 -20 -20 -20 -20 -20 -20 -18 -20 -20 -20 -15 -20 -20 -20 -20 -20 -20 -20 -20 -20 -20 -20 -20 -20 -20 -20 -20 -20 -20 -20 -20 -20 -20 -20 -20
-20 -16 -20 -20 -20 -20 -20 -20 -20 -20 -20 -20 -20 -20 -20 -20 -20 -20 -20 -20 -20 -20 -20 -20 -20 -20 -20 -20 -20 -20 -20 -20 -20 -20 -20 -20 -20 -20 -20 -20 -20 -20 -20
-20 -20 -20 -20 -20 -20 -20 -20 -20 -20 -20 -20 -20 -20 -20 -20 -20 -20 -20 -20 -20 -20 -20 -20 -20 -20 -20 -20 -20 -20 -20 -20 -20 -20 -20 -20 -20 -20 -20 -20 -20 -20 -20
-20 -20 -20 -20 -20 -20 -20 -20 -20 -20 -20 -20 -20 -20 -20 -20 -20 -20 -20 -20 -20 -20 -20 -20 -20 -20 -20 -20 -20 -20 -20 -20 -20 -20 -20 -20 -20 -20 -20 -20 -20 -20 -20
-20 -20 -20 -20 -20 -13 -18 -20 -20 -20 -20 -20 -20 -20 -20 -20 -20 -20 -20 -20 -20 -20 -20 -20 -20 -20 -20 -20 -20 -20 -20 -20 -20 -20 -20 -20 -20 -20 -20 -20 -20 -20 -20
-20 -20 -20 -20 -20 -20 -20 -20 -20 -20 -20 -20 -20 8 -20 -20 -20 -20 -20 -20 -20 -20 -20 -20 -20 -20 -20 -20 -20 -20 -20 -20 -20 -20 -20 -20 -20 -20 -20 -20 -20 -20 -20
-20 -20 -20 -20 -20 -20 -20 -20 -20 -20 -13 -20 -20 -20 -20 -20 -20 -20 -20 -20 -20 -20 -20 -20 -20 -20 -20 -20 -20 -20 -20 -20 -20 0 -20 -20 -20 -20 -20 -20 -20 -20 -20
-20 -20 -20 -20 -20 -20 -20 -20 -20 -20 -20 -20 -20 -20 -20 -20 -20 8 -14 -20 -20 -20 -20 -20 -20 -20 -20 -20 -20 -20 -20 -20 -20 -20 -20 -20 -20 -20 -20 -20 -20 -20 -20

GFSGL_prec_radar_009.txt.gz
Reflectivity
-20 -20 -20 -20 -20 -20 -20 -20 -20 -20 -20 -20 -20 -20 -20 -20 -13 14 -5 -20 -20 -20 -20 -20 -20 -20 -20 -20 -20 -20 -20 -20 -20 -20 -20 -20 -20 -20 -20 -20 -10 -20 -20
-20 -20 -20 -20 -20 -20 -20 -20 -20 -20 -20 -20 -20 -20 -20 -20 -20 -20 -20 -20 -20 -20 -20 -20 -20 -20 27 -10 -20 -20 -20 -20 -20 -20 -20 -20 -20 -20 -20 -20 -20 -20 -20
-20 -20 -20 -20 -20 -20 -20 -20 -20 -20 -20 -20 -20 -20 -20 -20 -20 -20 -20 -20 -20 -20 -20 -20 -20 4 16 -20 -3 -20 -20 -20 -20 -20 -20 -20 -2 -20 -14 -20 -20 -20 -17
-20 -20 -20 -20 -20 -20 -20 -20 -20 -18 -20 -20 -20 -20 -20 -17 -20 -20 -20 -20 -20 -19 18 -20 -20 -20 17 19 1 19 -19 -7 -20 -20 -20 -20 -20 -20 6 -20 -20 -20 -20
-20 -20 -20 -20 -20 -20 -20 -20 -10 -3 -20 -20 -20 -12 15 -20 -20 -20 -20 -20 -20 -20 -17 -20 -20 -20 -19 -17 -15 -20 11 7 -20 -20 -20 -20 -20 -20 -20 -20 -20 -20 -20
-20 -20 -20 -20 -20 -20 -20 -20 7 7 8 -20 -20 1 6 -19 -20 -20 10 -20 -20 -20 -20 -19 -20 -9 -20 -20 -20 8 12 25 16 -20 -20 -20 -20 -20 -20 -20 -20 -20 -20
-20 -20 -20 -20 -20 -20 -20 -3 -5 -12 -3 -20 -20 -20 -20 -18 19 -11 -11 -20 -20 -20 10 -20 -20 -20 -20 -20 -20 -16 15 23 20 -20 -20 -20 -20 -13 -20 -20 -19 -20 -20
-20 -20 -20 -20 -20 -17 -1 -11 -20 -8 2 -20 -20 -20 -20 -20 -12 -20 -20 -20 -20 -20 -20 19 11 -14 -20 -20 3 -3 -13 -5 15 -1 -3 4 -15 -19 -20 -20 -20 -20 -20
-20 -20 -20 -20 -20 -20 -3 3 -7 -0 -2 -20 -20 25 -20 -7 -20 -17 -20 -20 -20 -5 -20 20 4 -20 -18 -17 -2 -18 -19 -8 -15 -20 -20 -20 -20 -20 -20 -20 -20 -20 -20
-20 -20 -20 -20 -20 -20 -20 3 3 11 9 -20 -20 -4 18 5 -20 -20 -20 -20 13 9 -15 25 5 -20 -20 -20 -20 -20 -20 -20 -20 -20 -20 -20 -20 -20 -20 -20 -7 10 -13
-20 -20 -20 -20 -20 -20 -11 5 8 12 10 -3 -18 -4 7 6 5 -20 24 -20 -7 -20 -20 -20 -20 -16 -20 -20 -20 -20 -20 -15 -20 -20 -20 -20 -20 -20 -20 -20 6 -0 -9
-20 -20 -20 -20 -20 -20 -10 8 -0 -8 -12 12 2 12 13 22 -18 -11 -20 -18 6 -20 1 -20 25 24 -9 -20 -20 -20 -20 -20 -20 -20 -20 -20 -20 -20 -20 -20 -20 -20 -20
-20 -20 -19 -20 -20 -20 9 2 -20 -4 -8 12 -13 13 31 27 19 28 25 18 -8 -18 -16 13 23 -7 -20 -20 -20 -20 -20 -20 -20 -20 -20 -20 -20 -20 -20 -20 -20 -20 -20
-16 -14 -16 9 0 -19 -6 -20 -20 -18 -8 14 14 15 7 -8 -15 -20 -20 7 -7 25 -12 12 -20 -20 -20 -20 -20 -20 -20 -20 -20 -20 -20 -20 -20 -20 -20 -20 -20 -20 -20
-1 3 1 -14 -1 -20 -7 -4 -3 -20 9 -20 8 -5 4 -20 -20 -8 6 24 5 -19 3 -20 -20 -20 -20 -20 -20 -20 -20 -20 -20 -20 -20 -20 -20 -20 -20 -20 -20 -20 -20
-16 -17 -8 -20 -1 -18 -20 -20 8 3 -4 -20 -14 -2 -15 -20 -20 -20 -20 -20 -20 -11 -20 -20 -20 -20 -20 -20 -20 -20 -20 -20 -20 -20 -20 -20 -20 -20 -20 -20 -20 -20 -20
-20 -20 -20 -20 -20 -20 -20 -20 -20 -20 -20 -20 -20 -20 -20 -20 -20 -20 -20 -20 -20 -20 -20 -20 -20 -20 -20 -20 -20 -20 -20 -20 -20 -20 -20 -20 -20 -20 -20 -20 -20 -20 -20
-20 -20 -20 -20 -20 -20 -20 -20 -20 -20 -20 -20 -20 -19 -20 -20 -20 -20 -20 -20 -16 -6 -20 -20 -20 -20 -20 -20 -20 -20 -20 -20 -20 -20 -20 -20 -20 -20 -20 -20 -20 -20 -20
-20 -20 -20 -20 -20 -20 -20 -20 -20 -20 -20 -20 -20 -20 -19 -20 -20 -20 -15 -20 -20 -20 -20 -20 -20 -20 -20 -20 -20 -20 -20 -20 -20 -20 -20 -20 -20 -20 -20 -20 -20 -20 -20
-20 -20 -20 -20 -20 -20 -20 -20 -20 -20 -20 -20 -20 -20 -20 -20 -20 -20 -20 -20 -20 -20 -20 -20 -20 -20 -20 -20 -20 -20 -20 -20 -20 -20 -20 -20 -20 -20 -20 -20 -20 -20 -20
-20 -20 -20 -20 -20 -20 -20 -20 -20 -20 -20 -20 -20 -20 -20 -20 -20 -20 -20 -20 -20 -20 -20 -20 -20 -20 -20 -20 -20 -20 -20 -20 -20 -20 -20 -20 -20 -20 -20 -20 -20 -20 -20
-20 -20 -20 -20 -20 -20 -20 -20 -20 -20 -20 -20 -20 -20 -20 -20 -20 -20 -20 -20 -20 -20 -20 -20 -20 -20 -20 -20 -20 -20 -20 -20 -20 -20 -20 -20 -20 -20 -20 -20 -20 -20 -20
-20 -20 -20 -20 -20 -20 -20 -15 -20 -20 -20 -20 -20 -20 -20 -20 -20 -20 -20 -20 -9 -20 -20 -20 -20 -20 -20 -20 -20 -20 -20 -20 -20 -20 -20 -20 -20 -20 -20 -20 -20 -20 -20
17 -4 -20 10 -7 -20 -20 -20 -20 -20 -20 -18 -20 -20 -20 -20 -20 17 -1 1 -17 -20 -20 -20 -20 -20 -20 -20 -20 -20 -20 -20 -20 -20 -20 -20 -20 -20 -20 -20 -20 -20 -20
-16 -19 -20 -20 13 -20 -20 -20 -20 -20 -20 -20 -20 -20 -20 -20 -19 4 -17 -20 -20 -20 -20 -20 -20 -20 -20 -20 -20 -20 -20 -20 -20 -20 -20 -20 -20 -20 -20 -20 -20 -20 -20
-5 -19 -20 -20 -20 -20 -20 -20 -20 -20 -20 -20 -20 -20 -20 -20 -20 -20 -20 -20 -20 -20 -20 -14 -20 -20 -20 -20 -20 -20 -20 -20 -20 -20 -20 -20 -20 -20 -20 -20 -20 -20 -20

GFSGL_prec_radar_012.txt.gz
Reflectivity
-20 -20 -20 -20 -20 -20 -20 -20 -20 -20 -20 -20 -20 -20 -20 -20 -20 -20 -20 -20 -20 -20 -20 -20 -20 -20 -20 -20 -20 -20 -20 -20 -20 -20 -20 -20 -20 -20 -20 -20 -15 -20 -20
-20 -20 -20 -20 -20 -20 -20 -20 -20 -20 -20 -20 -20 -20 -20 -20 -20 -20 -20 -20 -20 -20 -20 -20 -20 -20 -20 -20 -20 -20 -20 -20 -16 -20 -20 -20 -15 -20 -20 -20 -20 -20 -20
-20 -20 -20 -20 -20 -20 -20 -20 -20 -20 -20 -20 -20 -20 -20 -20 -20 -20 -20 -20 -20 -20 -20 -20 -20 -20 -19 -4 -20 -20 -20 -11 -20 -20 -20 -17 -14 -19 -20 -20 -20 -20 -20
-20 -20 -20 -20 -20 -20 -20 -20 -20 -20 -20 -20 -20 -20 -20 -20 -20 -18 -20 -20 -20 -20 -20 -20 -20 -20 -20 -20 -20 1 -20 -20 -20 -20 -20 -16 -8 -13 -16 -19 -19 -20 -20
-20 -20 -20 -20 -20 -20 -20 -20 -20 -20 -20 -20 -20 -20 -20 -20 -20 -20 -20 -20 -20 -20 -20 -18 -20 -20 -20 -20 -6 -20 14 -20 -20 -20 -20 -4 -18 -20 -20 -20 -20 -20 -20
-20 -20 -20 -20 -20 -20 -20 -20 -20 -20 4 7 -20 -20 -20 -17 -20 -20 -20 -20 -20 -20 -20 -20 -20 -20 -20 -17 8 -20 -20 -20 -20 -20 -20 -19 -9 -20 -20 -20 -20 -16 -7
-20 -20 -20 -20 -20 -20 -20 -20 -20 -2 -20 -20 -20 -20 -20 -20 -17 -20 -20 -20 -20 -20 -9 -20 -20 -20 -20 -20 -4 -20 -20 -18 -18 -20 -20 -20 -20 -14 8 -20 -20 -20 -20
-20 -20 -20 -20 -20 -20 -20 -20 -20 -20 -20 6 -7 -20 -20 -20 -20 -11 -20 -20 -20 -5 18 -16 -20 -20 17 -19 -20 -20 -20 -20 -20 -20 -20 -20 -20 -20 -20 -20 -20 -20 -20
-20 -20 -20 -20 -20 -20 -20 -20 -20 -17 -20 -20 3 13 -15 -7 21 -20 -14 -20 -20 -20 15 -20 -20 4 20 29 -10 -20 -13 -20 -20 -19 -20 -5 -20 -20 -20 -20 -20 -20 -20
-20 -20 -20 -20 -20 -20 -20 -20 -20 -19 5 -6 -20 11 16 -20 6 7 -20 -20 -20 2 22 -20 -20 -20 30 26 -19 16 -20 -20 -20 -20 -20 -20 -20 -20 -20 -20 -20 -20 -16
-20 -20 -20 -20 -20 -20 -20 -20 -18 12 8 -20 10 -1 -20 -20 2 -20 -20 -12 8 20 -3 27 32 29 -20 -10 -14 -20 -20 -20 -20 -20 -20 -20 -20 -20 -19 -20 -20 -20 -2
-20 -20 -20 -20 -20 -20 -20 -10 -5 8 -20 -20 10 -20 4 18 -4 -13 -20 -20 6 -11 21 9 26 8 -20 2 -15 -20 -20 -20 -20 -20 -20 -20 -16 -0 -18 -20 -20 -20 -20
-20 -20 -20 -20 -20 -17 -14 7 11 5 5 -1 -18 6 -20 -20 -20 -9 -20 -20 -20 -20 -16 27 24 -20 20 -20 -20 -20 -20 -20 -20 -20 -20 -8 -19 -20 -20 -20 -20 -20 -20
-20 -20 -20 -20 -20 -14 3 -15 -18 -16 -2 -1 11 14 22 -19 -20 -20 -20 -18 -19 -20 -1 -18 1 -20 -20 -18 -20 -20 -20 -20 -20 -20 -20 -20 -20 -20 -20 -20 -20 -20 -20
-20 -20 -20 -20 -19 -20 -15 -20 -9 -20 -7 -8 -9 -15 -20 -9 -10 -20 -20 -20 -20 -20 -20 -20 -20 -20 -20 -20 -20 -20 -20 -20 -20 -3 -20 -20 -20 -20 -20 -20 -20 -20 -20
-19 -19 -20 -20 6 -19 -20 -20 -20 -20 -19 -20 -16 -15 -16 -4 -20 -20 -20 -20 -20 -20 -20 -20 -20 -20 -20 -20 -1 -20 -20 3 -20 -20 -20 -20 -20 -20 -20 -20 -20 -20 -20
-20 -16 -17 -5 -12 -20 -20 -20 -20 -20 -20 -20 -20 -20 -20 -20 -20 -20 -20 -20 -20 -20 -20 -20 -20 -20 -20 -20 -20 -20 -20 -20 -20 -20 -20 -20 -20 -20 -20 -20 -20 -20 -20
-19 -20 -20 -20 -20 -20 -20 -20 -20 -20 -20 -20 -20 -20 -20 -20 -20 -20 -20 -20 -20 -20 -20 -20 -20 -20 -20 -20 -20 -20 -20 -20 -20 -20 -20 -20 -20 -20 -20 -20 -20 -20 -20
-20 -16 -6 -1 9 0 -17 -20 -20 -20 -20 -20 -20 -20 -20 -20 -20 -20 -20 -20 -20 -20 -20 -20 -20 -20 -20 -20 -20 -20 -20 -20 -20 -20 -20 -20 -20 -20 -20 -20 -20 -20 -20
-17 -15 -16 -16 -18 -20 -20 -20 -20 -20 -2 -20 -20 -20 -20 -20 -20 -20 -20 -20 -20 -20 -20 -20 -20 -20 -20 -20 -20 -20 -20 -20 -20 -20 -20 -20 -20 -20 -20 -20 -20 -20 -20
5 -11 -20 -20 -20 -20 -20 -20 -20 -20 -20 -20 -20 -20 -20 -20 -20 -20 -20 -20 -20 -20 -20 -20 -20 -20 -20 -20 -20 -20 -20 -20 -20 -20 -20 -20 -20 -20 -20 -20 -20 -20 -20
5 -4 -20 -20 -20 -15 -20 -20 -20 -20 -20 -14 -20 -20 -20 -20 -20 -20 -20 -20 -20 -20 -20 -20 -20 -20 -20 -20 -20 -20 -20 -20 -20 -20 -20 -20 -20 -20 -20 -20 -20 -20 -20
-9 -8 -16 -20 -13 1 -9 1 -20 -20 -20 30 -4 -20 -20 -20 -20 -20 -20 -20 -20 -20 -20 -20 -20 -20 -20 -20 -20 -20 -20 -20 -20 -20 -20 -20 -20 -20 -20 -20 -20 -20 -20
-20 -18 -20 16 -17 -18 -12 -18 -20 14 -17 -15 -20 -20 -20 -20 -20 -20 -20 -20 -20 -20 -20 -20 -20 -20 -20 -20 -20 -20 -20 -20 -20 -20 -20 -20 -20 -20 -20 -20 -20 -20 -20
3 -14 -5 25 -5 -20 21 7 -19 23 -17 -20 -20 -16 -4 -20 -20 -20 -20 -20 -20 -20 -20 -20 -20 -20 -20 -20 -20 -20 -20 -20 -20 -20 -20 -20 -20 -20 -20 -20 -20 -20 -20
-20 -20 -20 -10 -8 16 -19 27 -20 -20 4 13 -20 -20 -20 -20 -20 -20 -20 -20 -20 -20 -20 -20 -20 -20 -20 -20 -20 -20 -20 -20 -20 -20 -20 -20 -20 -20 -20 -20 -20 -20 -20

GFSGL_prec_radar_015.txt.gz
Reflectivity
-20 -20 -20 -20 -20 -20 -20 -20 -20 -20 -20 -20 -20 -20 -20 -20 -20 -20 -20 -20 -20 -20 -20 -20 -20 -20 -20 -20 -20 -20 -20 -20 -20 -20 -20 -20 -20 -20 -20 -20 -20 -20 -5
-20 -20 -20 -20 -20 -20 -20 -20 -20 -20 -20 -20 -20 -20 -20 -20 -20 -20 -20 -20 -20 -20 -20 -20 -20 -20 -20 -20 -20 -20 9 -20 -20 -20 -20 -20 -20 -20 -20 -20 -20 -20 -20
-20 -20 -20 -20 -20 -20 -20 -20 -20 -20 -20 -20 -20 -20 -20 -20 -20 -20 -20 -20 -20 -20 -20 -20 -20 -20 -20 -20 -20 -20 -20 -20 -20 -20 -20 -20 -20 -20 -20 -20 -20 -20 -20
-20 -20 -20 -20 -20 -20 -20 -20 -20 -20 -20 -20 -20 -20 -20 -20 -20 -20 -20 -20 -20 -20 -20 -20 -20 -20 -13 -20 -20 -20 -20 -20 -20 -20 -20 -20 -20 -20 -20 -9 -20 -20 -20
-20 -20 -20 -20 -20 -20 -20 -20 -20 -20 -20 -20 -20 -20 -20 -20 -20 -9 -20 -20 -20 -20 -20 -20 -20 -3 -4 -20 -20 -20 -20 -20 -20 -20 -20 -20 -20 -20 -20 -20 -20 -20 -11
-20 -20 -20 -20 -20 -20 -20 -20 -20 -20 -20 -20 -20 -20 -20 -20 -20 -18 -20 -15 -20 -20 -20 -20 -20 5 5 -18 -20 -20 -11 -20 -19 -20 -20 -20 -20 -20 -20 -20 -20 -20 -20
-20 -20 -20 -20 -20 -20 -20 -20 -20 -20 -20 -20 -14 -18 -20 -20 28 -20 -15 -7 -20 -20 -20 -20 -20 -17 -6 -20 -20 -14 30 11 -2 -16 -20 -20 -20 -20 -20 -20 -20 -20 -20
-20 -20 -20 -20 -20 -20 -20 -20 -20 -20 -20 -20 -10 -10 -20 -18 14 24 22 23 -20 -20 -20 -20 -20 24 17 -20 14 25 21 24 29 1 -20 -20 -20 -20 -20 -20 -20 -20 -20
-20 -20 -20 -20 -20 -20 -20 -20 -20 -20 -20 -20 34 2 -11 15 19 15 12 -20 -20 -20 -20 -16 25 -2 24 24 20 28 15 1 18 -20 -20 -20 -20 -20 -20 -20 -20 -20 -20
-20 -20 -20 -20 -20 -20 -20 -20 -20 -20 23 17 -17 -15 21 -5 26 4 -20 -20 -20 -20 -20 -20 -20 1 19 6 26 27 20 -20 -20 -20 -20 -20 -20 -20 -20 -20 -6 -20 -20
-20 -20 -20 -20 -20 -20 -20 -20 -20 22 21 -20 -4 14 7 -4 1 -20 -19 -18 -13 -20 -20 -20 -20 -19 -2 14 14 28 -1 -18 -2 -8 -12 -20 -20 -20 -20 -20 -20 -20 -20
-20 -20 -20 -20 -20 -20 -8 -16 -5 -18 -20 -20 -9 -20 -15 -20 -20 -13 -20 -20 -20 -20 -20 -20 -20 13 -20 -9 28 20 -20 -20 -13 10 -14 -20 -20 -20 -20 -20 -20 -20 -20
-20 -20 -20 -20 -18 -5 -11 -14 -17 -20 -20 -20 -20 -15 -20 -20 -19 -9 -20 -20 -15 -20 -20 -20 22 29 -20 17 16 -2 -3 -20 -20 -20 -20 -20 -20 -20 -20 -20 -20 -20 -20
-20 -20 -20 -20 -20 -20 -20 -20 -20 -20 -20 -20 -20 -20 -20 -20 -20 -20 -20 -18 -5 -20 15 -20 -20 -16 -19 -20 -20 -20 -20 -20 -20 -20 -20 -20 -20 -20 -20 -20 -20 -20 -20
-20 -20 -17 5 -20 -20 -20 -20 -20 -20 -13 -20 -20 -19 -20 -20 -20 -20 -20 -20 -20 -20 -20 -20 -20 -20 -20 -20 -20 -20 -20 -20 -20 -20 -20 -20 -20 -20 -20 -20 -20 -20 -20
-20 -1 4 -20 -20 -20 -20 -20 -20 -14 -20 -20 -20 -20 -19 -20 -20 -20 -20 -20 -20 -20 -20 -20 -20 -20 -20 -20 -20 -20 -20 -20 -20 -20 -20 -20 -20 -20 -20 -20 -20 -20 -20
-20 -19 -18 -20 -20 -20 -18 -15 -20 -20 -9 -20 -20 -20 -20 -20 -20 -20 -20 -20 -20 -20 -20 -20 -20 -20 -20 -20 -20 -20 -20 -20 -20 -20 -20 -20 -20 -20 -20 -20 -20 -20 -20
-20 -5 -6 -20 -20 -20 -20 -20 -20 -20 -20 5 -1 -20 -20 -20 -20 -20 -20 -20 -20 -20 -20 -20 -20 -20 -20 -20 -20 -20 -20 -20 -20 -20 -20 -20 -20 -20 -20 -20 -20 -20 -20
-9 -17 -20 -20 -20 -6 -19 -20 9 7 17 15 3 -20 -20 -20 -20 -20 -20 -20 -20 -20 -20 -20 -20 -20 -20 -20 -20 -20 -20 -20 -20 -20 -20 -20 -20 -20 -20 -20 -20 -20 -20
-17 -8 -20 -20 26 14 -20 -8 3 -19 -20 -20 -20 -20 -20 -20 -20 -20 -20 -20 -20 -20 -20 -20 -20 -20 -20 -20 -20 -20 -20 -20 -20 -20 -20 -20 -20 -20 -20 -20 -20 -20 -20
16 33 -7 -8 -3 31 -10 13 11 -20 -20 -20 -20 -20 -20 -20 -20 -20 -20 -20 -20 -20 -20 -20 -20 -20 -20 -20 -20 -20 -20 -20 -20 -20 -20 -20 -20 -20 -20 -20 -20 -20 -20
14 7 19 -15 26 21 8 2 -1 -20 -20 -20 -13 -9 -20 -20 -20 -20 -20 -20 -20 -20 -20 -20 -20 -20 -20 -20 -20 -20 -20 -20 -20 -20 -20 -20 -20 -20 -20 -20 -20 -20 -20
-18 -19 5 -20 -4 11 11 -3 -20 -20 -20 -20 -20 -20 -16 -9 -20 -20 -20 -20 -20 -20 -16 -20 -20 -20 -20 -20 -20 -20 -20 -20 -20 -20 -20 -20 -20 -20 -20 -20 -20 -20 -20
5 23 12 3 4 25 27 20 -20 -20 -20 -20 -20 -14 22 -17 -20 -20 -20 -20 -20 -20 -20 -20 -20 -20 -5 -20 -20 -20 -20 -20 -20 -20 -20 -20 -20 -20 -20 -20 -20 -20 -20
0 -20 -2 27 3 -20 -9 -15 -20 -20 -20 -20 13 4 -18 -20 -20 -20 -20 -20 -20 -20 -20 -20 -20 -20 -20 -20 -20 -20 -20 -20 -20 -20 -20 -20 -20 -20 -20 -20 -20 -20 -20
-19 -20 -20 -20 14 1 11 13 0 -16 14 -20 -6 -20 -15 -19 -20 -20 -20 -20 -20 -20 -20 -20 -20 -20 -20 -20 -20 -20 -20 -20 -20 -20 -20 -20 -20 -20 -20 -20 -20 -20 -20

GFSGL_prec_radar_021.txt.gz
Reflectivity
-20 -20 -20 -20 -20 -20 -20 -20 -20 -20 -20 -20 -20 -20 -20 -20 -20 -20 -20 -20 -20 -20 -20 -20 -20 -20 -20 -20 -20 -20 -20 -20 -20 -20 -20 -20 -20 -20 -20 -20 -20 -20 -20
-20 -20 -20 -20 -20 -20 -20 -20 -20 -20 -20 -20 -20 -20 -20 -20 -20 -20 -20 -20 -20 -20 -20 -20 -20 -20 -20 -20 -20 -20 -20 -20 -20 -20 -20 -20 -20 -20 -20 -20 -20 -20 -20
-20 -20 -20 -20 -20 -20 -20 -20 -20 -20 -20 -20 -20 -20 -20 -20 -20 -20 -20 -20 -20 -20 -20 -20 -20 -20 -20 -20 -20 -20 -20 -20 -20 -20 -20 -20 -20 -20 -20 -20 -20 -20 -20
-20 -20 -20 -20 -20 -20 -20 -20 -20 -20 -20 -20 -20 -20 -20 -20 -20 -20 -20 -20 -20 -20 29 4 -20 -20 -20 -20 -20 -20 -20 -20 -20 -20 -20 -20 -20 -20 -20 -20 -20 -20 -20
-20 -20 -20 -20 -20 -20 -20 -20 -20 -20 -20 -20 -20 -20 -20 -20 -20 -20 -20 -20 -20 -20 -19 25 -20 17 -20 -20 -20 -20 -20 -20 -20 -20 -20 -20 8 29 2 -6 -7 -20 -3
-20 -20 -20 -20 -20 -20 -20 -20 -20 -20 -20 -20 -20 -20 -20 -20 -20 -20 -20 -20 -20 2 -9 -20 -19 25 -20 -20 -20 -20 -20 -20 -20 -20 -20 -20 -10 17 -15 26 23 3 -20
-20 -20 -20 -20 -20 -20 -20 -20 -20 -20 -20 -20 -20 -20 -20 -20 -20 -20 -20 -20 -20 -17 -15 -19 12 12 -15 -20 -20 -20 -20 -13 -20 23 12 -20 -3 -0 23 18 -19 -20 -20
-20 -20 -20 -20 -20 -20 -20 -20 -20 -20 -20 -20 -20 -20 -20 -20 -20 -20 -20 -20 -20 -10 11 -2 -15 -20 -20 -20 -20 -20 -20 -20 -11 -2 -4 -7 17 9 16 4 -9 -20 -20
-20 -20 -20 -20 -20 -20 -20 -20 -20 -20 -20 -20 -20 -20 -20 -20 -20 -20 -8 -20 -19 -2 -16 -20 -0 -18 -20 -20 -20 -20 -20 -20 6 5 -13 3 -17 -13 -20 -20 -20 -20 -20
-20 -20 -20 -19 -20 -20 -20 -20 -20 -20 -20 -20 -20 -20 -20 -20 -20 -17 8 3 -20 -20 -18 -17 2 -17 -19 10 -11 -14 -20 -10 11 -20 -20 -20 -20 -20 -20 -20 -20 -20 -20
-20 -18 9 7 -20 -20 -20 -20 -20 -20 -20 -20 -19 -20 -20 -20 -20 -18 20 10 2 7 -20 -20 -20 -20 -20 11 -4 -20 -20 -6 -20 -20 -20 -20 -20 -20 -20 -20 -20 -20 -20
-19 -20 -4 -1 9 -0 -20 -20 -20 -15 -20 -9 -17 -20 -20 -20 -20 -13 14 9 13 -9 -20 -20 -12 -1 6 8 6 1 1 -20 -20 -20 -20 -20 -20 -20 -20 -20 -20 -20 -20
-20 -20 -19 -18 19 -1 -20 -20 -20 -20 -2 -10 5 -20 -20 -20 -20 7 1 -9 -10 -18 -20 8 10 8 4 9 7 11 -19 -20 -20 -20 -20 -20 -20 -20 -20 -20 -20 -20 -20
-20 -20 -20 -20 -20 17 25 25 6 -2 -14 -11 -5 18 1 -2 -12 20 3 -20 -3 -15 -20 -17 -20 -20 -20 -20 0 -20 -20 -20 -20 -20 -20 -20 -20 -20 -20 -20 -20 -20 -20
-20 -20 -20 -20 -20 -0 -5 -4 -14 -9 10 34 27 37 32 12 13 6 -11 -20 -20 -20 -20 -20 -20 -20 -20 -20 -20 -20 -20 -20 -20 -20 -20 -20 -20 -20 -20 -20 -20 -20 -20
-20 -20 -20 -20 -20 -20 -20 4 36 33 16 35 34 42 37 25 12 12 12 11 10 -19 -20 -20 -20 -20 -20 -20 -20 -20 -20 -20 -20 -20 -20 -20 -20 -20 -20 -20 -20 -20 -20
-20 -20 -5 9 -15 -6 16 10 9 38 40 43 40 44 27 16 10 10 11 10 -18 -20 -20 -20 -20 -20 -20 -20 -20 -20 -20 -20 -20 -20 -20 -20 -20 -20 -20 -20 -20 -20 -20
15 30 1 19 26 16 -1 -7 15 32 51 41 27 18 19 12 10 11 11 1 -20 -20 -20 -20 -20 -20 -20 -20 -20 -20 -20 -20 -20 -20 -20 -20 -20 -20 -20 -20 -20 -20 -20
22 31 32 35 40 44 28 2 25 27 32 23 11 10 6 1 -13 -16 -20 -20 -20 -20 -20 -20 -20 -20 -20 -20 -20 -20 -20 -20 -20 -20 -20 -20 -20 -20 -20 -20 -20 -20 -20
23 46 53 50 41 35 41 33 22 -11 2 -2 -11 -19 -20 -20 -20 -4 -8 -10 -20 -20 -20 -20 -20 -20 -20 -20 -20 -20 -20 -20 -20 -20 -20 -20 -20 -20 -20 -20 -20 -20 -20
35 38 44 26 17 28 8 9 -2 -20 -20 -19 -20 -20 -19 -19 -20 -20 -20 -20 -20 -20 -20 -20 -20 -20 -20 -20 -20 -20 -20 -20 -20 -20 -20 -20 -20 -20 -20 -20 -20 -20 -20
37 30 11 9 25 15 -10 -20 -20 -17 5 2 10 -14 -20 -20 -20 -20 -20 -20 -20 -20 -20 -20 -20 -20 -20 -20 -20 -20 -20 -20 -20 -20 -20 -20 -20 -20 -20 -20 -20 -20 -20
-4 -5 -8 5 1 -4 -18 -17 -20 -20 -14 17 7 -20 -20 -20 -20 -20 -20 -20 -20 -20 -20 -20 -20 -20 -20 -20 -20 -20 -20 -20 -20 -20 -20 -20 -20 -20 -20 -20 -20 -20 -20
-1 8 10 -3 -20 31 19 -20 30 24 23 22 -20 -20 -20 -20 -20 -20 -20 -20 -20 -20 -20 -20 -20 -20 -20 -20 -20 -20 -20 -20 -20 -20 -20 -20 -20 -20 -20 -20 -20 -20 -20
-20 -20 11 21 22 -10 1 -11 -20 0 -7 -20 -20 -17 -13 -20 -20 -20 -20 -20 -20 -20 -20 -20 -20 -20 -16 -20 -20 -20 -20 -20 -20 -20 -20 -20 -20 -20 -20 -20 -20 -20 -20
3 31 5 -14 -17 14 18 -2 -12 -2 4 -20 -17 -6 -6 -20 -20 -20 -20 -20 -20 -20 -20 -20 -20 -20 -20 -20 -20 -20 -20 -20 -20 -20 -20 -20 -20 -20 -20 -20 -20 -20 -20

GFSGL_prec_radar_024.txt.gz
Reflectivity
-20 -20 -20 -20 -20 -20 -20 -20 -20 -20 -20 -20 -20 -20 -20 -20 -20 -20 -20 -20 -20 -20 -20 -20 -20 -20 -20 -20 -20 -20 -20 -20 -20 -20 -20 -20 -20 -20 -20 -20 -20 -20 -20
-20 -20 -20 -20 -20 -20 -20 -20 -20 -20 -20 -20 -20 -20 -20 -20 -20 -20 -20 -20 -20 -20 -20 -20 -20 -20 -20 -20 -20 -20 -20 -20 -20 -20 -20 -20 -20 -20 -20 -20 -20 -20 -20
-20 -20 -20 -20 -20 -20 -20 -20 -20 -20 -20 -20 -20 -20 -20 -20 -20 -20 -20 -20 -20 -20 -20 -20 -20 -20 -20 -20 -20 -20 -20 -20 -20 -20 -20 -20 -20 -20 -20 -20 -20 -20 -20
-20 -20 -20 -20 -20 -20 -20 -20 -20 -20 -20 -20 -20 -20 -20 -20 -20 -20 -20 -20 -20 -20 -20 -12 -20 -19 -5 -20 -20 -20 -20 -20 -20 -20 -20 -20 -20 -20 -20 -20 -20 -4 -20
-20 -20 -20 -20 -20 -20 -20 -20 -20 -20 -20 -20 -20 -20 -20 -20 -20 -20 -20 -20 -20 -20 -20 -20 -20 -18 23 -19 -20 -20 -20 -20 -20 -20 -20 -20 -20 -20 -20 -20 -19 -20 -18
-20 -20 -20 -20 -20 -20 -20 -20 -20 -20 -20 -20 -20 -20 -20 -20 -20 -20 -20 -20 -20 -20 -20 -20 -20 -20 28 -20 -20 -20 -20 -20 -20 -20 -20 -20 -20 -20 -20 -20 -6 -14 8
-15 -20 -20 -20 -20 -20 -20 -20 -20 -20 -20 -20 -20 -20 -20 -20 -20 -20 -20 -20 -20 -20 -20 -20 -19 8 -20 -20 -20 -20 -20 -20 -20 -20 -20 -20 -20 -20 -20 -19 7 21 6
-2 -20 -20 -20 -20 -20 -20 -20 -20 -20 -20 -20 -20 -20 -20 -20 -20 -20 -20 -20 -20 -20 -20 -20 -13 -20 -7 -11 -20 -20 -20 -20 -20 -20 -20 -20 -20 -20 -20 -20 -20 -20 -20
-20 -20 -20 -20 -20 -20 -20 -20 -20 -20 -20 -20 -20 -20 -20 -20 -20 -20 -20 -20 -20 -20 -20 -5 -20 -20 3 2 -20 -20 -20 -20 4 7 -2 -20 -11 -20 -20 -20 -20 -20 -20
-20 -20 -20 -19 -6 -20 -20 -20 -20 -20 -20 -20 -20 -20 -20 -20 -12 -20 -20 -20 -20 -20 7 -9 -20 -20 -20 -20 -20 -20 -20 -20 -20 7 -20 -20 -20 -20 -20 -20 -20 -20 -20
-20 -20 -20 -11 -12 -20 16 -2 -13 -15 -20 -20 -20 -20 -20 -20 -19 -20 -20 -20 -20 -20 -20 -16 -20 -20 -20 -20 -20 -20 -20 -3 10 -18 -20 -20 -20 -20 -20 -20 -20 -20 -20
-20 -20 -20 -20 -20 -20 -20 -0 11 7 -3 -12 2 -6 -20 -20 -6 -10 -20 -20 -15 -19 -19 -20 -20 -20 -20 -15 -18 -20 -20 1 -19 -20 -20 -20 -20 -20 -20 -20 -20 -20 -20
-20 -20 -20 -20 -18 32 -4 -20 -20 1 -3 -20 -20 16 0 9 -19 -1 -14 -6 -14 -20 -20 -6 8 6 -0 3 -1 5 -20 -20 -20 -20 -20 -20 -20 -20 -20 -20 -20 -20 -20
-20 -20 -20 -20 28 -3 -20 -4 -16 -17 -20 4 42 26 -1 3 -7 17 18 35 32 -6 -3 -15 4 -15 -15 -17 -17 -4 -20 -20 -20 -20 -20 -20 -20 -20 -20 -20 -20 -20 -20
-20 -20 -20 -20 -20 -20 -9 35 29 -11 12 7 10 24 19 36 29 37 36 33 21 14 2 -20 -20 -20 -20 -20 -20 -20 -20 -20 -20 -20 -20 -20 -20 -20 -20 -20 -20 -20 -20
-20 -20 -20 -20 -20 -20 -20 -15 12 7 14 25 26 14 26 44 51 43 42 44 26 19 -3 4 -13 -20 -20 -20 -20 -20 -20 -20 -20 -20 -20 -20 -20 -20 -20 -20 -20 -20 -20
-20 -20 -20 -20 -20 -20 -6 -20 -5 30 25 13 34 32 31 24 39 45 43 34 20 3 -2 -11 -20 -20 -20 -20 -20 -20 -20 -20 -20 -20 -20 -20 -20 -20 -20 -20 -20 -20 -20
-20 7 -20 -20 -20 -10 4 0 11 -13 -6 10 24 25 20 14 26 31 32 20 16 8 -11 -9 8 -20 -20 -20 -20 -20 -20 -20 -20 -20 -20 -20 -20 -20 -20 -20 -20 -20 -20
-11 16 27 14 -11 5 5 14 19 27 29 22 31 34 18 11 11 19 26 33 -0 -3 -10 -20 -20 -20 -20 -20 -20 -20 -20 -20 -20 -20 -20 -20 -20 -20 -20 -20 -20 -20 -20
-12 20 25 31 48 29 31 27 3 3 11 31 39 42 28 21 11 20 12 14 4 -10 -20 -20 -20 -20 -20 -20 -20 -20 -20 -20 -20 -20 -20 -20 -20 -20 -20 -20 -20 -20 -20
-20 -20 -20 23 53 49 32 15 5 -17 -19 23 36 41 35 15 5 2 -12 8 5 -8 7 -11 -20 -20 -20 -20 -20 -20 -20 -20 -20 -20 -20 -20 -20 -20 -20 -20 -20 -20 -20
-9 -3 -5 19 37 32 25 18 0 17 21 27 30 34 21 13 -13 -20 -16 -11 -10 -20 -20 -20 -20 -20 -20 -20 -20 -20 -20 -20 -20 -20 -20 -20 -20 -20 -20 -20 -20 -20 -20
-20 -15 9 2 12 27 15 13 -1 9 20 30 12 7 -12 -12 1 -18 -20 -20 -20 -20 -20 -20 -20 -20 -20 -20 -20 -20 -20 -20 -20 -20 -20 -20 -20 -20 -20 -20 -20 -20 -20
-20 -5 6 -4 -12 -3 27 27 3 23 0 18 30 27 -18 -20 -20 -20 -20 -20 -20 -20 -20 -20 -20 -20 -20 -20 -20 -20 -20 -20 -20 -20 -20 -20 -20 -20 -20 -20 -20 -20 -20
-20 -19 -19 -20 -15 1 21 25 16 30 14 23 27 25 22 -16 -8 -16 -19 -0 15 -15 -20 -20 -20 -20 -20 -20 -20 -20 -20 -20 -20 -20 -20 -20 -20 -20 -20 -20 -20 -20 -20
17 28 14 -8 -19 -10 24 42 29 28 36 29 24 28 6 16 26 33 33 21 -9 -20 -20 -20 -20 -20 -20 -20 -20 -20 -20 -20 -20 -20 -20 -20 -20 -20 -20 -20 -20 -20 -20

GFSGL_prec_radar_027.txt.gz
Reflectivity
-20 -20 -20 -20 -20 -20 -20 -20 -20 -20 -20 -20 -20 -20 -20 -20 -20 -20 -20 -20 -20 -20 -20 -20 -20 -20 -20 -20 -20 -20 -20 -20 -20 -20 -20 -20 -20 -20 -20 -20 -20 -20 -20
-20 -20 -20 -20 -20 -20 -20 -20 -20 -20 -20 -20 -20 -20 -20 -20 -20 -20 -20 -20 -20 -20 -20 -20 -20 -20 -20 -20 -20 -20 -20 -20 -20 -20 -20 -20 -20 -20 -20 -20 -20 -20 -20
-20 -20 -20 -20 -20 -20 -20 -20 -20 -20 -20 -20 -20 -20 -20 -20 -20 -20 -20 -20 -20 -20 -20 -20 -20 -20 -20 -20 -20 -20 -20 -20 -20 -20 -20 -20 -20 -20 -20 -20 -20 -20 -20
-20 -20 -20 -20 -20 -20 -20 -20 -20 -20 -20 -20 -20 -20 -20 -20 -20 -20 -20 -20 -20 -20 -20 -20 -20 -20 -20 -20 -20 -20 -20 -20 -20 -20 -20 -20 -20 -20 -20 -20 -20 -20 -20
-20 -20 -20 -20 -20 -20 -20 -20 -20 -20 -20 -20 -20 -20 -20 -20 -20 -20 -20 -20 -20 -20 -20 -20 -20 -20 -20 -20 -20 -20 -20 -20 -20 -20 -20 -20 -20 -20 -20 6 -20 -20 -20
-20 -20 -20 -20 -20 -20 -20 -20 -20 -20 -20 -20 -20 -20 -20 -20 -20 -20 -20 -20 -20 -20 -20 -20 -20 -20 -20 -20 7 -20 -20 -20 -20 -20 -20 -20 -20 -20 -9 -20 -20 -20 -20
-20 -20 -20 -20 -20 -20 -20 -20 -20 -20 -20 -20 -20 -20 -20 -20 -20 -20 -20 -20 -20 -20 -20 -20 -20 -20 -20 -20 -20 -20 -20 -20 -20 -20 -20 -20 -20 -20 -20 -20 -12 -20 5
-20 -20 -20 -20 2 -20 -20 -20 -20 -20 -20 -20 -20 -20 -20 -20 -20 -20 -20 -20 -20 -20 -20 -20 -20 -20 -20 -20 -7 -20 -20 -20 -20 -20 -20 -11 -20 -20 -20 -11 8 -20 -20
-20 -20 -20 -20 -20 -20 -20 -20 -20 -20 -20 -20 -20 -20 -20 -20 -20 -20 -20 -20 -20 -20 -20 -20 -20 -20 -20 -1 -16 -20 -20 -20 -5 -20 -20 -20 -20 -20 -20 -20 -20 -20 -20
-20 -20 -20 -20 -20 -20 -20 -20 -20 -20 -20 -20 -20 -20 -20 -20 -13 -20 -20 -20 -20 -20 -20 -19 -20 -20 -19 5 -9 -20 -20 -20 -20 -20 -20 -16 -16 0 -20 -20 -20 -20 -20
-20 -20 -20 -20 -20 -20 -20 -10 1 -6 -11 -17 -18 -20 -20 -20 -13 -20 -20 -20 -20 -20 -20 -20 -20 -20 -15 1 -18 -20 -20 -13 -20 -20 -20 -20 -20 -20 -20 -20 -20 -20 -20
-20 -20 -20 -20 -20 -20 -20 -13 22 21 11 13 22 -13 -6 8 -7 -9 -20 -20 -20 -20 -5 -18 -20 -13 -18 -19 1 -14 -20 -20 -20 -20 -20 -20 -20 -20 -20 -20 -20 -20 -20
-20 -20 -20 -20 -20 -20 -20 -10 -9 -6 -1 33 10 8 10 15 12 11 10 11 -19 -20 -12 -2 11 2 5 9 -19 -19 -5 -20 -20 -20 -20 -20 -20 -20 -20 -20 -20 -20 -20
-20 -20 -20 -20 -20 -20 -20 3 -12 -19 -13 15 19 -1 -15 -17 -20 -20 10 4 10 17 9 13 34 35 22 -3 -6 -4 -20 -20 -20 -20 -20 -20 -20 -20 -20 -20 -20 -20 -20
-20 -20 -20 -20 -20 -20 -20 -20 -14 -20 -20 -9 -13 -17 -11 -1 -2 19 23 19 23 35 38 26 32 25 17 -3 -12 -20 -20 -20 -20 -20 -20 -20 -20 -20 -20 -20 -20 -20 -20
-20 -20 -20 -20 -20 -20 -15 -20 7 9 10 11 9 1 -20 -6 10 -4 3 24 30 45 45 42 33 30 11 2 -11 -20 -20 -20 -20 -20 -20 -20 -20 -20 -20 -20 -20 -20 -20
-20 -20 -20 2 -20 -11 -20 -20 -17 -8 8 14 10 -19 -15 6 -10 6 32 32 22 34 33 41 33 23 15 3 -8 7 -20 -20 -20 -20 -20 -20 -20 -20 -20 -20 -20 -20 -20
-20 2 -20 0 6 -20 -20 -3 -13 1 5 17 19 -4 7 19 33 23 31 27 20 35 36 21 26 17 11 1 4 0 -18 -20 -20 -20 -20 -20 -20 -20 -20 -20 -20 -20 -20
-20 -20 -10 -20 -20 12 23 20 20 16 0 -4 24 27 20 5 1 26 6 1 13 35 34 26 21 5 -20 -19 -20 -20 -20 -20 -20 -20 -20 -20 -20 -20 -20 -20 -20 -20 -20
-19 4 -20 -20 -20 -20 12 18 14 35 40 19 3 -18 -18 9 3 -11 -20 4 30 34 35 23 15 5 -19 -20 -20 -20 -20 -20 -20 -20 -20 -20 -20 -20 -20 -20 -20 -20 -20
-20 -20 7 -5 -20 -19 -20 -18 5 32 43 44 49 41 34 14 6 -20 -16 14 24 21 29 -11 -20 -20 -20 -20 -20 -20 -20 -20 -20 -20 -20 -20 -20 -20 -20 -20 -20 -20 -20
-4 5 2 -20 -7 -5 -2 -19 3 29 41 45 32 26 31 19 -14 -6 23 26 13 -11 -11 -17 -6 -18 -20 -20 -20 -20 -20 -20 -20 -20 -20 -20 -20 -20 -20 -20 -20 -20 -20
-20 -6 -13 -8 -18 -3 -20 -20 -18 1 13 8 3 -8 13 29 29 27 13 6 -3 -10 -20 -20 -20 -20 -20 -20 -20 -20 -20 -20 -20 -20 -20 -20 -20 -20 -20 -20 -20 -20 -20
-20 -20 -20 -19 -9 0 -3 -18 -13 -5 6 27 27 27 28 22 -13 -20 -12 11 -0 -20 -20 -20 -20 -20 -20 -20 -20 -20 -20 -20 -20 -20 -20 -20 -20 -20 -20 -20 -20 -20 -20
-20 -20 -20 -20 -20 -20 -20 11 4 -19 -19 17 25 24 13 6 7 -20 -20 -20 -20 -20 -20 -20 -20 -20 -20 -20 -20 -20 -20 -20 -20 -20 -20 -20 -20 -20 -20 -20 -20 -20 -20
-20 -20 -17 -10 -15 -20 -20 -20 -20 -9 25 12 9 7 22 14 -18 -20 -20 -20 -20 -20 -20 -20 -20 -20 -20 -20 -20 -20 -20 -20 -20 -20 -20 -20 -20 -20 -20 -20 -20 -20 -20

GFSGL_prec_radar_030.txt.gz
Reflectivity
-20 -20 -20 -20 -20 -20 -20 -20 -20 -20 -20 -20 -20 -20 -20 -20 -20 -20 -20 -20 -20 -20 -20 -20 -20 -20 -20 -20 -20 -20 -20 -20 -20 -20 -20 -20 -20 -20 -20 -20 -20 -20 -20
-20 -20 -20 -20 -20 -20 -20 -20 -20 -20 -20 -20 -20 -20 -20 -20 -20 -20 -20 -20 -20 -20 -20 -20 -20 -20 -20 -20 -20 -20 -20 -20 -20 -20 -20 -20 -20 -20 -20 -20 -20 -20 -20
-20 -20 -20 -20 -20 -20 -20 -20 -20 -20 -20 -20 -20 -20 -20 -20 -20 -20 -20 -20 -20 -20 -20 -20 -20 -20 -20 -20 -20 -20 -20 -20 -20 -20 -20 -20 -20 -20 -20 -20 -20 -20 -20
-20 -20 -20 -20 -20 -20 -20 -20 -20 -20 -20 -20 -20 -20 -20 -20 -20 -20 -20 -20 -20 -20 -20 -20 -20 -20 -20 -20 -20 -20 -20 -20 -20 -20 -20 -20 -20 -20 -20 -20 -20 -20 -20
-20 -20 -20 -20 -20 -20 -20 -20 -20 -20 -20 -20 -20 -20 -20 -20 -20 -20 -20 -20 -20 -20 -20 -20 -20 -20 -20 -20 -20 -20 -20 -20 -20 -20 -20 -20 -20 -20 -20 -20 -20 -20 -20
-20 -20 -20 -20 -20 -20 -20 -20 -20 -20 -20 -20 -20 -20 -20 -20 -20 -20 -20 -20 -20 -20 -20 -20 -20 -20 -20 -20 -20 -20 -20 -20 -20 -20 -20 -20 -20 -20 -20 -20 -20 -20 -20
-20 -20 -20 -20 -20 -20 -20 -20 -20 -20 -20 -20 -20 -20 -20 -20 -20 -20 -20 -20 -20 -20 -20 -20 -20 -20 -20 -20 -20 -20 -20 -5 -20 -20 -20 -20 -20 22 6 -20 -11 -20 3
-20 -20 -20 -20 -20 -20 -20 -20 -20 -20 -20 -20 -20 -20 -20 -20 -20 -20 -20 -20 -20 -20 -20 -20 -20 -20 -20 -20 -20 -20 -20 -20 -20 -20 -20 -20 12 -18 -20 -20 1 0 -20
-20 -20 -20 -20 -20 -20 -20 -20 -20 -20 -20 -20 -20 -20 -20 -20 -20 -20 -20 -20 -20 -20 -20 -20 -20 -20 -20 -20 -20 -20 -20 -20 -20 -20 -0 -7 -17 -20 -20 -20 1 12 10
-20 -20 -20 -20 -20 -20 -20 -20 -20 -20 -20 -20 -20 -20 -20 -20 -20 -20 -20 -20 -20 -20 -20 -20 -20 -20 -20 -20 -20 -20 -9 -10 -1 -20 -20 5 -13 -20 -20 -20 -12 -20 -20
-20 -20 -20 -20 -20 -20 -20 -20 -20 -20 -20 -20 -20 -15 4 1 -20 -20 -20 -20 -20 -20 -20 -20 -20 -20 -20 -20 -20 -20 3 -0 10 -1 -20 -20 -20 -20 -20 -20 -4 -20 -20
-20 -20 -20 -20 -20 -20 -20 -20 -20 -20 -20 -20 -20 -19 3 -20 -14 -10 -20 -20 -20 -20 -20 -20 -20 4 -2 -19 -13 -19 25 20 9 7 18 1 2 -8 -20 -20 -20 -20 -20
-20 -20 -20 -20 -20 -20 -20 -20 -18 -0 -20 -20 -20 -20 -20 -20 -20 -20 -20 -20 -20 -20 -20 -20 -20 -6 5 -2 -7 6 9 11 3 -15 3 2 -10 -20 -20 -20 -20 -20 -20
-20 -20 -20 -20 -20 -20 -20 -20 -20 -20 -20 -20 -20 -20 -20 -20 -20 -20 -20 -17 -20 -5 -20 -16 11 23 24 23 29 21 30 17 27 -12 -16 -20 -20 -20 -20 -20 -20 -20 -20
-20 -20 -20 -20 -20 -20 -20 -20 -20 -20 -20 -20 -20 -20 -20 -20 -18 -20 -12 -20 -20 -7 13 14 33 33 24 33 30 33 28 24 20 4 -20 -20 -20 -20 -20 -20 -20 -20 -20
-20 -20 -20 -20 -20 -20 -20 -20 9 -2 -5 8 2 3 -20 -20 3 11 15 12 4 6 14 36 25 44 23 31 36 40 34 22 -1 -7 -20 -7 -0 -20 -20 -20 -20 -20 -20
-20 -20 -20 -5 -20 -20 -20 -20 -20 -3 -20 -3 11 12 8 7 10 12 10 4 -1 16 -2 -10 -13 24 27 26 22 39 35 7 -13 -16 -19 -7 -20 -20 -20 -20 -20 -20 -20
-20 11 -19 -20 -20 -20 -20 -20 -8 9 9 -16 -11 8 9 9 10 10 -4 8 12 4 17 0 14 27 19 -8 1 19 28 -10 -20 -12 -20 -20 -20 -20 -20 -20 -20 -20 -20
-20 -20 -20 -20 -20 -20 -20 -20 -20 -18 -19 2 2 10 23 23 28 20 10 -10 -10 -1 30 13 24 5 5 -20 -4 12 6 -20 -20 -20 -20 -20 -20 -20 -20 -20 -20 -20 -20
-19 -9 0 -20 -20 -20 -20 -20 -20 -20 -14 -18 -17 -16 -6 25 36 18 27 10 26 26 28 18 10 7 -20 -20 -2 7 -20 -20 -20 -20 -20 -20 -20 -20 -20 -20 -20 -20 -20
-20 -20 1 -20 -20 -19 -20 -20 -20 -19 -19 -4 -20 -13 14 3 37 42 50 37 31 26 27 15 11 -3 -13 24 -6 -20 -20 -20 -20 -20 -20 -20 -20 -20 -20 -20 -20 -20 -20
-20 -20 -20 -20 -20 -20 -1 -1 -14 -13 1 -1 -20 -4 -5 18 38 45 49 41 36 33 23 20 6 -4 15 5 -16 -20 -20 -16 -10 -16 -20 -20 -20 -20 -20 -20 -20 -20 -20
-20 -20 -20 -20 -18 -20 -19 -20 1 3 -4 1 -11 -17 -2 6 14 20 28 29 20 21 24 15 25 -8 -5 10 1 -4 -10 -20 -20 -20 -20 -20 -20 -20 -20 -20 -20 -20 -20
-20 25 -20 -18 -17 -6 -3 -10 -20 -3 2 -20 9 11 21 5 21 33 38 33 31 32 15 -5 0 -17 -19 -10 2 -11 -20 -20 -20 -20 -20 -20 -20 -20 -20 -20 -20 -20 -20
-20 -20 -12 4 10 2 -4 -12 -8 -4 -3 -10 -19 -18 -19 -20 -20 -5 -19 -20 -20 -20 -19 -2 -1 -11 -20 -18 -20 -20 -20 -20 -20 -20 -20 -20 -20 -20 -20 -20 -20 -20 -20
-20 -20 -20 -20 -19 -14 -2 2 -2 -1 6 8 -2 3 -6 -17 -20 -20 -20 -11 -2 4 6 -14 -20 -20 -20 -20 -20 -20 -20 -20 -20 -20 -20 -20 -20 -20 -20 -20 -20 -20 -20

GFSGL_prec_radar_033.txt.gz
Reflectivity
-20 -20 -20 -20 -20 -20 -20 -20 -20 -20 -20 -20 -20 -20 -20 -20 -20 -20 -20 -20 -20 -20 -20 -20 -20 -20 -20 -20 -20 -20 -20 -20 -20 -20 -20 -20 -20 -20 -20 -20 -20 -20 -20
-20 -20 -20 -20 -20 -20 -20 -20 -20 -20 -20 -20 -20 -20 -20 -20 -20 -20 -20 -20 -20 -20 -20 -20 -20 -20 -20 -20 -20 -20 -20 -20 -20 -20 -20 -20 -20 -20 -20 -20 -20 -20 -20
-20 -20 -20 -20 -20 -20 -20 -20 -20 -20 -20 -20 -20 -20 -20 -20 -20 -20 -20 -20 -20 -20 -20 -20 -20 -20 -20 -20 -20 -20 -20 -20 -20 -20 -20 -20 -20 -20 -20 -20 6 -20 -20
-20 -20 -20 -20 -20 -20 -20 -20 -20 -20 -20 -20 -20 -20 -20 -20 -20 -20 -20 -20 -20 -20 -20 -20 -20 -20 -20 -20 -20 -20 -20 -20 -20 -20 -20 -20 -20 -20 -20 -20 -20 -20 -20
-20 -20 -20 -20 -20 -20 -20 -20 -20 -20 -20 -20 -20 -20 -20 -20 -20 -20 -20 -20 -20 -20 -20 -20 -20 -20 -20 -20 -20 -20 -20 -20 -20 -20 -20 -20 -20 -20 -20 -20 -20 -20 -20
-20 -20 -20 -20 -20 -20 -20 -20 -20 -20 -20 -20 -20 -20 -20 -20 -20 -20 -20 -20 -20 -20 -20 -20 -20 -20 -20 -20 -20 -20 -20 -20 -20 -20 -20 -20 -20 -20 -20 -20 -20 -20 -2
-20 -20 -20 -20 -20 -20 -20 -20 -20 -20 -20 -20 -20 -20 -20 -20 -20 -20 -20 -20 -20 -20 -20 -20 -20 -20 -20 -20 -20 -20 -20 -20 -20 -20 -20 -20 -11 -20 -20 -20 -10 19 -20
-20 -20 -20 -20 -20 -20 -20 -20 -20 -20 -20 -20 -20 -20 -20 -20 -20 -20 -20 -20 -20 -20 -20 -20 -20 -20 -20 -20 -20 -20 -20 -20 -20 -20 -20 -17 -20 -20 -20 -20 -20 -20 -13
-20 -20 -20 -20 -20 -20 -20 -20 -20 -20 -20 -20 -20 -20 -20 -20 -20 -20 -20 -20 -20 -20 -20 -20 -20 -20 -20 -20 -20 -20 -20 -20 -20 -20 -18 12 -20 -20 -20 -20 -20 -14 -20
-20 -20 -20 -20 -20 -20 -20 -20 -20 -20 -20 -20 -20 -20 -20 -20 -20 -20 -20 -20 -20 -20 -20 -20 -20 -20 -20 -20 -20 -20 -20 -20 -20 -20 -12 2 29 -11 -20 -20 -20 -20 -17
-20 -20 -20 -20 -20 -20 -20 -20 -20 -20 -20 -20 -20 -20 -20 -20 -20 -20 -20 -20 -20 -20 -20 -20 -20 -20 -10 -20 -20 -20 -20 -20 -20 -9 6 33 32 14 -20 -20 -20 -20 -17
-20 -20 -20 -20 -20 -20 -20 -20 -20 -9 -1 -20 -20 -20 -20 -20 -20 -20 -20 -20 -20 -20 -19 10 -20 -20 -20 -20 -14 10 -5 -18 11 0 13 16 8 -20 -20 -20 -20 -20 -20
-20 -20 -20 -20 -20 -20 -20 -20 -18 4 -16 -20 -20 -20 -20 -20 -20 -20 -20 -20 -20 -20 -20 -20 -20 -20 -20 -20 -20 -14 3 -9 18 17 5 12 15 1 -20 -9 -20 -20 -19
-20 -20 -20 -20 -20 -20 -20 -20 -20 -20 -20 -20 -20 -20 -20 -20 -20 -20 -20 -20 -20 -4 2 -20 -20 -20 -20 -20 -20 -18 5 25 30 24 10 30 35 18 7 -20 -17 -20 -20
-20 -20 -20 -20 -20 -20 -20 -20 -20 -20 -20 -20 -20 -20 -20 -20 -20 -20 -20 -20 -20 -20 -10 -20 -13 -20 17 -9 -13 4 18 26 34 35 28 28 43 18 18 -0 -17 -5 -8
-20 -20 -20 -20 -20 -20 -20 -20 -20 -20 -19 -5 6 -4 -20 -8 -19 -12 8 7 -20 -2 1 -11 3 -10 -6 21 28 23 18 14 35 29 22 31 42 30 1 -3 -20 -4 -20
-20 -20 -20 -20 -20 -20 -20 -20 -20 6 6 12 10 7 3 8 6 4 11 11 10 11 14 -20 -20 -20 -7 -6 35 31 30 27 39 31 15 6 23 30 1 -20 -20 -20 -20
-20 4 -19 -20 -20 -20 -20 -20 -20 -20 -20 -20 -2 8 -11 -1 1 8 10 14 2 11 18 3 -17 -13 27 2 35 33 26 16 29 11 1 25 31 1 -7 -20 -20 -20 -20
-20 -20 -20 -20 -20 -20 -20 -20 -20 -20 -20 -20 -20 -20 -15 -20 -20 -15 13 3 8 16 15 11 19 19 18 24 17 25 13 28 27 -3 2 15 -0 10 -16 -20 -20 -20 -20
-19 -15 -19 -20 -20 -20 -20 -20 -20 -20 -20 -20 -20 -20 -20 -20 -20 -20 -12 -19 14 30 15 24 31 15 23 29 12 17 17 4 -9 16 12 23 -3 -20 -20 -20 -20 -20 -20
-20 -20 -2 -20 -20 -20 -20 -20 -20 -20 -20 -20 -20 -5 13 -20 -20 -19 -20 8 14 16 27 47 47 43 25 27 19 15 5 -7 2 -20 -20 -20 -20 -20 -20 -20 -20 -20 -20
-20 -20 -20 -20 -20 -20 -20 -20 -20 -20 -20 -20 -18 -10 5 -10 -4 19 -7 -20 4 1 25 37 49 48 45 34 27 19 15 9 4 -20 -20 -18 -17 -20 -10 -15 -20 -20 -20
-20 -20 -20 -20 -20 -20 -20 -20 -11 -8 -11 -8 -7 2 -2 -7 -3 -9 5 -20 -12 -20 25 15 29 32 32 27 18 20 8 -18 0 -20 -20 -20 -20 -20 -20 -20 -20 -20 -20
-20 -20 -20 -2 -20 -20 -20 -17 -7 -3 -5 2 -9 -12 5 1 -20 -19 -20 -5 4 20 24 28 29 31 24 28 24 10 3 11 14 8 -20 -20 -20 -20 -20 -20 -20 -20 -20
-18 -2 -19 -20 4 -1 4 1 7 -2 -3 -7 -20 -20 -4 19 -16 -20 -18 6 28 15 28 37 38 30 13 -15 0 -15 -12 -14 -20 -20 -20 -20 -20 -20 -20 -20 -20 -20 -20
-5 0 -6 -20 -20 -20 -20 -20 -20 -20 -20 -20 -20 -20 -5 -0 -7 -16 -20 -20 -20 -17 -20 -20 -20 -19 3 -8 -8 -19 -7 -20 -20 -20 -20 -20 -20 -20 -20 -20 -20 -20 -20

GFSGL_prec_radar_036.txt.gz
Reflectivity
-20 -20 -20 -20 -20 -20 -20 -20 -20 -20 -20 -20 10 -20 -20 -20 -20 -13 -20 -20 -20 -20 -20 -20 -20 -20 -20 -20 -20 -20 -20 -20 -20 -20 -20 -20 -20 -20 -20 -20 -20 -20 -20
-20 -20 -20 -20 -20 -20 -20 -20 -20 -20 -20 -20 -20 -20 -20 -20 -20 -20 -20 -20 -20 -20 -20 -20 -20 -20 -20 -20 -20 -20 -20 -20 -20 -20 -20 -20 -20 -20 -20 -20 -20 -20 -20
-20 -20 -20 -20 -20 -20 -20 -20 -20 -20 -20 -20 -20 -20 -20 -20 -20 -20 -20 -20 -20 -20 -20 -20 -20 -20 -20 -20 -20 -20 -20 -20 -20 -20 -20 -20 -20 -20 -20 -20 -20 -20 -20
-20 -20 -20 -20 -20 -20 -20 -20 -20 -20 -20 -20 -20 -20 -20 -20 -20 -20 -20 -20 -20 -20 -20 -20 -20 -20 -20 -20 -20 -20 -20 -20 -20 -20 -20 -20 -20 -20 -20 -20 -20 -20 -20
-20 -20 -20 -20 -20 -20 -20 -20 -20 -20 -20 -20 -20 -20 -20 -20 -20 -20 -20 -20 -20 -20 -20 -20 -20 -20 -20 -20 -20 -20 -20 -20 -20 -20 -20 -20 -20 -20 -20 -20 -20 -20 -20
-20 -20 -20 -20 -20 -20 -20 -20 -20 -20 -20 -20 -20 -20 -20 -20 -20 -20 -20 -20 -20 -20 -20 -20 -20 -20 -20 -20 -20 -20 -20 -20 -20 -20 -20 -20 -20 -20 -20 -20 -20 -20 -20
-20 -20 -20 -20 -20 -20 -20 -20 -20 -20 -20 -20 -20 -20 -20 -20 -20 -20 -20 -20 -20 -20 -20 -20 -20 -20 -20 -20 -20 -20 -20 -20 -20 -20 -20 -20 -20 -20 -20 -20 -20 -20 -20
-20 -20 -20 -20 -20 -20 -20 -20 -20 -20 -20 -20 -20 -20 -20 -20 -20 -20 -20 -20 -20 -20 -20 -20 -20 -20 -20 -20 -20 -20 -20 -20 -20 -20 -20 -20 -20 -20 -20 -20 -20 -20 -20
-20 -20 -20 -20 -20 -20 -20 -20 -20 -20 -20 -20 -20 -20 -20 -20 -20 -20 -20 -20 -20 -20 -20 -20 -20 -20 -20 -20 -20 -20 -20 -20 -20 -20 -20 -10 8 -20 -9 3 -14 -20 -17
-20 -20 -20 -20 -20 -20 -20 -20 -20 -20 -20 -20 -20 -20 -20 -20 -20 -20 -20 -20 -20 -20 -20 -20 -20 -20 -20 -20 -20 -20 -20 -20 -20 -20 -20 -20 19 15 23 4 11 10 2
-20 -20 -20 -20 -20 -20 -20 -20 -20 -20 -18 -15 -20 -20 -20 -20 -20 -20 -20 -20 -20 -20 -20 -20 -20 -20 -20 -20 -20 -20 -20 -20 -20 -17 -20 -20 -20 -6 6 16 10 23 16
-20 -20 -20 -20 -20 -20 -20 -20 -20 -10 3 -13 -1 -20 -20 -20 -20 -20 -20 -20 -20 -20 -20 -20 -20 -20 -20 -20 -20 -20 -20 -20 -20 -8 -20 -16 -0 -12 -4 28 32 25 32
-20 -20 -20 -20 -20 -20 -20 -20 -1 6 -19 -3 -18 -20 -20 -20 -20 -20 -20 -20 -20 7 -20 -20 -20 -20 -20 -20 -20 -20 -20 6 9 5 -20 -8 -5 24 28 12 31 25 30
-20 -20 -20 -20 -20 -20 -20 -20 -20 -19 -1 9 8 -5 -20 -20 -20 -20 -20 -20 -20 -20 -20 -2 10 -14 -20 -6 -3 7 5 11 6 -1 -17 -19 32 24 20 28 10 18 25
-20 -20 -20 -20 -20 -20 -20 -20 -4 -20 -20 -20 -20 -20 -20 -20 -13 9 7 -15 -20 -20 -14 -7 -10 -6 -20 -20 -20 8 12 6 13 17 14 26 29 30 35 36 17 25 13
-20 -20 -20 -20 -20 -20 -17 -20 -20 -20 -19 5 10 3 -20 6 5 12 1 -20 -20 -20 -20 -9 -17 -20 -20 -20 -18 -7 13 13 9 23 28 32 34 38 41 22 18 30 32
-20 -20 -20 -20 -20 -20 -20 -20 -20 -14 6 3 -5 -2 8 9 11 12 12 15 -17 -12 -19 -20 0 -4 1 10 10 -19 8 -1 17 35 1 21 29 46 25 15 10 17 33
-20 -20 -20 -20 -20 -20 -20 -20 -20 -20 -20 -20 7 -16 7 -7 -1 -1 -0 7 -20 -5 -20 3 -14 -7 -4 12 -1 12 15 34 27 33 21 25 47 21 24 22 19 27 8
-20 -20 -20 -20 -20 -20 -20 -20 -20 -20 -20 -20 -20 -20 -19 -20 -18 10 5 -20 -13 -3 7 12 17 23 30 17 18 20 14 1 23 28 30 30 29 11 26 24 25 29 -1
-20 -20 -20 -20 -20 -20 -20 -20 -20 -20 -20 -20 -20 -20 -20 -16 -20 -20 -20 -20 -20 -20 -20 -15 -2 13 16 22 20 24 21 42 29 32 36 23 16 15 23 20 -6 7 -1
-20 -20 -20 -20 -20 -20 -20 -20 -20 -20 -20 -20 -20 -9 8 -20 -20 7 2 -20 -20 -7 7 -12 4 2 8 -11 13 37 47 49 44 44 39 22 17 19 8 7 -20 -20 -20
-20 -20 -20 -20 -20 -20 -20 -20 -20 -20 -20 -20 -20 -11 13 -14 -3 -6 10 6 -13 6 10 -14 -20 10 20 21 29 45 37 45 45 29 22 25 27 13 5 -12 -20 -20 -20
-20 -20 -20 -20 -20 -20 -20 -20 -20 -17 -17 -8 7 7 -16 -20 -20 -20 -20 -17 -11 -20 7 -18 21 16 12 -8 -20 -20 -6 19 29 31 32 19 -2 1 12 -2 -20 -20 -20
-20 -20 -20 -20 -20 -20 -20 -7 -20 1 -6 -20 -20 -20 -20 -20 -19 -19 -20 -19 -9 -20 -20 -20 -18 -20 -20 -20 -20 13 -1 14 26 26 -5 -3 -6 12 -2 -18 -20 -20 -20
-20 -14 15 -20 -20 -20 -20 -20 -14 -6 3 -7 -20 -20 -20 -20 -20 -20 -20 -20 -18 -20 -20 -20 -13 -20 -16 11 21 13 20 13 25 17 -2 -8 -19 3 -3 -20 -20 -20 -20
-20 -20 -20 -20 -19 -20 -20 -20 -20 -20 -20 -20 -18 2 -20 -20 -20 -20 -20 -20 -20 -1 20 20 -20 -20 -20 -16 6 -2 -3 13 -9 -20 -20 -11 -19 -20 -20 -20 -20 -20 -20

GFSGL_prec_radar_039.txt.gz
Reflectivity
-20 -20 -20 -20 -20 -20 -20 -20 -20 -20 -20 -20 -20 -20 -20 -20 -20 -20 -20 -20 -20 -20 -20 -20 -20 -20 -20 -20 -20 -20 -20 -20 -20 -20 -20 -20 -20 -20 -20 -20 -20 -20 -20
-20 -20 -20 -20 -20 -20 -20 -20 -20 -20 -20 -20 -20 -20 -20 -20 -20 -10 -20 -20 -20 -20 -20 -20 -20 -20 -20 -20 -20 -20 -20 -20 -20 -20 -20 -20 -20 -20 -20 -20 -20 -20 -20
-20 -20 -20 -20 -20 -20 -20 -20 -20 -20 -20 -20 -20 -20 -20 -20 -20 -20 -20 -20 -20 -20 -20 -20 -20 -20 -20 -20 -20 -20 -20 -20 -20 -20 -20 -20 -20 -20 -20 -20 -20 -20 -20
-20 -20 -20 -20 -20 -20 -20 -20 -20 -20 -20 -20 -20 -20 -20 -20 -20 -20 -20 -20 -20 -20 -20 -20 -20 -20 -20 -20 -20 -20 -20 -20 -20 -20 -20 -20 -20 -20 -20 -20 -20 -20 -20
-20 -20 -20 -20 -20 -20 -20 -20 -20 -20 -20 -20 -20 -20 -20 -20 -20 -20 -20 -20 -20 -20 -20 -20 -20 -20 -20 -20 -20 -20 -20 -20 -20 -20 -20 -20 -20 -20 -20 -20 -20 -20 -20
-20 -20 -20 -20 -20 -20 -20 -20 -20 -20 -20 -20 -20 -20 -20 -20 -20 -20 -20 -20 -20 -20 -20 -20 -20 -20 -20 -20 -20 -20 -20 -20 -20 -20 -20 -20 -20 -20 -20 -20 -20 -20 -20
-20 -20 -20 -20 -20 -20 -20 -20 -20 -20 -20 -20 -20 -20 -20 -20 -20 -20 -20 -20 -20 -20 -20 -20 -20 -20 -20 -20 -20 -20 -20 -20 -20 -20 -20 -20 -20 -20 -20 -19 -20 -20 -20
-20 -20 -20 -20 -20 -20 -20 -20 -20 -20 -20 -20 -20 -20 -20 -20 -20 -20 -20 -20 -20 -20 -20 -20 -20 -20 -20 -20 -20 -20 -20 -20 -18 -20 -20 -20 -20 -20 -20 -20 -13 -20 -0
-20 -20 -20 -20 -20 -20 -20 -20 -20 -20 -20 -20 -20 -20 -20 -20 -20 -20 -20 -20 -20 -20 -20 -20 -20 -20 -20 -20 -20 -20 -20 -20 -15 -20 -20 -20 -20 -20 -20 -20 -20 -20 -20
-20 -20 -20 -20 -20 -20 -20 -20 -20 -20 -20 -20 -20 -20 -20 -20 -20 -20 -20 -20 -20 -20 -20 -20 -20 -20 -20 -20 -20 -20 -20 -20 -20 -20 -20 -20 -20 -12 -20 -20 -8 19 19
-20 -20 -20 -20 -20 -20 -20 -20 -20 -20 -20 -20 -20 -20 -20 -20 -20 -20 -20 -20 -20 -20 -20 -20 -20 -20 -20 -20 -20 -20 -20 -20 -20 -20 -20 -20 -20 -20 -20 -15 11 18 17
-20 -20 -20 -20 -20 -20 -20 -20 -20 -20 -20 -20 -20 -20 -20 -20 -15 -20 -20 -20 -10 4 -19 -20 -20 -20 -20 -20 -11 -20 -20 -16 -18 -20 -20 -20 -20 -20 -13 6 11 14 13
-20 -20 -20 -20 -20 -20 -20 -20 -20 -20 -20 -20 -20 -20 -20 -20 -20 -19 -20 -20 -12 13 -18 -20 -20 -2 14 13 13 5 1 15 10 2 -20 -20 -20 -20 0 15 18 13 20
-20 -20 -20 -20 -20 -20 -20 -20 -20 -20 -20 -18 10 8 5 0 -20 -20 -20 -20 -20 -20 -20 -20 -20 -20 -20 -11 -16 -16 2 9 13 13 9 15 -7 36 -1 33 32 33 11
-20 -20 -20 -20 -20 -20 -20 -20 -20 -20 -0 9 5 9 11 9 -3 1 -1 -17 -20 -20 -20 -3 -6 -12 -7 -20 -20 -18 -8 6 10 18 26 21 13 -4 35 35 42 41 34
-20 -20 -20 -20 -20 -20 -20 -20 -13 2 9 15 5 -4 -1 7 7 6 9 11 10 9 -13 -20 -20 -20 -20 -20 3 -0 3 15 16 27 20 24 30 28 33 32 29 40 39
-20 -20 -20 -20 -20 -20 -20 -20 -20 -4 -4 -7 -3 -19 -3 -1 4 2 22 7 11 8 -20 -20 -20 -20 -20 2 7 15 16 14 18 26 28 33 28 19 30 34 28 44 33
-20 -20 -20 -20 -20 -20 -20 -20 -20 -20 -20 -20 -3 -16 -4 7 7 7 10 8 -14 -8 -20 -16 -13 -16 -6 10 19 15 15 13 -13 7 -6 -5 19 21 28 29 31 45 26
14 -20 -20 -16 -20 -20 -20 -20 -20 -20 -20 -20 -20 -16 -15 -20 5 7 11 -20 -20 -20 -20 -20 -20 -20 -20 -20 -20 -5 21 24 21 16 22 29 23 24 41 32 40 42 32
-20 14 -2 -20 -20 -20 -20 16 -20 -20 -20 -20 -20 -20 -20 -20 -20 -20 -20 -20 -20 -20 -20 -20 -20 -20 -20 -20 -20 -20 -4 8 12 24 37 26 27 48 44 51 40 30 22
-20 -20 -20 -20 -20 -20 -20 -20 -20 -20 -20 -20 -20 -8 12 -20 -20 -20 -20 -20 -20 -20 -20 -20 -20 -20 -20 -20 -20 -20 -10 -14 5 8 29 44 43 49 49 39 33 26 20
-20 -20 -20 -20 -20 -20 -20 -20 -20 -20 -20 -20 -20 -13 12 -20 -20 -20 -20 -20 -20 -20 -20 -20 -20 -20 7 -10 -20 7 -20 -20 -9 12 32 45 41 24 36 38 32 29 15
-19 -20 -20 -20 -20 -20 -20 -20 -20 -20 -12 -20 -20 -20 -20 -20 -11 -20 -20 -20 6 -15 -20 -20 -20 -20 -20 -20 -20 -20 -20 -20 -20 -20 -20 -15 23 33 33 26 8 -10 9
7 14 11 3 -20 -20 -20 2 -6 6 -3 -4 -6 -20 -20 -20 -20 -20 -20 -20 -20 -17 8 -20 -20 -20 -20 -20 -3 -20 -20 -20 -20 -20 -20 -20 -20 -20 -19 -20 -20 -16 7
-20 -20 -15 -16 -20 -20 -17 -6 -2 -6 8 -2 -20 -20 -20 -20 -20 -20 -20 -20 -20 -20 -20 -20 -20 -20 -20 -20 -20 -20 -20 -20 -20 -20 -20 -20 -20 -20 -20 -20 -20 -20 -20
20 4 4 -20 -20 -20 -20 -20 -20 -20 -20 -20 -20 -20 -20 -20 -20 -20 -20 -20 -20 -20 -20 -20 -20 -20 -20 -20 -20 -20 -20 -20 -20 -20 -16 -20 -20 -20 -20 -20 -20 -20 -20

GFSGL_prec_radar_042.txt.gz
Reflectivity
-20 -20 -20 -20 -20 -20 -20 -20 -20 -20 -20 -20 -20 -20 -20 -20 -9 -20 -20 -20 -20 -20 -20 -20 -20 -20 -20 -20 -20 -20 -20 -20 -20 -20 -20 -20 -20 -20 -20 -20 -20 -20 -20
-20 -20 -20 -20 -20 -20 -20 -20 -20 -20 -20 -20 -20 -20 -20 -20 -20 -20 -20 -20 -20 -20 -20 -20 -20 -20 -20 -20 -20 -20 -20 -20 -20 -20 -20 -20 -20 -20 -20 -20 -20 -20 -20
-20 -20 -20 -20 -20 -20 -20 -20 -20 -20 -20 -20 -20 -20 -20 -20 -20 -20 -20 -20 -20 -20 -20 -20 -20 -20 -20 -20 -20 -20 -20 -20 -20 -20 -20 -20 -20 -20 -20 -20 -20 -20 -20
-20 -20 -20 -20 -20 -20 -20 -20 -20 -20 -20 -20 -20 -20 -20 -20 -20 -20 -20 -20 -20 -20 -20 -20 -20 -20 -20 -20 -20 -20 -20 -20 -20 -20 -20 -20 -20 -20 -20 -20 -20 -20 -20
-20 -20 -20 -20 -20 -20 -20 -20 -20 -20 -20 -20 -20 -20 -20 -20 -20 -20 -20 -20 -20 -20 -20 -20 -20 -20 -20 -20 -20 -20 -20 -20 -20 -20 -20 -20 -20 -20 -20 -20 -20 -20 -20
-20 -20 -20 -20 -20 -20 -20 -20 -20 -20 -20 -20 -20 -20 -20 -20 -20 -20 -20 -20 -20 -20 -20 -20 -20 -20 -20 -20 -20 -20 -20 -20 -20 -20 -20 -20 -20 -20 -20 -20 -20 -20 -20
-20 -20 -20 -20 -20 -20 -20 -20 -20 -20 -20 -20 -20 -20 -20 -20 -20 -20 -20 -20 -20 -20 -20 -20 -20 -20 -20 -20 -20 -20 -20 -20 -20 -20 -20 -20 -20 -20 -20 -20 -20 -20 -20
-20 -20 -20 -20 -20 -20 -20 -20 -20 -20 -20 -20 -20 -20 -20 -20 -20 -20 -20 -20 -20 -20 -20 -20 -20 -20 -20 -20 -20 -20 -20 -20 -20 -20 -20 -20 -20 -20 -20 -20 -20 -20 -20
-20 -20 -20 -20 -20 -20 -20 -20 -20 -20 -20 -20 -20 -20 -20 -20 -20 -20 -20 -20 -20 -20 -20 -20 -20 -20 -20 -20 -20 -20 -20 -20 -20 -20 -20 -20 -20 -20 -20 -20 -20 -20 -20
-20 -20 -20 -20 -20 -20 -20 -20 -20 -20 -20 -20 -20 -20 -20 -20 -20 -20 -20 -20 -20 -20 -20 -20 -20 -20 -20 -20 -20 -20 -20 -20 -20 -20 -20 -20 -20 -20 -20 -20 -20 -20 -20
-20 -20 -20 -20 -20 -20 -20 -20 -20 -20 -20 -20 -20 -20 -20 -20 -20 -20 -20 -20 -20 -20 -20 -20 -20 -20 -20 -20 -4 -7 -20 -20 -20 -20 -20 -20 -20 -20 -20 -20 -20 -20 -20
-20 -20 -20 -20 -16 1 -11 -20 -20 -20 -20 -20 -20 -20 -20 -20 -19 -12 -20 -20 -20 4 -20 -15 -7 2 0 9 6 -7 -6 -1 8 13 7 -3 3 1 13 -18 16 35 27
-20 -20 -20 -20 -20 -20 -20 -20 -20 -20 -20 -20 -20 -20 -20 -20 -19 3 -20 -20 -20 11 -17 -20 -20 -20 -20 -20 16 15 -6 -7 8 10 6 -4 -19 5 -13 7 6 3 32
-20 -20 -20 -20 -20 -20 -20 -20 -20 -20 -20 -20 -20 -20 -20 -20 -16 11 13 7 1 -15 -15 9 -20 0 1 12 6 7 5 17 12 13 12 18 11 -8 10 -1 4 33 33
-20 -20 -20 -20 -20 -20 -20 -19 -20 -20 -20 -20 -20 -20 -20 -7 6 4 8 -20 -20 5 3 -9 -6 -3 -20 -8 0 -3 8 14 10 20 20 19 17 15 22 15 13 16 31
-20 -20 -20 -20 -20 -20 -20 -20 -0 -3 -20 4 -2 -6 -17 1 4 -7 12 15 15 16 -11 -20 -20 -20 -20 -20 -20 -20 -10 -4 -15 1 8 14 12 -3 -2 18 21 25 25
-20 -20 -20 -20 -20 -20 -20 -20 -20 -20 -20 -20 -20 -13 -20 -6 -15 14 16 15 11 8 -20 -20 -20 -20 -1 6 10 3 14 16 19 18 6 19 19 3 31 10 20 26 21
-20 -20 -20 -20 -20 -20 -20 -20 -20 -20 -20 -20 -16 10 7 5 3 11 11 4 -15 -13 -20 -20 -20 -20 -20 -20 -20 -20 -20 -18 -18 -20 -16 1 15 22 14 21 39 29 31
-20 -20 -20 -20 -20 -20 -20 -20 -20 -20 13 7 -20 -10 -4 5 6 9 12 -20 -20 -20 -20 -20 -20 -20 -20 -20 -20 -20 -20 -20 -20 -20 -18 6 11 14 15 18 32 48 49
-20 -20 3 -7 -6 -19 -18 -20 -20 -2 -3 9 11 -7 -20 -12 -20 -20 -20 -20 -20 -20 -20 -20 -20 -20 -20 -20 -19 -12 -20 -20 -20 -20 -20 -20 17 21 23 28 36 38 44
-20 -20 -14 -11 -3 -1 -2 -20 -20 7 3 -13 -20 15 14 -20 -20 -20 -20 -20 -20 -20 -20 -20 -20 -20 -20 -20 -20 -20 -20 -20 -20 -20 -20 -20 11 17 7 -3 15 41 36
-20 -20 -20 -20 -20 -20 -20 -20 -14 -20 -20 -6 -12 -12 11 -20 -20 -20 -20 -20 -20 -20 -20 -20 -20 -20 -20 1 -14 -20 -20 -20 -20 -20 -20 -20 -20 -20 -20 -20 -20 7 21
-20 -20 -20 -20 -20 -20 -20 -20 -20 -20 -20 -20 -20 -20 -20 -20 -20 -20 -20 -20 -20 -20 -20 -20 -20 -20 -20 -19 -18 -3 -20 -20 -20 -20 -20 -20 -20 -20 -20 -20 4 28 31
-20 -20 -20 -20 -20 -20 -20 -20 -20 -8 -15 -20 -20 -20 -20 -20 -20 -20 -20 -20 -20 -20 -20 1 -20 -20 -20 -5 7 -11 -20 -20 -20 -20 -20 -20 -20 -20 -20 -20 -20 -20 -20
-20 -20 -20 -20 -18 -19 -20 -20 -20 -18 -18 -20 -20 -20 -20 -20 -20 -20 -20 -20 -20 -20 -20 -20 -20 -20 -20 -20 1 -20 -20 -20 -12 -20 -20 -20 -20 -20 -20 -20 -20 -20 -20
-2 -4 21 20 13 -17 -20 -20 -11 -18 -18 -20 -20 -20 -20 -20 -20 -20 -20 -20 -20 -20 -20 -20 -20 -20 -20 -20 -20 -20 -20 -20 -20 -20 -20 -20 -20 -20 -20 -20 -20 -20 -20

GFSGL_prec_radar_045.txt.gz
Reflectivity
-20 -20 -20 -20 -20 -20 -20 -20 -20 -20 -20 -20 -20 -20 -20 -20 -20 -20 -20 -20 -20 -20 -20 -20 -20 -20 -20 -20 -20 -20 -20 -20 -20 -20 -20 -20 -20 -20 -20 -20 -20 -20 -20
-20 -20 -20 -20 -20 -20 -20 -20 -20 -20 -20 -20 -20 -20 -20 -20 -20 -20 -20 -20 -20 -20 -20 -20 -20 -20 -20 -20 -20 -20 -20 -20 -20 -20 -20 -20 -20 -20 -20 -20 -20 -20 -20
-20 -20 -20 -20 -20 -20 -20 -20 -20 -20 -20 -20 -20 -20 -20 -20 -20 -20 -20 -20 -20 -20 -20 -20 -20 -20 -20 -20 -20 -20 -20 -20 -20 -20 -20 -20 -20 -20 -20 -20 -20 -20 -20
-20 -20 -20 -20 -20 -20 -20 -20 -20 -20 -20 -20 -20 -20 -20 -20 -20 -20 -20 -20 -20 -20 -20 -20 -20 -20 -20 -20 -20 -20 -20 -20 -20 -20 -20 -20 -20 -20 -20 -20 -20 -20 -20
-20 -20 -20 -20 -20 -20 -20 -20 -20 -20 -20 -20 -20 -20 -20 -20 -20 -20 -20 -20 -20 -20 -20 -20 -20 -20 -20 -20 -20 -20 -20 -20 -20 -20 -20 -20 -20 -20 -20 -20 -20 -20 -20
-20 -20 -20 -20 -20 -20 -20 -20 -20 -20 -20 -20 -20 -20 -20 -20 -20 -20 -20 -20 -20 -20 -20 -20 -20 -20 -20 -20 -20 -20 -20 -20 -20 -20 -20 -20 -20 -20 -20 -20 -20 -20 -20
-20 -20 -20 -20 -20 -20 -20 -20 -20 -20 -20 -20 -20 -20 -20 -20 -20 -20 -20 -20 -20 -20 -20 -20 -20 -20 -20 -20 -20 -20 -20 -20 -20 -20 -20 -20 -20 -20 -20 -20 -20 -20 -20
-20 -20 -20 -20 -20 -20 -20 -20 -20 -20 -20 -20 -20 -20 -20 -20 -20 -20 -20 -20 -20 -20 -20 -20 -20 -20 -20 -20 -20 -20 -20 -20 -20 -20 -20 -20 -20 -20 -20 -20 -20 -20 -20
-20 -20 -20 -20 -20 -20 -20 -20 -20 -20 -20 -20 -20 -20 -20 -20 -20 -20 -20 -20 -20 -20 -20 -20 -20 -20 -20 -20 -20 -20 -20 -20 -20 -20 -20 -20 -20 -20 -20 -20 -20 -20 -20
-20 -20 -20 -20 -20 -20 -20 -20 -20 -20 -20 -20 -20 -20 -20 -20 -20 -20 -20 -20 -20 -20 -20 -20 -20 -20 -20 -20 -20 -20 -20 -20 -20 -20 -20 -20 -20 -20 -20 -20 -13 6 4
-20 -20 -20 -20 -20 -20 -20 -20 -20 -20 -20 -20 -20 -20 -20 -20 -20 -20 -20 -20 -20 -20 -20 -20 -20 -20 -20 -20 -15 -11 -10 -5 18 5 -20 -14 -14 -20 -13 -20 4 34 3
-20 -20 -20 -20 -20 -20 -20 -20 -20 -20 -20 -20 -20 -20 -20 -20 -20 -13 -20 -20 -20 -20 -20 -20 -20 -20 -12 16 13 15 12 13 6 -2 13 -13 -9 -16 -1 -20 -20 14 7
-20 -20 -20 -20 -20 -20 -20 -5 -20 -20 -20 -20 -20 -20 -20 -20 -19 -13 -20 -20 -20 -14 -6 -20 -20 -20 9 7 8 12 16 6 19 16 13 10 5 7 14 -9 -17 -14 -20
-20 -20 -20 -20 -20 -20 -18 -20 -20 -7 -20 -20 -20 -20 -20 -20 -20 -20 -20 -20 -15 7 -14 13 -15 11 12 13 13 13 -3 4 13 9 1 5 1 14 16 19 17 4 -5
-20 -20 -20 -20 -20 -20 -13 -20 -20 -20 -18 -20 -20 -20 -20 -20 -20 -2 10 12 10 16 14 7 16 16 15 -16 -20 -20 -20 -20 -20 -20 -20 -20 -16 -20 -1 4 18 26 29
-20 -20 -13 -20 -20 -20 -20 -20 6 -5 7 10 14 3 -15 5 9 11 12 8 15 17 -1 -4 6 5 1 -20 -20 -20 -20 -15 -7 -7 -9 14 -6 7 0 4 4 14 14
-20 -20 -20 -0 -20 -20 -20 -20 -20 -20 -20 -20 3 -19 -20 -19 6 10 9 6 16 12 -5 3 0 -18 -20 -20 -20 -20 -20 -20 -20 -20 -20 -20 -20 3 7 9 19 28 17
-20 -20 -20 -20 -20 -20 -20 -20 -20 -20 -20 -20 -8 -16 -9 -20 -12 17 16 17 5 -0 6 -20 -20 -20 -20 -20 -20 -20 -19 -20 -20 -16 -20 -20 -20 -20 -17 -9 12 -1 -19
-20 -20 -20 -20 -19 -7 -20 -20 -20 -20 -19 -20 -20 -3 -2 3 7 6 15 -2 1 -19 -20 -20 -20 -20 -20 -18 -20 -17 -8 -16 -14 -20 -20 -20 -20 -20 -19 -6 -20 3 -18
-20 -20 -20 -20 -20 -20 -20 -20 -10 3 13 8 5 2 6 6 6 19 -19 -20 -20 -20 -20 -20 -20 -20 -20 -20 -20 -20 -20 6 -13 -20 -20 -20 -20 -20 -5 -19 -20 -20 -20
-20 -20 -20 -20 -20 -20 -20 -20 -12 6 21 12 19 3 18 -1 -7 -20 -20 -20 -15 -20 -20 -20 -20 -20 -7 -19 -20 -20 -20 6 -18 -20 -20 -20 -20 -20 -20 -20 -20 -20 -11
-20 -20 -20 -20 -20 -20 -20 -20 -19 1 11 11 7 18 18 1 7 11 6 -2 0 10 9 -1 -13 3 -20 -17 -19 -5 -20 -20 -20 -20 -20 -20 -20 -20 -20 -20 -3 -9 -20
-20 -20 -20 -20 -20 -20 -20 -20 -20 -20 -20 -20 -20 -20 -20 -20 -20 -20 -20 -20 -14 -20 -20 -20 -10 -15 6 -20 5 1 -20 -20 -20 -20 -20 -18 -19 -20 10 3 -1 -7 -20
-20 -20 -20 -20 -20 -20 -20 -20 -19 -16 -20 -20 -20 -20 -20 -20 -20 -20 -20 -20 -20 -20 -20 -20 -20 -20 -20 -20 -16 -19 -19 -20 -20 -20 -20 -19 -3 -12 -17 -20 -20 -20 -20
-20 -20 -20 -20 -20 -20 -18 -20 -20 -20 -20 -20 -20 -20 -20 -20 -20 -20 -20 -20 -20 -20 -20 -20 -20 -20 -20 -20 -20 -20 -20 -20 -20 -20 -20 -20 -20 -20 -20 -20 -20 -20 -20
-13 -20 -20 -20 -20 -20 -10 -9 -20 -20 -11 -11 10 -0 -20 -20 -20 -20 -20 -20 -20 -20 -20 -20 -20 -20 -20 -20 -20 -19 -20 -20 -20 7 -3 -20 -20 -20 -11 -7 -20 -14 -20

GFSGL_prec_radar_048.txt.gz
Reflectivity
-20 -20 -20 -20 -20 -20 -20 -20 -20 -20 -20 -20 -20 -20 -20 -20 -20 -20 -20 -20 -20 -20 -20 -20 -20 -20 -20 -20 -20 -20 -20 -20 -20 -20 -20 -20 -20 -20 -20 -20 -20 -20 -20
-20 -20 -20 -20 -20 -20 -20 -20 -20 -20 -20 -20 -20 -20 -20 -20 -20 -20 -20 -20 -20 -20 -20 -20 -20 -20 -20 -20 -20 -20 -20 -20 -20 -20 -20 -20 -20 -20 -20 -20 -20 -20 -20
-20 -20 -20 -20 -20 -20 -20 -20 -20 -20 -20 -20 -20 -20 -20 -20 -20 -20 -20 -20 -20 -20 -20 -20 -20 -20 -20 -20 -20 -20 -20 -20 -20 -20 -20 -20 -20 -20 -20 -20 -20 -20 -20
-20 -20 -20 -20 -20 -20 -20 -20 -20 -20 -20 -20 -20 -20 -20 -20 -20 -20 -20 -20 -20 -20 -20 -20 -20 -20 -20 -20 -20 -20 -20 -20 -20 -20 -20 -20 -20 -20 -20 -20 -20 -20 -20
-20 -20 -20 -20 -20 -20 -20 -20 -20 -20 -20 -20 -20 -20 -20 -20 -20 -20 -20 -20 -20 -20 -20 -20 -20 -20 -20 -20 -20 -20 -20 -20 -20 -20 -20 -20 -20 -20 -20 -20 -20 -20 -20
-20 -20 -20 -20 -20 -20 -20 -20 -20 -20 -20 -20 -20 -20 -20 -20 -20 -20 -20 -20 -20 -20 -20 -20 -20 -20 -20 -20 -20 -20 -20 -20 -20 -20 -20 -20 -20 -20 -20 -20 -20 -20 -20
-20 -20 -20 -20 -20 -20 -20 -20 -20 -20 -20 -20 -20 -20 -20 -20 -20 -20 -20 -20 -20 -20 -20 -20 -20 -20 -20 -20 -20 -20 -20 -20 -20 -20 -20 -20 -20 -20 -20 -20 -20 -20 -20
-20 -20 -20 -20 -20 -20 -20 -20 -20 -20 -20 -20 -20 -20 -20 -20 -20 -20 -20 -20 -20 -20 -20 -20 -20 -20 -20 -20 -20 -20 -20 -20 -20 -20 -20 -20 -20 -20 -20 -20 -20 -20 -20
-20 -20 -20 -20 -20 -20 -20 -20 -20 -20 -20 -20 -20 -20 -20 -20 -20 -20 -20 -20 -20 -20 -20 -20 -20 -20 -20 -20 -20 -20 -20 -20 -20 -20 -20 -20 -20 -20 -20 -18 -13 -6 -4
-20 -20 -20 -20 -20 -20 -20 -20 -20 -20 -20 -20 -20 -20 -20 -20 -20 -20 -20 -20 -20 -20 -20 -20 -20 -20 -20 -20 -20 -20 -20 -20 -20 -20 -20 -20 -20 -20 3 -9 4 12 12
-20 -20 -20 -20 -20 -20 -20 -20 -20 -20 -20 -20 -20 -20 -20 -20 -20 -20 -20 -20 -20 -20 -20 -20 -20 -20 -20 -20 -20 -20 -20 -7 -5 -15 -20 -20 -7 -20 -20 -15 8 16 13
-20 -20 -20 -20 -20 -20 -20 -20 -20 -20 -20 -20 -20 -20 -20 -20 -20 -14 -20 -20 -20 -20 -20 -20 -20 -20 -20 -18 -1 13 15 13 1 -4 -9 1 -9 -4 1 1 1 2 11
-20 -20 -20 -20 -20 -20 -20 -20 -20 -20 -20 -20 -20 -20 -20 -20 -19 3 -20 -20 -20 -20 -20 -20 -20 -20 -20 2 15 15 15 9 22 16 14 -4 -17 -20 1 8 4 15 6
-20 -20 -20 -20 -20 -20 -20 -20 -20 -20 -20 -20 -20 -20 -20 -20 -20 -20 -20 -20 -17 -20 -20 -20 -15 11 12 14 11 14 5 21 18 -20 -20 -20 2 3 8 11 13 -1 14
-20 -20 -20 -20 -20 -20 -20 -20 -20 -1 -9 -20 -20 -20 -20 -20 -20 -11 -7 -20 -20 -10 -20 -6 15 17 18 3 -7 -4 15 -19 -17 -17 -20 -12 -11 -1 -8 -11 9 13 14
-20 -20 -14 -20 -20 -20 -20 -20 -8 -1 -0 10 13 0 -14 8 16 15 15 15 14 11 -2 -7 8 11 -7 -5 3 -20 -20 -20 -20 -20 -20 -20 -5 -10 -5 -12 -9 8 4
-20 -20 -20 -1 -20 -20 -20 -20 -20 -3 -1 9 9 13 15 7 5 7 8 9 10 12 -16 -16 5 1 4 -18 -20 -20 -20 -20 -20 -20 -20 -19 -14 -20 -2 -19 -20 -20 -20
-20 -11 -19 -20 -20 -20 -20 -20 -20 -20 -20 -20 5 -10 -15 11 12 6 8 -18 -18 -20 -13 0 1 -14 -20 -20 -20 -20 -20 -20 -20 -20 -20 -20 -20 -20 -19 -15 -5 -4 -20
-20 -20 -20 -20 -20 -8 -14 -20 -20 -20 -20 -20 -20 8 9 9 5 9 13 -6 7 2 -1 -15 -20 -20 -20 -20 -18 -18 -4 -7 -14 -11 -20 -9 -20 6 -16 -20 -20 -5 -15
-20 -20 -20 -20 -19 -20 12 -20 -20 -20 -20 -20 -20 -20 -20 -20 10 8 8 7 9 -8 -20 -20 -20 -20 -20 3 -18 -20 -17 -7 -3 -1 1 3 -2 2 -16 -20 -20 -20 -20
-20 -20 -20 -20 -20 2 5 5 -20 -20 -20 -20 -20 -8 12 -3 -0 3 -1 -5 -20 -20 -20 -8 -20 3 4 -18 7 -7 -18 -13 -20 -7 -0 -20 -20 -20 -17 -20 -14 1 -20
-20 -20 -20 -20 -20 -20 -16 -12 -14 -17 -20 -20 -20 9 17 -1 -6 7 -7 -17 -20 -18 -13 10 3 3 -1 8 -2 -7 -20 -20 -20 -20 -14 -15 -20 -20 -8 -20 -20 -20 -20
-20 -20 -20 -20 -20 4 -20 -20 -20 -20 -20 -20 -20 -20 -20 -20 -20 -20 -20 -11 1 3 2 -4 10 -7 6 -7 -20 -20 -20 -20 -20 -20 -20 -7 -19 -20 -20 -20 -20 -17 -1
-20 -20 -20 -20 -20 -20 -20 -20 -20 -16 -20 -20 -20 -20 -20 -20 -20 -20 -20 -20 -20 -20 -20 -20 -20 -20 -20 -20 -20 -20 -20 -20 -20 -20 -20 -20 -20 -15 -20 -20 -20 -20 -20
-20 -20 -20 -20 -20 -20 -7 -19 -20 -20 -20 -20 -20 -20 -20 -20 -20 -20 -20 -20 -20 -20 -20 -20 -20 -20 -20 -20 -20 -20 -20 -20 -20 -20 -20 -20 -20 -20 -20 -20 -20 -20 -20
-20 -20 -20 -20 -20 -19 -4 -5 -14 -3 -20 -11 -20 -20 -20 -20 -20 -20 -20 -20 -20 -20 -20 -20 -20 -20 -20 -20 -20 -20 -20 -20 -20 -20 -20 -20 -20 -20 -20 -20 -20 -20 -20

GFSGL_prec_radar_051.txt.gz
Reflectivity
-20 -20 -20 -20 -20 -20 -20 -20 -20 -20 -20 -20 -20 -20 -20 -20 -20 -20 -20 -20 -20 -20 -20 -20 -20 -20 -20 -20 -20 -20 -20 -20 -20 -20 -20 -20 -20 -20 -20 -20 -20 -20 -20
-20 -20 -20 -20 -20 -20 -20 -20 -20 -20 -20 -20 -20 -20 -20 -20 -20 -20 -20 -20 -20 -20 -20 -20 -20 -20 -20 -20 -20 -20 -20 -20 -20 -20 -20 -20 -20 -20 -20 -20 -20 -20 -20
-20 -20 -20 -20 -20 -20 -20 -20 -20 -20 -20 -20 -20 -20 -20 -20 -20 -20 -20 -20 -20 -20 -20 -20 -20 -20 -20 -20 -20 -20 -20 -20 -20 -20 -20 -20 -20 -20 -20 -20 -20 -20 -20
-20 -20 -20 -20 -20 -20 -20 -20 -20 -20 -20 -20 -20 -20 -20 -20 -20 -20 -20 -20 -20 -20 -20 -20 -20 -20 -20 -20 -20 -20 -20 -20 -20 -20 -20 -20 -20 -20 -20 -20 -20 -20 -20
-20 -20 -20 -20 -20 -20 -20 -20 -20 -20 -20 -20 -20 -20 -20 -20 -20 -20 -20 -20 -20 -20 -20 -20 -20 -20 -20 -20 -20 -20 -20 -20 -20 -20 -20 -20 -20 -20 -20 -20 -20 -20 -20
-20 -20 -20 -20 -20 -20 -20 -20 -20 -20 -20 -20 -20 -20 -20 -20 -20 -20 -20 -20 -20 -20 -20 -20 -20 -20 -20 -20 -20 -20 -20 -20 -20 -20 -20 -20 -20 -20 -20 -20 -20 -20 -20
-20 -20 -20 -20 -20 -20 -20 -20 -20 -20 -20 -20 -20 -20 -20 -20 -20 -20 -20 -20 -20 -20 -20 -20 -20 -20 -20 -20 -20 -11 -20 -20 -20 -20 -20 -20 -20 -20 -20 -14 5 -20 -20
-20 -20 -20 -20 -20 -20 -20 -20 -20 -20 -20 -20 -20 -20 -20 -20 -20 -20 -20 -20 -20 -20 -20 -20 -20 -20 -20 -20 -20 -20 -20 -20 -20 -20 -20 -20 -20 -20 -19 8 15 7 -20
-20 -20 -20 -20 -20 -20 -20 -20 -20 -20 -20 -20 -20 -20 -20 -20 -20 -20 -20 -20 -20 -20 -20 -20 -20 -20 -20 -20 -20 -20 -20 -20 -20 -20 -20 -20 -20 -20 -20 -20 5 2 -20
-20 -20 -20 -20 -20 -20 -20 -20 -20 -20 -20 -20 -20 -20 -20 -20 -20 -20 -20 -20 -20 -20 -20 -20 -20 -20 -20 -20 -20 -20 -20 -20 -20 -20 -20 -17 3 -20 -20 1 2 -11 15
-20 -20 -20 -20 -20 -20 -20 -20 -20 -20 -20 -20 -20 -20 -20 -20 -20 -20 -20 -20 -20 -20 -20 -20 -20 -20 -20 -20 -18 -20 -20 -15 -20 -14 5 -20 -20 -14 -9 -15 -5 19 11
-20 -20 -20 -20 -20 -20 -20 -20 -20 -20 -20 -20 -20 -20 -20 -20 -18 -20 -20 5 -20 -20 -20 -20 -20 -20 -20 -20 0 -20 -20 -11 -20 -8 10 6 -17 22 0 -13 11 14 4
-20 -20 -20 -20 -20 -20 -20 -20 -20 -20 -20 -20 -20 -20 -20 -20 -19 4 -20 -20 -20 -20 -20 -20 -20 -20 -20 9 -20 -20 -20 -20 6 16 27 -10 7 -20 10 -17 2 -2 -20
-20 -20 -20 -20 -20 -20 -20 -20 -20 -20 -20 -20 -20 -20 -20 -20 -20 -20 -20 -19 2 -2 -20 -14 -20 8 10 5 -8 -14 -20 -18 24 18 -17 -17 -2 1 -20 -20 -20 -20 -20
-20 -20 -20 -20 -20 -20 -20 -20 -20 -20 -20 -20 -20 -20 -20 -20 -20 -20 -20 -20 -20 -20 -20 -13 -12 -17 -20 -0 5 -20 -13 -6 -13 -6 -2 -14 -20 -20 -20 -20 -20 -20 -20
-20 -20 -15 -20 -20 6 6 -20 4 4 1 8 11 2 -20 4 14 11 13 14 12 12 -15 -17 -8 -10 -12 -11 -16 -14 -20 8 -20 -20 -20 -20 -20 -20 -20 -20 -20 -13 -11
28 12 -20 15 35 36 40 3 -20 -20 -19 -13 -2 11 15 -4 11 9 8 8 9 12 -20 -20 -20 -2 -20 -20 -3 -17 -20 -20 -20 -20 -20 -20 -20 -20 -20 -20 -20 -20 -20
-20 17 36 11 28 13 -20 -20 -20 -20 -20 -20 -20 -10 6 2 2 3 6 6 14 10 -20 -20 -20 -19 -20 -20 -20 -20 -20 -20 -20 -20 -18 -19 -5 -18 -4 -7 -17 -20 -20
-20 -18 -20 -20 -19 -7 -20 -20 -20 -20 -20 -20 -20 1 2 1 2 12 4 -6 -20 -20 -20 -20 -20 -20 -15 -20 -20 -12 -8 -15 -17 -20 -20 -18 -15 7 -4 -6 -20 2 -18
-20 -17 -19 -20 -19 -20 -19 -13 -2 -20 -20 -20 -20 -20 -20 8 2 -13 -13 -20 -20 -20 -17 10 -7 -3 -0 -3 -2 3 3 -20 -20 -1 4 5 8 8 -17 -2 -11 5 -19
-20 -20 7 -20 -20 -20 -20 -4 1 -20 -20 -20 -20 -9 9 -20 -20 -20 -20 -9 -7 -20 -12 2 -5 -20 -20 -20 -20 -2 5 0 6 8 9 1 10 9 10 7 2 3 8
-20 -20 -20 -20 -20 -20 -20 -20 -14 -20 -20 -20 -20 -11 5 -10 -20 -14 -19 -20 -20 -20 -20 -20 -20 -20 -20 -20 -20 -20 -20 -20 -20 -20 -20 -5 4 -2 2 -9 -19 4 -5
-20 -20 -20 -20 -20 -12 -15 -20 -20 -20 -20 -13 -4 -20 -20 -20 -20 -18 -20 -20 -20 -20 -20 -20 -16 -16 -0 -20 -20 -20 -20 -20 -20 -20 -20 -10 6 -14 -19 -16 -20 -11 -1
-17 -5 -20 -20 -20 -20 -20 -20 -20 -20 -20 -11 -17 -20 -20 -20 -20 -20 -20 -20 -20 -15 -20 -19 -20 -20 -20 -20 -20 -20 -20 -20 -20 -20 -20 -20 -18 5 -7 -20 -20 -20 -20
-20 -20 -19 -19 -20 -20 -14 -20 -20 -20 -20 -20 -20 -20 -20 -20 -20 -20 -20 -19 -0 -20 -20 -20 -20 -20 -20 -20 -20 -20 -20 -20 -9 9 -20 -20 -20 -8 5 12 -20 -20 -20
-15 -20 -17 -11 -20 -20 -20 -20 -20 -20 -20 -20 -20 -20 -20 -20 -20 -20 -20 -20 -20 -20 -20 -20 -20 -20 -20 -20 -20 -20 -20 -20 -16 -14 -12 -20 -20 -20 -20 -20 -17 -20 -6

GFSGL_prec_radar_054.txt.gz
Reflectivity
-20 -20 -20 -20 -20 -20 -20 -20 -20 -20 -20 -20 -20 -20 -20 -20 -20 -20 -20 -20 5 7 -20 -20 -20 -20 -20 -20 -20 -20 -20 -20 -20 -20 -20 -20 -20 -20 -20 -20 -20 -20 -20
-20 -20 -20 -20 -20 -20 -20 -20 -20 -20 -20 -20 -20 -20 -20 -20 -20 -20 -20 -20 -20 -19 -3 -20 -20 -20 -20 -20 -20 -20 -20 -20 -20 -20 -20 -20 -20 -20 -20 -20 -20 -20 -20
-20 -20 -20 -20 -20 -20 -20 -20 -20 -20 -20 -20 -20 -20 -20 -20 -20 -20 -20 -20 -20 -20 -20 -20 -20 -20 -20 -20 -20 -20 -20 -20 -20 -20 -20 -20 -20 -20 -20 -20 -20 -20 -20
-20 -20 -20 -20 -20 -20 -20 -20 -20 -20 -20 -20 -20 -20 -20 -20 -20 -20 -20 -20 -20 -20 -20 -20 -20 -20 -20 -20 -20 -20 -20 -20 -20 -20 -20 -20 -20 -20 -20 -20 -20 -20 -20
-20 -20 -20 -20 -20 -20 -20 -20 -20 -20 -20 -20 -20 -20 -20 -20 -20 -20 -20 -20 -20 -20 -20 -20 -20 -20 -20 -20 -20 -20 -20 -20 -20 -20 -20 -20 -20 -20 -20 -20 -20 -20 -20
-20 -20 -20 -20 -20 -20 -20 -20 -20 -20 -20 -20 -20 -20 -20 -20 -20 -20 -20 -20 -20 -20 -20 -20 -20 -20 -20 -20 -20 -20 -20 -20 -20 -20 -20 -20 -20 -20 -20 -20 -20 -20 -20
-20 -20 -20 -20 -20 -20 -20 -20 -20 -20 -20 -20 -20 -20 -20 -20 -20 -20 -20 -20 -20 -20 -20 -20 -20 -20 -20 -20 -20 -19 -20 -20 -20 -20 -20 -20 -20 -20 -20 -6 -18 -12 5
-20 -20 -20 -20 -20 -20 -20 -20 -20 -20 -20 -20 -20 -20 -20 -20 -20 -20 -20 -20 -20 -20 -20 -20 -20 -20 -20 -20 -20 -20 -20 -20 -20 -20 -20 -20 -20 -20 -12 10 14 -9 2
-20 -20 -20 -20 -20 -20 -20 -20 -20 -20 -20 -20 -20 -20 -20 -20 -20 -20 -20 -20 -20 -20 -20 -20 -20 -20 -20 -20 -20 -20 -20 -20 -20 -20 -20 -20 -20 -20 -10 -20 -19 -6 -20
-20 -20 -20 -20 -20 -20 -20 -20 -20 -20 -20 -20 -20 -20 -20 -20 -20 -20 -20 -20 -20 -20 -20 -20 -20 -20 -20 -20 -20 -20 -20 -20 -20 -20 -20 -17 2 -0 -20 -11 -10 -18 1
-20 -20 -20 -20 -20 -20 -20 -20 -20 -20 -20 -20 -20 -20 -20 -20 -20 -20 -20 -20 -20 -20 -20 -20 -20 -20 -20 -20 -20 -20 -20 -14 -20 -15 8 10 9 -20 9 13 -16 -20 -15
-20 -20 -20 -20 -20 -20 -20 -20 -20 -20 -20 -20 -20 -20 -20 -20 -19 -12 -20 1 -20 -20 -20 -20 -20 -20 -20 -20 -1 -20 -20 1 -20 -20 -3 -10 -11 -7 -10 -6 2 19 14
-20 -20 -20 -20 -20 -20 -20 -20 -20 -20 -20 -20 -20 -20 -20 -20 -20 -20 -20 -20 -20 -20 -20 -20 -20 -20 -20 12 -20 -20 7 -19 -20 -1 -16 -7 -2 -16 0 -8 -14 -20 -20
-20 -20 -20 -20 -20 -20 -20 -20 -20 -20 -20 -20 -20 -20 -20 -20 -20 -20 -20 -18 7 2 -20 -20 -20 -9 10 10 -4 2 -20 -20 -11 -18 -15 -1 -12 -2 -1 -20 -20 -20 -20
-20 -20 -20 -20 -20 -17 -18 -20 -20 -19 -5 -20 -20 -20 -20 -20 -20 -20 -20 -20 -20 -20 -20 -20 -20 -20 -20 -5 2 -2 -5 -12 -20 -20 -12 -10 2 -20 -20 -20 -20 -20 -20
-20 -17 -20 -20 -20 -20 -14 -20 11 -2 -20 3 9 11 -20 -4 -5 -20 -20 5 13 -12 -20 -20 -14 -19 -11 -15 -18 -2 -0 2 -2 -15 -20 -20 -20 -20 -20 -20 -20 -20 -20
-15 11 -12 -20 -20 -19 -19 -19 -20 3 -20 -20 -10 6 7 14 13 10 8 5 6 11 -20 6 10 13 4 -8 -7 -14 -20 -20 -20 -20 -20 -20 -20 -20 -20 -20 -20 -20 -20
-20 8 -10 12 -17 -15 4 -8 18 30 24 -5 0 12 3 5 8 4 4 12 -13 -4 -20 -19 -20 -20 -20 -20 -16 -20 -20 -20 -20 -20 -20 -20 -20 -20 -17 -20 -20 -20 -20
-16 17 25 -20 -20 -10 -15 -8 23 42 37 6 -19 -17 -12 -7 -4 6 8 4 -12 -20 -20 -20 -20 -20 -20 -20 -20 6 -20 -20 -16 -20 -20 -20 -20 -20 -14 -20 -18 -20 -3
-20 22 -20 -20 2 20 41 35 25 16 6 -19 -20 -20 -20 -9 -19 -20 -20 -20 -20 -20 -20 -20 -20 -20 -20 -20 -20 -20 -20 -17 -20 -20 -20 -10 -4 -0 -8 -18 -20 -20 -16
-20 -20 -19 -20 -20 2 -17 5 -5 -8 4 16 -20 -5 3 -20 -20 -20 -20 -19 3 -9 -7 -20 -16 -14 0 27 -3 -11 -20 -20 -20 -19 -20 -20 -20 3 -14 -20 -4 -20 -20
-20 -20 -20 -20 -20 -20 -17 -20 -7 20 -5 -20 -20 -12 6 -20 -20 -20 -20 -20 -20 -20 -20 -20 -20 -12 -20 -20 -20 -20 -20 -20 -20 -20 -20 -18 -1 -14 -20 -20 -20 -20 -20
-17 -20 -20 -20 -5 2 -10 -15 -20 5 -20 -20 -20 -20 -20 -20 -20 -20 -20 -20 -20 -20 -20 -20 -20 -20 -20 -20 -20 -20 -20 -20 -20 -20 -20 -20 -7 -10 -3 1 -20 -20 -20
13 16 6 -20 -16 4 -8 -20 -20 -16 -11 -20 -20 -20 -20 -20 -20 -20 -20 -20 -20 -20 -20 -20 -20 -20 -20 -20 -20 -20 -20 -20 -20 -20 -20 -20 -20 -20 -19 -6 -20 -20 -20
-18 -4 -4 -14 -20 -20 -5 -20 -20 -20 -20 -20 -20 -20 -20 -20 -20 -20 -20 -20 -20 -20 -20 -20 -20 -20 -20 -20 -20 -20 -4 -20 -9 4 -20 -20 -20 -20 -20 -20 -20 -20 -20
-20 -20 -20 -20 -20 -20 -20 -20 -20 -20 -20 -20 -20 -20 -20 -20 -20 -20 -20 -20 -20 -20 -20 -20 -20 -20 -20 -20 -20 -20 -20 -20 -20 -20 -20 -20 -20 -20 -20 -20 -20 -20 9

GFSGL_prec_radar_057.txt.gz
Reflectivity
-20 -20 -20 -20 -20 -20 -20 -20 -20 -20 -20 -20 -20 -20 -20 -20 -20 -6 -20 -20 -20 -20 -20 -20 -20 -20 -20 -20 -20 -20 -20 -20 -20 -20 -20 -20 -20 -20 -20 -20 -20 -20 -20
-20 -20 -20 -20 -20 -20 -20 -20 -20 -20 -20 -20 -20 -20 -20 -20 -20 -20 -20 -20 -20 -20 -20 -20 -20 -20 -20 -20 -20 -20 -20 -20 -20 -20 -20 -20 -20 -20 -20 -20 -20 -20 -20
-20 -20 -20 -20 -20 -20 -20 -20 -20 -20 -20 -20 -20 -20 -20 -20 -20 -20 -20 -20 -20 -20 -20 -20 -20 -20 -20 -20 -20 -20 -20 -20 -20 -20 -20 -20 -20 -20 -20 -20 -20 -20 -20
-20 -20 -20 -20 -20 -20 -20 -20 -20 -20 -20 -20 -20 -20 -20 -20 -20 -20 -20 -20 -20 -20 -20 -20 -20 -20 -20 -20 -20 -20 -20 -20 -20 -20 -20 -20 -20 -20 -20 -20 -20 -20 -20
-20 -20 -20 -20 -20 -20 -20 -20 -20 -20 -20 -20 -20 -20 -20 -20 -20 -20 -20 -20 -20 -20 -20 -20 -20 -20 -20 -20 -20 -20 -20 -20 -20 -20 -20 -20 -20 -20 -20 -20 -20 -20 -20
-20 -20 -20 -20 -20 -20 -20 -20 -20 -20 -20 -20 -20 -20 -20 -20 -20 -20 -20 -20 -20 -20 -20 -20 -20 -20 -20 -20 -20 -20 -20 -20 -20 -20 -20 -20 -20 -20 -20 -20 -20 -20 -20
-20 -20 -20 -20 -20 -20 -20 -20 -20 -20 -20 -20 -20 -20 -20 -20 -20 -20 -20 -20 -20 -20 -20 -20 -20 -20 -20 -20 -20 -20 -20 -20 -20 -20 -20 -20 -20 -20 -20 -20 -20 -20 -16
-20 -20 -20 -20 -20 -20 -20 -20 -20 -20 -20 -20 -20 -20 -20 -20 -20 -20 -20 -20 -20 -20 -20 -20 -20 -20 -20 -20 -20 -20 -20 -20 -20 -20 -20 -20 -20 -20 -20 -20 -5 -8 -3
-20 -20 -20 -20 -20 -20 -20 -20 -20 -20 -20 -20 -20 -20 -20 -20 -20 -20 -20 -20 -20 -20 -20 -20 -20 -20 -20 -20 -20 -20 -20 -20 -20 -20 -20 -20 -20 -20 -20 -20 -20 5 7
-20 -20 -20 -20 -20 -20 -20 -20 -20 -20 -20 -20 -20 -20 -20 -20 -20 -20 -20 -20 -20 -20 -20 -20 -20 -20 -20 -20 -20 -20 -20 -20 -20 -20 -20 -20 1 -20 -19 -17 5 14 -18
-20 -20 -20 -20 -20 -20 -20 -20 -20 -20 -20 -20 -20 -20 -20 -20 -20 -20 -20 -20 -20 -20 -20 -20 -20 -20 -20 -20 -20 -20 -20 -16 -20 -20 -20 -20 -13 -6 13 14 7 8 14
-20 -20 -20 -20 -20 -20 -20 -20 -20 -20 -20 -20 -20 -20 -20 -20 -20 -11 -20 -20 -20 -20 -20 -20 -20 -20 -20 -20 -20 -20 -20 -4 -20 -20 -20 -20 -18 8 -11 -11 -20 -20 -13
-20 -20 -20 -10 -4 -20 -7 2 -18 -7 -20 -20 -20 -20 -20 -20 -20 -20 -20 -20 -20 -20 -20 -15 -16 -20 -20 3 -20 -20 2 -19 -20 -20 -18 -20 -20 -20 -20 -20 -20 -20 7
-20 -20 -20 -8 2 -20 -20 -20 -20 -20 -20 -20 -20 -20 -20 -20 -20 -20 -20 -20 2 -3 -20 -20 -20 -20 11 -13 -7 -4 -20 -20 -20 -7 8 -6 -2 -20 -20 -20 -4 -20 -20
-20 -20 -17 -20 2 -20 -20 -20 -20 -20 -19 -20 -20 -20 -20 -20 -20 -20 -20 -20 -20 -20 -20 -20 -20 -20 -20 -20 -20 -20 5 4 -6 3 1 -20 -20 -20 -2 -20 -20 -20 -20
9 5 -20 -20 -20 -20 -20 -20 10 -7 4 9 8 5 -20 16 -0 -19 -7 -14 -20 -20 -20 -20 -20 -20 -20 -20 -20 6 6 4 4 -19 -20 -20 -20 -10 -20 -20 -20 -20 -20
15 12 -20 -20 -20 -20 -20 -20 -20 -2 -4 6 10 11 11 15 12 25 38 11 6 1 -20 -20 -20 -20 -20 -20 -20 -15 -20 -0 -20 -12 -20 -20 -20 -20 -20 -20 -20 -20 -20
-4 19 1 -17 -16 -20 -19 -20 -20 -20 -20 -20 -17 -10 9 10 14 10 5 11 -4 -3 -20 -20 -2 3 13 11 5 5 -20 -20 -19 -20 -20 -20 -20 -20 -20 -20 -20 -20 -20
32 18 -3 6 14 -4 -12 7 -20 -20 -20 5 -20 -7 -3 -4 2 7 8 3 -9 0 -11 5 -18 -8 -11 -20 -20 -20 -20 -20 -15 -19 -20 -20 -20 -20 -20 -20 -20 -20 -8
22 24 26 -1 23 -8 10 4 -2 21 9 23 21 24 16 10 -6 -20 -20 -20 10 3 3 -14 -14 -20 -19 -10 -20 -20 -20 -18 -20 -19 -20 -20 -20 -20 -20 -20 -20 -20 -20
21 24 4 -2 -9 -2 -16 -3 15 22 2 26 23 13 21 13 -14 -20 -20 -20 -13 4 35 -8 4 -20 29 -20 -20 -20 -15 -8 -2 -20 -20 -20 -20 -20 -4 -20 -20 -20 -20
13 7 29 25 9 17 25 17 31 38 18 11 8 -8 -12 -19 -10 -20 -20 -16 10 16 -3 -20 -20 -20 -20 -20 -20 -12 -5 -9 -14 -20 -20 -14 -20 -20 -19 4 -19 -20 -20
17 21 20 16 -20 4 -8 -12 19 25 -17 -20 -20 -20 -20 -20 -18 -3 -6 -1 10 6 -12 -20 -20 -20 -20 -20 -20 -20 -16 -4 -20 -20 -20 -20 -20 -20 -20 -20 -20 -20 -20
27 16 7 10 -20 -20 -18 -20 14 9 -12 -12 -9 -20 -20 -20 -5 -20 -20 -20 -20 -20 -20 -20 -20 -11 0 -20 -20 -20 -20 -20 -20 -20 -20 -20 -20 -20 -20 -20 -20 -20 -20
2 11 33 28 -9 -20 -20 -20 -20 -20 -12 14 -3 9 -14 -17 -20 -9 -6 -4 -20 -20 -20 -20 -20 -20 -20 -20 -20 -20 -20 -20 -16 7 -20 -20 -20 -20 -20 -20 -20 -20 -20
-17 -19 -15 -20 -12 4 7 1 16 -6 -18 -8 13 15 14 13 15 10 4 -11 -20 -20 -20 -20 -20 -20 -20 -20 -20 -20 -20 -20 -20 -20 -20 -20 -20 -20 -20 -20 -20 -20 -20

GFSGL_prec_radar_060.txt.gz
Reflectivity
-20 -20 -20 -20 -20 -20 -20 -20 -20 -20 -20 -20 -20 -20 -20 -20 -20 -12 -20 -2 2 -20 -20 9 -20 -20 -20 -20 -20 -20 -20 -20 -20 -20 -20 -20 -20 -20 -20 -20 -20 -20 -20
-20 -20 -20 -20 -20 -20 -20 -20 -20 -20 -20 -20 -20 -20 -20 -20 -20 -20 -20 -20 -19 -19 -20 -20 1 -20 -20 -20 -20 -20 -20 -20 -20 -20 -20 -20 -20 -20 -20 -20 -20 -20 -20
-20 -20 -20 -20 -20 -20 -20 -20 -20 -20 -20 -20 -20 -20 -20 -20 -20 -20 -20 -20 -20 -20 -20 -20 -20 -20 -20 -20 -20 -20 -20 -20 -20 -20 -20 -20 -20 -20 -20 -20 -20 -20 -20
-20 -20 -20 -20 -20 -20 -20 -20 -20 -20 -20 -20 -20 -20 -20 -20 -20 -20 -20 -20 -20 -20 -20 -20 -20 -20 -20 -20 -20 -20 -20 -20 -20 -20 -20 -20 -20 -20 -20 -20 -20 -20 -20
-20 -20 -20 -20 -20 -20 -20 -20 -20 -20 -20 -20 -20 -20 -20 -20 -20 -20 -20 -20 -20 -20 -20 -20 -20 -20 -20 -20 -20 -20 -20 -20 -20 -20 -20 -20 -20 -20 -20 -20 -20 -20 -20
-20 -20 -20 -20 -20 -20 -20 -20 -20 -20 -20 -20 -20 -20 -20 -20 -20 -20 -20 -20 -20 -20 -20 -20 -20 -20 -20 -20 -20 -20 -20 -20 -20 -20 -20 -20 -20 -20 -20 -20 -20 -20 -20
-20 -20 -20 -20 -20 -20 -20 -20 -20 -20 -20 -20 -20 -20 -20 -20 -20 -20 -20 -20 -20 -20 -20 -20 -20 -20 -20 -20 -20 -20 -20 -20 -20 -20 -20 -20 -20 -20 -20 -20 -20 -20 -20
-20 -20 -20 -20 -20 -20 -20 -20 -20 -16 -20 -20 -20 -20 -20 -20 -20 -20 -20 -20 -20 -20 -20 -20 -20 -20 -20 -20 -20 -20 -20 -20 -20 -20 -20 -20 -20 -20 -20 -20 -20 -20 -20
-20 -20 -20 -20 -20 -20 -20 -20 -20 -20 -20 -20 -20 -20 -20 -20 -20 -20 -20 -20 -20 -20 -20 -20 -20 -20 -20 -20 -20 -20 -20 -20 -20 -20 -20 -20 -20 -20 -20 -20 -20 -20 -20
-20 -20 -20 -20 -20 -20 -20 -20 -20 -20 -20 -20 -20 -20 -20 -20 -20 -20 -20 -20 -20 -20 -20 -20 -20 -20 -20 -20 -20 -20 -20 -20 -20 -20 -20 -20 -20 -20 -20 -20 -20 10 12
-20 -20 -20 -20 -20 -20 -20 -20 -20 -20 -20 -20 -20 -20 -20 -20 -20 -20 -20 -20 -20 -20 -20 -20 -20 -20 -20 -20 -20 -20 -20 -20 -20 -20 -20 -20 -20 -20 -20 -17 -15 -20 10
-20 -20 -20 -20 -20 -20 -20 -20 -20 -20 -4 -20 -20 -20 -20 -20 -20 -14 -20 -20 -20 -20 -20 -20 -20 -20 -20 -20 -20 -20 -20 -20 -20 -20 -20 -20 -20 -20 -3 12 -20 -5 -4
-20 -20 -20 -20 -20 -20 -20 -5 5 1 1 -0 -0 -20 -20 -20 -20 -20 -20 -20 -20 -20 -20 -12 -13 -20 -20 -20 -20 -20 -20 -19 -20 -20 -20 -20 -20 8 -18 -20 -20 -20 -20
-20 -20 -20 -20 -20 -20 -18 4 -6 -3 -17 -4 -20 -20 -20 -20 -20 -20 -20 -20 -20 -20 -20 -20 -20 -20 6 -10 -19 -20 -20 -20 -20 -20 -20 -20 5 -20 -20 -20 -20 -15 -20
-20 -20 -20 -20 -20 -20 -20 10 -20 -20 -20 -20 -20 -20 -20 -20 -20 -20 -20 -20 -20 -20 -20 -20 -20 -20 -20 -20 -20 -20 -20 -20 -20 -20 -18 11 -20 -20 -20 -20 17 -20 -20
-20 -20 -20 -20 -20 -15 -12 3 7 -17 -19 -20 -20 -20 -14 5 5 5 -10 -20 -20 -20 -20 -20 -20 -20 -20 -20 -20 -20 -20 -20 -14 -20 14 -20 -20 -20 8 -17 -20 -20 -20
-20 17 7 -20 -7 6 9 10 8 -7 6 7 8 8 7 3 5 10 12 5 -20 -15 -20 -20 -20 -20 -20 -20 -20 -2 8 6 12 12 -5 -15 -12 -20 -20 -20 -20 -20 -20
-20 -15 14 16 -20 10 14 13 -20 -20 -20 -20 2 -16 9 12 13 13 14 11 -15 -3 -8 -20 -20 -20 7 -20 -20 -20 -20 -7 -20 -20 -16 -19 8 -20 -20 -20 -20 -20 -20
-11 -20 -20 -20 -20 6 17 -20 2 5 -5 -20 -20 9 -1 8 11 23 11 -20 -20 -20 -20 -20 -3 -5 5 1 -20 -20 -20 -9 -20 -20 -18 -20 -20 -20 -20 -20 -20 -20 -5
24 32 32 14 -18 23 -6 39 9 32 14 -7 -19 -19 -20 -13 -20 -14 -19 -9 -2 -12 -20 1 22 -10 -18 -19 5 -18 -20 -16 -20 -19 1 -20 -20 -18 -20 -20 -20 -20 -20
45 24 30 29 30 33 34 10 35 34 32 25 24 23 25 26 8 1 1 31 21 -13 -18 -17 -20 -19 36 9 14 -14 -20 -18 -20 -20 -20 5 -20 -17 -20 -20 -20 -20 -20
20 21 -4 20 21 12 27 11 31 32 36 27 25 9 10 36 18 10 3 -17 -9 17 -14 22 -19 16 6 -2 -7 -20 -20 -19 -18 -20 5 8 -13 -20 -20 -20 -20 -20 -20
11 10 23 29 28 2 4 35 12 6 13 3 12 15 28 10 10 10 -14 9 1 1 7 -16 -19 -14 -4 -12 -14 -20 -20 -20 -9 11 4 -7 -20 -20 -1 -20 -20 -20 -20
-20 -20 -17 -14 17 20 8 19 18 18 38 39 26 13 27 -6 2 8 -5 30 12 12 20 8 21 20 -7 10 -20 -20 -20 9 -12 -20 -20 -20 -20 -20 -20 -18 -3 -20 -20
-20 -20 -20 -19 -18 -16 -19 -3 23 30 30 33 30 27 28 -20 -20 7 26 -10 16 -15 6 -2 -18 -20 -13 -15 -9 17 11 -13 -20 -20 -20 -20 -20 -20 -20 -20 -20 -20 -20
-20 -14 12 -5 25 20 13 -6 8 14 -7 7 2 -2 7 23 -20 -7 -20 -10 -1 -5 -11 15 22 -11 3 -14 -20 -14 -20 -20 -20 -20 -20 -20 -20 -20 -20 -20 -20 -20 -20

GFSGL_prec_radar_063.txt.gz
Reflectivity
-20 -20 -20 -20 -20 -20 -20 -20 -20 -20 -20 -20 -20 -20 -20 -20 -20 -20 -20 -20 -20 -20 -20 -20 -20 -20 -20 -20 -20 -20 -20 -20 -20 -20 -20 -20 -20 -20 -20 -20 -20 -20 -20
-20 -20 -20 -20 -20 -20 -20 -20 -20 -20 -20 -20 -20 -20 -20 -20 -20 -20 -20 -20 -20 -20 -20 -20 -20 -20 -20 -20 -20 -20 -20 -20 -20 -20 -20 -20 -20 -20 -20 -20 -20 -20 -20
-20 -20 -20 -20 -20 -20 -20 -20 -20 -20 -20 -20 -20 -20 -20 -20 -20 -20 -20 -20 -20 -20 -20 -20 -20 -20 -20 -20 -20 -20 -20 -20 -20 -20 -20 -20 -20 -20 -20 -20 -20 -20 -20
-20 -20 -20 -20 -20 -20 -20 -20 -20 -20 -20 -20 -20 -20 -20 -20 -20 -20 -20 -20 -20 -20 -20 -20 -20 -20 -20 -20 -20 -20 -20 -20 -20 -20 -20 -20 -20 -20 -20 -20 -20 -20 -20
-20 -20 -20 -20 -20 -20 -20 -20 -20 -20 -20 -20 -20 -20 -20 -20 -20 -20 -20 -20 -20 -20 -20 -20 -20 -20 -20 -20 -20 -20 -20 -20 -20 -20 -20 -20 -20 -20 -20 -20 -20 -20 -20
-20 -20 -20 -20 -20 -20 -20 -20 -20 -20 -20 -20 -20 -20 -20 -20 -20 -20 -20 -20 -20 -20 -20 -20 -20 -20 -20 -20 -20 -20 -20 -20 -20 -20 -20 -20 -20 -20 -20 -20 -20 -20 -20
-20 -20 -20 -20 -20 -20 -20 -20 -20 -20 -20 -20 -20 -20 -20 -20 -20 -20 -20 -20 -20 -20 -20 -20 -20 -20 -20 -20 -20 -20 -20 -20 -20 -20 -20 -20 -20 -20 -20 -20 -20 -20 -20
-20 -20 -20 -20 -20 -20 -20 -20 -20 -20 -20 -20 -20 -20 -20 -20 -20 -20 -20 -20 -20 -20 -20 -20 -20 -20 -20 -20 -20 -20 -20 -20 -20 -20 -20 -20 -20 -20 -20 -20 -20 -20 -20
1 -20 -20 -20 -20 -20 -20 -20 -20 -20 -20 -20 -20 -20 -20 -20 -20 -20 -20 -20 -20 -20 -20 -20 -20 -20 -20 -20 -20 -20 -20 -20 -20 -20 -20 -20 -20 -20 -20 -20 -20 -20 -20
10 -14 -20 -20 -20 -20 -20 -20 -20 -20 -20 -20 -20 -20 -20 -20 -20 -20 -20 -20 -20 -20 -20 -20 -20 -20 -20 -20 -20 -20 -20 -20 -20 -20 -20 -20 -20 -20 -20 -20 -20 -20 -20
12 2 -20 -20 -20 -20 -20 -20 -20 -20 -20 -20 -20 -20 -20 -20 -20 -20 -20 -20 -20 -20 -20 -20 -20 -20 -20 -20 -20 -20 -20 -20 -20 -20 -20 -20 -20 -20 -20 -20 -20 -20 16
4 -4 -20 -20 -20 -20 -20 -20 -20 -20 -20 -20 -20 -20 -20 -20 -20 -20 -20 -20 -20 -20 -20 -20 -20 -20 -20 -20 -20 -20 -20 -20 -20 -20 -20 -20 -20 -20 -20 -20 -20 -20 -5
-20 -20 -20 -20 -20 -20 -20 -20 -20 -20 -20 -20 -20 -20 -20 -20 -20 -20 -20 -20 -20 -20 -20 -20 -20 -20 -20 -20 -20 -20 -20 -20 -20 -20 -20 -20 -20 -20 -20 -20 -20 -20 -20
-20 -20 -20 -20 -20 -20 -20 -20 -20 -20 -20 -20 -20 -20 -20 -20 -20 -20 -20 -20 -20 -20 -20 -20 -20 -20 -17 -17 -20 -20 -20 -20 -20 -20 -20 -20 -20 -20 -20 -20 -20 10 -20
-20 -20 -20 -20 -20 -20 -20 -20 -20 -20 -20 -20 -20 -20 -20 -20 -20 -20 -20 -20 -20 -20 -20 -20 -20 -20 -20 -20 -20 -20 -20 -20 -20 -20 -20 -20 -12 -20 -20 -20 -20 -20 -20
-20 -20 -20 -20 -20 -20 -20 -20 -1 -2 -20 -20 -20 -20 -20 -5 -20 -20 -20 -20 -20 -20 -20 -20 -20 -20 -20 -20 -20 -20 -20 -20 -20 -20 -20 -20 -20 -20 -20 -20 -20 -20 -20
-20 -20 -20 -5 -15 1 -20 -20 -20 -16 0 5 0 -20 -20 -10 5 -14 -1 -20 -19 1 -20 -20 -20 -20 -20 -20 -20 -20 -20 -20 -20 -20 -20 -0 10 5 -11 -20 -20 -20 -20
-20 -20 -20 -15 6 17 16 11 -20 -20 6 -9 1 3 9 9 12 11 12 7 -13 -4 -20 -20 -20 -20 -6 -10 -20 -20 -20 -20 -20 -20 -20 -20 -1 6 -20 -20 -20 -20 -20
-20 -20 -5 -20 -20 7 25 33 11 -4 -9 14 18 13 11 14 13 12 12 -20 -20 -19 -18 -10 16 -8 -9 -10 -20 14 -11 -20 4 -20 -20 -20 -20 -20 -20 -20 -20 -17 -15
-7 7 -11 -20 -15 -13 -20 -20 -3 -17 11 12 -20 17 12 -1 -19 -10 -18 -17 -16 -9 -7 -19 11 41 34 27 -0 -15 7 -17 -8 -18 -20 -20 -20 -20 -20 -20 -20 -20 -20
-19 12 10 -18 -18 -18 -3 -18 34 -19 -4 17 -1 -11 20 34 5 -4 -12 -20 -20 -20 -20 -17 28 49 50 41 38 38 16 10 -13 -20 -12 -20 -20 -20 -20 -20 -20 -20 -20
21 -11 -2 4 36 24 24 26 6 31 18 13 28 8 30 32 14 2 -20 -20 -20 -19 -20 -20 -8 29 40 44 44 31 34 6 18 -20 -20 -20 -20 -20 -8 15 -15 -20 -20
8 24 27 26 47 47 33 29 30 29 16 30 31 27 39 28 23 24 -1 -20 -20 -1 11 -12 -19 -17 -4 28 25 1 4 13 8 -18 -20 -20 -20 -2 -17 -20 -20 -20 -20
-19 34 35 36 24 27 25 24 28 31 28 28 27 40 46 30 28 21 11 24 17 19 18 16 8 -10 -20 -9 6 24 6 -11 -20 -20 -20 -13 12 -11 -20 -20 -20 -20 -19
5 21 18 32 28 20 44 33 32 30 38 34 40 39 33 43 39 28 -2 -6 -20 -18 14 -19 -16 13 -19 -7 7 3 11 -6 -16 -11 -20 -17 -16 -18 -20 -20 -20 -20 -20
9 23 14 -20 -20 -20 -9 1 -13 -8 5 21 20 26 35 32 28 29 21 14 -7 -12 -4 6 -12 -13 9 0 -1 11 -20 -20 -20 -12 -20 -20 -20 -20 -20 -20 -20 -20 -20

GFSGL_prec_radar_066.txt.gz
Reflectivity
-20 -20 -20 -20 -20 -20 -20 -20 -20 -20 -20 -20 -20 -20 -20 -20 -20 -20 -20 -20 -20 -20 -20 -20 -20 -20 -20 -20 -20 -20 -20 -20 -20 -20 -20 -20 -20 -20 -20 -20 -20 -20 -20
-20 -20 -20 -20 -20 -20 -20 -20 -20 -20 -20 -20 -20 -20 -20 -20 -20 -20 -20 -20 -20 -20 -20 -20 -20 -20 -20 -20 -20 -20 -20 -20 -20 -20 -20 -20 -20 -20 -20 -20 -20 -20 -20
-20 -20 -20 -20 -20 -20 -20 -20 -20 -20 -20 -20 -20 -20 -20 -20 -20 -20 -20 -20 -20 -20 -20 -20 -20 -20 -20 -20 -20 -20 -20 -20 -20 -20 -20 -20 -20 -20 -20 -20 -20 -20 -20
-20 -20 -20 -20 -20 -20 -20 -20 -20 -20 -20 -20 -20 -20 -20 -20 -20 -20 -20 -20 -20 -20 -20 -20 -20 -20 -20 -20 -20 -20 -20 -20 -20 -20 -20 -20 -20 -20 -20 -20 -20 -20 -20
-20 -20 -20 -20 -20 -20 -20 -20 -20 -20 -20 -20 -20 -20 -20 -20 -20 -20 -20 -20 -20 -20 -20 -20 -20 -20 -20 -20 -20 -20 -20 -20 -20 -20 -20 -20 -20 -20 -20 -20 -20 -20 -20
-20 -20 -20 -20 -20 -20 -20 -20 -20 -20 -20 -20 -20 -20 -20 -20 -20 -20 -20 -20 -20 -20 -20 -20 -20 -20 -20 -20 -20 -20 -20 -20 -20 -20 -20 -20 -20 -20 -20 -20 -20 -20 -20
-20 -20 -20 -20 -20 -20 -20 -20 -20 -20 -20 -20 -20 -20 -20 -20 -20 -20 -20 -20 -20 -20 -20 -20 -20 -20 -20 -20 -20 -20 -20 -20 -20 -20 -20 -20 -20 -20 -20 -20 -20 -20 -20
-20 -20 -20 -20 -20 -20 -20 -20 -20 -20 -20 -20 -20 -20 -20 -20 -20 -20 -20 -20 -20 -20 -20 -20 -20 -20 -20 -20 -20 -20 -20 -20 -20 -20 -20 -20 -20 -20 -20 -20 -20 -20 -20
-20 -20 -20 -20 -20 -20 -20 -20 -20 -20 -20 -20 -20 -20 -20 -20 -20 -20 -20 -20 -20 -20 -20 -20 -20 -20 -20 -20 -20 -20 -20 -20 -20 -20 -20 -20 -20 -20 -20 -20 -20 -20 -20
-18 -11 -17 -20 -20 -20 -20 -20 -20 -20 -20 -20 -20 -20 -20 -20 -20 -20 -20 -20 -20 -20 -20 -20 -20 -20 -20 -20 -20 -20 -20 -20 -20 -20 -20 -20 -20 -20 -20 -20 -20 -20 -20
14 1 -10 -19 -20 -20 -20 -20 -20 -20 -20 -20 -20 -20 -20 -20 -20 -20 -20 -20 -20 -20 -20 -20 -20 -20 -20 -20 -20 -20 -20 -20 -20 -20 -20 -20 -20 -20 -20 -20 -20 -20 -20
10 3 12 15 -5 -20 -20 -20 -20 -20 -20 -20 -20 -20 -20 -20 -20 -20 -20 -20 -20 -20 -20 -20 -20 -20 -20 -20 -20 -20 -20 -20 -20 -20 -20 -20 -20 -20 -20 -20 -20 -20 -20
-3 4 9 5 -7 -6 -20 -20 -20 -20 -20 -20 -20 -20 -20 -20 -20 -20 -20 -20 -20 -20 -20 -20 -20 -20 -20 -20 -20 -20 -20 -20 -20 -20 -20 -20 -20 -20 -20 -20 -20 -20 -20
23 -4 -11 -20 -20 -7 5 -20 -20 -20 -20 -20 -20 -20 -20 -20 -20 -20 -20 -20 -20 -20 -20 -20 -20 -20 -20 -20 -20 -20 -20 -20 -20 -20 -20 -20 -20 -20 -20 -20 -20 -20 -5
-11 14 9 -13 -10 -13 -16 -12 -20 -20 -20 -20 -20 -20 -20 -20 -20 -20 -20 -20 -20 -20 -20 -20 -20 -20 -20 -20 -20 -20 -20 -20 -20 -20 -20 -20 -20 -20 -20 -20 -9 -17 -20
-20 -1 13 12 14 -4 -20 -20 -4 1 -20 -20 -20 -20 -20 -20 -20 -20 -20 -2 -9 -13 -3 8 -20 -20 -20 -20 -20 -20 -20 -20 -20 -20 -20 -20 -20 -20 -17 13 10 -17 -20
-4 -14 -16 31 2 -10 -15 -20 -20 -19 1 8 0 -20 -20 -20 9 -20 -20 4 14 11 -20 -20 -20 -20 -20 -20 -20 -20 -20 -20 -20 -20 -20 -20 -20 -20 -17 10 -20 -20 -20
-20 -20 -20 -20 -20 -20 11 -19 -20 -20 -20 -20 4 -2 10 7 -7 -18 7 2 -11 2 -20 -20 -20 -20 -20 -20 -19 -18 -13 -20 -19 -13 -20 -20 -7 -2 -13 -20 -20 -20 -20
-20 -20 -20 -20 -20 -9 -20 10 15 -8 -20 9 -20 1 2 7 6 10 13 -6 10 -2 5 -20 -20 -13 -17 -8 -9 4 22 20 23 22 -4 -19 15 17 -20 -20 -20 -20 -20
-20 -20 -7 -11 -19 -20 -20 -20 16 -16 -20 -20 -18 10 -20 -9 -9 -20 -18 18 1 -20 -20 -17 -15 -16 27 -14 -19 -2 6 17 35 39 38 35 -16 -20 -8 -20 -20 -20 -20
-20 -17 19 -3 -20 -20 -20 -20 -15 16 -15 -20 -20 -9 11 31 16 -20 -9 -8 -20 -20 -17 -8 -12 -18 35 8 14 4 29 36 51 45 47 38 33 15 -18 -20 -20 -20 -16
-20 -3 -7 7 -11 -20 -20 -20 -20 -4 -20 -20 -20 19 30 8 17 20 33 19 21 -4 26 -19 -20 -20 -20 5 6 -5 14 35 33 36 46 37 27 18 -2 -20 -13 -16 -10
-13 25 -6 16 -12 16 -3 -5 5 19 -3 -20 23 29 17 3 -0 12 26 20 25 -2 -20 -20 -20 -20 -20 -20 -20 -20 -6 -1 9 11 29 28 22 12 -10 -20 -20 -20 -20
18 27 17 1 14 -11 -20 -20 8 41 47 38 29 27 28 30 27 13 24 30 16 19 -19 -20 -9 -9 -12 -20 -20 -11 -20 -19 8 14 -2 2 6 0 -20 -20 -20 -20 -20
24 14 6 18 17 34 24 -9 -15 -1 24 28 33 30 32 26 29 24 22 27 18 24 29 16 2 -6 -15 1 13 5 20 24 18 30 32 -0 10 -15 -20 -20 -20 -20 -20
24 28 22 7 15 35 36 23 32 42 35 28 34 28 26 20 32 40 35 41 27 35 40 39 23 24 21 24 4 17 17 20 11 16 -15 -20 -20 -20 5 -16 -20 -20 -20

GFSGL_prec_radar_069.txt.gz
Reflectivity
-20 -20 -20 -20 -20 -20 -20 -20 -20 -20 -20 -20 -20 -20 -20 -20 -20 -20 -20 -20 -20 -20 -20 -20 -20 -20 -20 -20 -20 -20 -20 -20 -20 -20 -20 -20 -20 -20 -20 -20 -20 -20 -20
-20 -20 -20 -20 -20 -20 -20 -20 -20 -20 -20 -20 -20 -20 -20 -20 -20 -20 -20 -20 -20 -20 -20 -20 -20 -20 -20 -20 -20 -20 -20 -20 -20 -20 -20 -20 -20 -20 -20 -20 -20 -20 -20
-20 -20 -20 -20 -20 -20 -20 -20 -20 -20 -20 -20 -20 -20 -20 -20 -20 -20 -20 -20 -20 -20 -20 -20 -20 -20 -20 -20 -20 -20 -20 -20 -20 -20 -20 -20 -20 -20 -20 -20 -20 -20 -20
-20 -20 -20 -20 -20 -20 -20 -20 -20 -20 -20 -20 -20 -20 -20 -20 -20 -20 -20 -20 -20 -20 -20 -20 -20 -20 -20 -20 -20 -20 -20 -20 -20 -20 -20 -20 -20 -20 -20 -20 -20 -20 -20
-20 -20 -20 -20 -20 -20 -20 -20 -20 -20 -20 -20 -20 -20 -20 -20 -20 -20 -20 -20 -20 -20 -20 -20 -20 -20 -20 -20 -20 -20 -20 -20 -20 -20 -20 -20 -20 -20 -20 -20 -20 -20 -20
-20 -20 -20 -20 -20 -20 -20 -20 -20 -20 -20 -20 -20 -20 -20 -20 -20 -20 -20 -20 -20 -20 -20 -20 -20 -20 -20 -20 -20 -20 -20 -20 -20 -20 -20 -20 -20 -20 -20 -20 -20 -20 -20
-20 -20 -20 -18 -20 -20 -20 -20 -20 -20 -20 -20 -20 -20 -20 -20 -20 -20 -20 -20 -20 -20 -20 -20 -20 -20 -20 -20 -20 -20 -20 -20 -20 -20 -20 -20 -20 -20 -20 -20 -20 -20 -20
-20 -20 -20 -20 0 15 -20 -20 -20 -20 -20 -20 -20 -20 -20 -20 -20 -20 -20 -20 -20 -20 -20 -20 -20 -20 -20 -20 -20 -20 -20 -20 -20 -20 -20 -20 -20 -20 -20 -20 -20 -20 -20
-20 -20 -20 -20 -20 -20 -20 18 -20 -20 -20 -20 -20 -20 -20 -20 -20 -20 -20 -20 -20 -20 -20 -20 -20 -20 -20 -20 -20 -20 -20 -20 -20 -20 -20 -20 -20 -20 -20 -20 -20 -20 -20
-19 -18 -20 -20 5 -18 -20 -20 -20 -20 -20 -20 -20 -20 -20 -20 -20 -20 -20 -20 -20 -20 -20 -20 -20 -20 -20 -20 -20 -20 -20 -20 -20 -20 -20 -20 -20 -20 -20 -20 -20 -20 -19
-1 -19 -20 -18 -20 -10 -20 -20 -20 -20 -20 -20 -20 -20 -20 -20 -20 -20 -20 -20 -20 -20 -20 -20 -20 -20 -20 -20 -20 -20 -20 -20 -20 -20 -20 -20 -20 -20 -20 -20 -20 -20 -13
23 25 15 -17 31 7 -20 -20 -20 -20 -20 -20 -20 -20 -20 -20 -20 -20 -20 -20 -20 -20 -20 -20 -20 -20 -20 -20 -20 -20 -20 -20 -20 -20 -20 -20 -20 -20 -20 -20 -20 -20 -20
23 23 14 16 16 -18 -4 -20 -15 -20 -20 -20 -20 -20 -20 -20 -20 -20 -20 -20 -20 -20 -20 -20 -20 -20 -20 -20 -20 -20 -20 -20 -20 -20 -20 -20 -20 -20 -20 -20 -20 -20 -20
-0 -3 18 -8 -6 -4 2 -20 -20 -20 -20 -20 -19 -20 -20 -20 -20 -20 -20 -20 -20 -20 -20 -20 -20 -20 -20 -20 -20 -20 -20 -20 -20 -20 -20 -20 -20 -20 -20 -20 -20 -20 -0
-20 7 7 13 14 -20 -16 1 3 -14 -20 -20 -19 -16 9 -20 -20 -20 -20 -20 -20 -20 -20 -20 -20 -20 -20 -20 -20 -20 -20 -20 -20 -20 -20 -20 -20 -20 -20 -20 -20 -20 16
-13 -8 8 2 -16 -19 -20 -20 11 5 -1 -12 -19 -13 -12 -20 -20 -20 -20 3 8 11 -2 -20 -20 -20 -20 -20 -20 -20 -20 -20 -20 -20 -20 -20 -20 -20 -20 -20 -20 14 16
-9 -20 -20 -15 6 -20 -20 -20 -20 -0 7 9 2 -19 -18 -20 -20 -20 6 8 13 14 -18 -20 -20 -20 -20 -20 -20 -20 -20 -20 -20 -20 -20 -20 -20 -20 -19 -20 -20 18 8
-20 -20 -20 -20 -20 -20 -20 -20 -7 1 -14 -7 8 3 10 -20 10 9 9 9 4 8 -5 -20 -20 -20 -20 -20 -20 -20 -20 -20 -20 -20 -20 -20 -20 -13 -10 -19 2 18 -14
-20 -20 -20 -20 -20 -20 -20 -19 -20 -20 -15 -20 -20 2 4 8 6 8 6 15 19 18 0 10 -20 -20 -20 -20 -20 -20 -20 -20 -19 -20 -10 11 16 7 15 18 35 22 15
-20 -20 -20 -20 -20 -20 -20 -20 -20 -20 4 1 -20 -20 -20 -7 -19 -2 23 31 22 20 -15 2 -10 -12 -20 -20 -20 -20 -20 -13 -9 -0 4 -9 22 16 11 14 24 33 35
2 -20 -20 -20 -20 -20 1 13 18 19 -2 9 -19 -10 12 -20 -20 -19 -15 -14 14 -12 -7 -14 -14 -15 -20 -20 -20 -20 -17 -17 -20 -14 7 2 16 21 29 36 34 48 42
-20 -20 -20 -19 -20 -20 15 4 -20 1 5 6 -13 -11 13 -20 -20 -20 -20 -15 -20 -20 -11 32 -5 -9 -5 -3 -20 -20 -20 -20 -20 -20 -20 -20 -7 6 16 40 45 49 39
-20 -20 -20 -20 -20 8 -9 -20 -20 -20 -20 8 -8 -20 -20 -20 -20 -13 -11 3 13 6 17 4 15 17 18 -8 -18 -20 -19 -20 -20 -20 -20 -20 -20 -15 -4 12 36 36 31
-20 -20 -20 -20 -20 -13 -12 11 -19 8 -5 -2 21 21 9 -15 -18 -2 18 24 27 27 5 20 -7 19 23 20 -4 -20 -20 -20 -20 -20 -20 -20 -20 7 28 28 13 7 2
-20 -20 -20 -20 15 13 -8 -2 13 -14 -16 -7 -1 6 26 27 27 13 26 26 29 24 24 24 22 40 34 16 -3 2 19 12 -5 -20 -20 -20 4 -0 27 0 17 -18 -19
-20 -20 -20 -10 23 24 -1 -13 22 31 7 -0 -10 10 19 24 15 25 21 14 15 24 24 26 24 27 31 40 38 23 21 16 30 24 -6 -11 -12 32 19 22 9 -18 -9

GFSGL_prec_radar_072.txt.gz
Reflectivity
-20 -20 -20 -20 -20 -20 -20 -20 -20 -20 -20 -20 -20 -20 -20 -20 -20 -20 -20 -20 -20 -20 -20 -20 -20 -20 -20 -20 -20 -20 -20 -20 -20 -20 -20 -20 -20 -20 -20 -20 -20 -20 -20
-20 -20 -20 -20 -20 -20 -20 -20 -20 -20 -20 -20 -20 -20 -20 -20 -20 -20 -20 -20 -20 -20 -20 -20 -20 -20 -20 -20 -20 -20 -20 -20 -20 -20 -20 -20 -20 -20 -20 -20 -20 -20 -20
-20 -20 -20 -20 -20 -20 -20 -20 -20 -20 -20 -20 -20 -20 -20 -20 -20 -20 -15 -20 -20 -20 -20 -20 -20 -20 -20 -20 -20 -20 -20 -20 -20 -20 -20 -20 -20 -20 -20 -20 -20 -20 -20
-20 -20 -20 -20 -20 -20 -20 -20 -20 -20 -20 -20 -20 -20 -20 -20 -20 -20 -20 -20 -20 -20 -20 -20 -20 -20 -20 -20 -20 -20 -20 -20 -20 -20 -20 -20 -20 -20 -20 -20 -20 -20 -20
-20 -20 -20 -20 -20 -20 -20 -20 -20 -20 -20 -20 -20 -20 -20 -20 -20 -20 -20 -20 -20 -20 -20 -20 -20 -20 -20 -20 -20 -20 -20 -20 -20 -20 -20 -20 -20 -20 -20 -20 -20 -20 -20
-20 -20 -20 -20 -20 -20 -20 -20 -20 -20 -20 -20 -20 -20 -20 -20 -20 -20 -20 -20 -20 -20 -20 -20 -20 -20 -20 -20 -20 -20 -20 -20 -20 -20 -20 -20 -20 -20 -20 -20 -20 -20 -20
-20 -20 -20 -20 -20 -20 -20 -20 -20 -20 -20 -20 -20 -20 -20 -20 -20 -20 -20 -20 -20 -20 -20 -20 -20 -20 -20 -20 -20 -20 -20 -20 -20 -20 -20 -20 -20 -20 -20 -20 -20 -20 -20
-20 -20 -20 -20 -20 -20 -20 -20 -20 -20 -20 -20 -20 -20 -20 -20 -20 -20 -20 -20 -20 -20 -20 -20 -20 -20 -20 -20 -20 -20 -20 -20 -20 -20 -20 -20 -20 -20 -20 -20 -20 -20 -20
-20 -20 -20 -20 -20 -20 -20 -20 -20 -20 -20 -20 -20 -20 -20 -20 -20 -20 -20 -20 -20 -20 -20 -20 -20 -20 -20 -20 -20 -20 -20 -20 -20 -20 -20 -20 -20 -20 -20 -20 -20 -20 -20
-9 -17 -20 -20 -20 -18 -20 -20 20 -20 -20 -20 -20 -20 -20 -20 -20 -20 -20 -20 -20 -20 -20 -20 -20 -20 -20 -20 -20 -20 -20 -20 -20 -20 -20 -19 0 -20 -20 -20 -20 -20 -20
6 25 -20 -12 17 5 -20 -20 -20 -4 24 -20 -20 -20 -20 -20 -20 -20 -20 -20 -20 -20 -20 -20 -20 -20 -20 -20 -20 -20 -20 -20 -20 -20 -20 -20 -20 -20 -20 -20 -20 -20 -20
-20 -14 23 7 -16 16 -1 21 -2 -12 -20 -18 -20 -20 -20 -20 -20 -20 -20 -20 -20 -20 -20 -20 -20 -20 -20 -20 -20 -20 -20 -20 -20 -20 -20 -20 -20 -20 -20 -20 -20 -20 -20
-20 -20 -17 18 -20 -20 -20 -8 3 -20 -20 -20 -18 -20 -20 -20 -20 -20 -20 -20 -20 -20 -20 -20 -20 -20 -20 -20 -20 -20 -20 -19 -20 -20 -20 -20 -20 -20 -20 -20 -20 -20 -20
-20 -20 -20 -20 14 15 -18 -11 -15 -14 -7 -17 -20 -20 -20 -20 -20 -20 -20 -20 -20 -20 -20 -20 -20 -20 -20 -20 -20 -20 -20 -20 -20 -20 -20 -20 -20 -20 -20 -20 -20 -20 -20
-20 -20 -20 -14 -20 -7 -18 -20 -19 -15 -11 -16 -20 -20 -20 -20 -20 -20 -10 -20 -20 -12 6 -20 -20 -20 -20 -20 -20 -20 -20 -20 -20 -20 -20 -20 -20 -20 -20 -20 -20 -20 -20
-20 -20 -19 26 8 14 -5 17 10 -17 -2 8 14 10 -20 -20 -20 -20 15 14 25 13 -13 -20 -20 -20 -20 -20 -20 -20 -20 -20 -20 -20 -20 -20 -20 -20 -20 -20 -20 -20 -20
-20 -20 -9 17 10 16 19 1 -20 -19 -20 4 13 20 -4 -20 -20 -20 2 32 32 14 -14 -20 -20 -20 -20 -20 -15 -20 -20 -20 -20 -20 -20 -20 -20 -20 -19 -20 -20 -20 -20
-20 -20 -20 27 11 2 12 1 -20 1 28 17 10 9 11 -2 -6 14 14 15 -7 3 -15 -2 -17 -20 -20 -20 -20 -20 -20 -20 -20 -20 -20 -20 -20 -20 -20 -20 -20 -20 -20
-20 -20 -20 -16 -17 2 -16 -17 -15 -20 17 -12 2 8 4 8 8 8 7 1 -20 -20 -19 2 3 -12 -20 -20 -20 -20 -20 -20 -19 -20 -20 -20 -20 -20 -20 -20 -2 4 -7
-14 15 10 -20 -15 -17 3 11 15 -20 -20 -12 -20 -14 -17 -1 -9 -20 -20 -20 -20 -20 -20 -20 -13 -20 -20 -20 -20 -16 -20 -17 -20 -20 -20 -20 -20 -20 -20 -20 -16 -10 -6
-5 -20 17 6 -1 -6 -10 -20 -20 -20 -6 9 -4 -15 13 9 -20 -20 -20 -20 -20 -20 -20 -20 -6 -12 5 -20 -20 -19 -9 -19 -20 -20 -20 -20 -20 -20 -3 30 29 17 21
5 3 -20 -20 -20 -20 -9 -17 -20 -20 -20 -18 13 9 12 11 -15 -20 -20 -20 -20 -20 -20 -20 -20 -20 -20 -20 -13 -11 -11 13 -11 -20 -20 -20 -20 -20 -20 29 29 26 24
-20 -20 -3 -15 -20 8 -14 -17 -20 -20 -20 -6 -17 -20 -20 -20 -20 -20 1 12 -9 -20 -20 -20 -20 -20 -20 -20 16 -3 9 4 -1 -2 -13 -20 -18 7 -17 -16 -7 -20 -20
-20 -20 -12 -8 -16 -12 -20 -20 -20 12 -1 -20 -19 -5 8 -1 6 -20 1 17 18 0 7 12 15 -7 21 -13 21 4 11 32 30 4 2 10 12 2 -1 -20 -20 -20 18
-5 -19 -19 -6 10 0 -3 -20 -20 -20 -14 -5 17 0 16 15 17 10 6 16 22 21 10 2 16 15 21 -3 -17 26 22 21 11 -2 9 4 3 -20 -11 -19 -20 -16 -0
10 13 22 9 20 18 -20 -20 10 11 -5 7 13 14 9 18 15 16 18 23 16 17 29 16 17 23 -8 -5 15 22 18 17 -2 9 6 13 32 29 21 23 23 15 26

GFSGL_prec_radar_075.txt.gz
Reflectivity
-20 -20 -20 -20 -20 -20 -20 -20 -20 -20 -20 -20 -20 -20 -20 -20 -20 -20 -20 -20 -20 -20 -20 -20 -20 -20 -20 -20 -20 -20 -20 -20 -20 -20 -20 -20 -20 -20 -20 -20 -20 -20 -20
-20 -20 -20 -20 -20 -20 -20 -20 -20 -20 -20 -20 -20 -20 -20 -20 -20 -20 -20 -20 -20 -20 -20 -20 -20 -20 -20 -20 -20 -20 -20 -20 -20 -20 -20 -20 -20 -20 -20 -20 -20 -20 -20
-20 -20 -20 -20 -20 -20 -20 -20 -20 -20 -20 -20 -20 -20 -20 -20 -20 -20 -20 -19 -20 -20 -20 -20 -20 -20 -20 -20 -20 -20 -20 -20 -20 -20 -20 -20 -20 -20 -20 -20 -20 -20 -20
-20 -20 -20 -20 -20 -20 -20 -20 -20 -20 -20 -20 -20 -20 -20 -20 -20 -20 -20 -20 -20 -20 -20 -20 -20 -20 -20 -20 -20 -20 -20 -20 -20 -20 -20 -20 -20 -20 -20 -20 -20 -20 -20
-20 -20 -20 -20 -19 0 -20 -20 -20 -20 -20 -20 -20 -20 -20 -20 -20 -20 -20 -20 -20 -20 -20 -20 -20 -20 -20 -20 -20 -20 -20 -20 -20 -20 -20 -20 -20 -20 -20 -20 -20 -20 -20
12 -16 -20 -20 -20 -20 -20 -20 -20 -20 -20 -20 -20 -20 -20 -20 -20 -20 -20 -20 -20 -20 -20 -20 -20 -20 -20 -20 -20 -20 -20 -20 -20 -20 -20 -20 -20 -20 -20 -20 -20 -20 -20
-19 23 -14 -20 -20 -20 -20 -20 -20 -20 -20 -20 -20 -20 -20 -20 -20 -20 -20 -20 -20 -20 -20 -20 -20 -20 -20 -20 -20 -12 -20 -20 -20 -20 -20 -20 -20 -20 -20 -20 -20 -17 -20
20 -2 4 -18 -20 -20 -20 -20 -20 -20 -20 -20 -20 -20 -20 -20 -20 -20 -20 -20 -20 -20 -20 -20 -20 -20 -20 -20 -20 -20 -20 -20 -20 -20 -20 -20 -20 -20 -20 -20 -20 -20 -20
-4 7 -20 -0 -20 -20 -20 -20 -20 -20 -20 -20 -20 -20 -20 -20 -20 -20 -20 -20 -20 -20 -20 -20 -20 -20 -20 -20 -20 -20 -20 -20 -20 -20 -20 -20 -20 -20 -11 -20 -20 -20 -20
-15 -5 29 -14 -5 8 2 -6 -3 -5 -20 -20 -20 -20 -20 -20 -20 -20 -20 -20 -20 -20 -20 -20 -20 -20 -20 -20 -20 -20 -20 -20 -20 -20 -20 -0 8 -20 -15 -20 -20 -20 -20
-20 -7 -20 6 3 9 13 15 -18 13 12 -10 -20 -20 -20 -20 -20 -20 -20 -20 -20 -20 -20 -20 -20 -20 -20 -20 -20 -20 -20 -16 -20 -20 -20 -20 -20 -20 -20 -20 -20 -20 -20
-20 -20 -20 -17 8 17 5 -2 -20 12 9 5 2 -10 -20 -20 -20 -20 -20 -20 -20 -20 -20 -20 -20 -20 -20 -20 -0 -20 -20 7 -20 -20 -20 -20 -20 -20 -20 -20 -20 -20 -20
-20 -20 -20 -20 -6 6 27 3 1 -20 -5 7 7 -1 -20 -20 -20 -20 -19 -20 -20 -20 -20 -20 -20 -20 -20 6 -20 -20 3 -18 -20 -20 -20 -20 -20 -20 -20 -20 -20 -20 -20
-20 -20 -20 -20 -20 2 11 25 18 27 -20 -20 -19 2 -14 -20 -20 -20 -20 -19 -12 -20 -20 -20 -20 -16 -20 -20 -20 -4 -20 -20 -20 -20 -20 -20 -20 -20 -20 -20 -20 -20 -20
-20 -20 -20 -20 -20 -20 -20 -20 28 -18 18 16 6 3 9 3 -20 -20 -20 -20 -20 13 10 -20 -20 -20 -20 -11 -17 -20 -20 -20 -20 -20 -20 -20 -20 -20 -20 -20 -20 -20 -20
-20 -20 -20 -20 -20 -20 -20 -20 -20 6 -19 7 17 1 -20 -2 16 -20 9 26 17 32 -13 -20 -20 -20 -1 -20 -20 -20 -20 -20 -20 -20 -20 -20 -20 -20 -20 -20 -20 -20 -20
-20 -20 -20 -20 -20 -20 -20 -20 -20 -20 -20 -20 4 25 4 -15 8 8 37 29 12 32 -20 2 -20 -20 -20 -20 -20 -5 -20 -20 -12 -17 -20 -20 -20 -20 -19 -20 -20 -20 -20
-20 -20 -20 -20 -20 -20 -20 -20 -20 14 -14 1 22 5 -15 6 9 19 15 12 -6 6 -13 -18 -7 -20 -20 -4 -20 -20 -20 -20 -20 -18 -20 -20 -20 -20 -20 -20 -20 -20 -20
-20 -20 -20 -20 -20 -16 -16 -1 -3 -7 -7 -20 -11 24 -4 8 10 12 21 13 23 -10 -20 -18 -20 -14 -20 -20 -2 -10 -20 -20 -20 -19 -17 -20 -20 -20 -20 -20 -20 -12 -5
-20 -13 -4 -20 -19 -5 2 -18 0 5 -14 -20 -17 1 -7 -13 -17 -20 -20 23 32 13 2 -20 -18 -20 -3 -1 4 3 8 7 -20 -20 -16 -8 -8 -18 -14 0 -1 1 -20
-20 -20 -11 3 -10 11 8 -1 10 -6 -7 15 4 -2 -5 9 9 19 12 -20 15 18 6 -1 0 -3 -2 3 8 14 -19 -2 3 -20 -20 3 -6 7 -9 -20 -20 -20 -20
-1 0 -2 2 5 -1 -9 9 -13 -13 -20 -20 -19 -7 -20 -20 2 -1 14 15 -20 -14 -9 -4 28 -19 -20 -20 -20 -20 -2 -20 -20 -20 -20 -18 -14 -17 5 -15 -20 -20 -20
13 4 -19 -19 -7 4 -12 -20 -20 -20 -20 -20 -20 2 -20 -13 3 8 -7 -17 -19 20 8 -20 -20 -20 -20 -20 -10 12 -20 -20 -20 -19 25 12 15 4 2 -5 -14 -1 -8
-1 4 4 4 -20 -12 -20 -20 -20 -1 -12 -20 -20 -19 -20 -20 -20 -20 -20 -4 10 -2 -20 -8 5 16 -20 -20 -19 -20 -20 -20 5 31 -10 12 13 13 -2 6 -1 22 16
11 10 7 -19 -20 -15 -11 -7 -6 -18 -19 -20 -16 -10 -10 -13 0 0 -16 -0 14 8 -1 11 12 9 7 14 -3 -9 17 15 -1 16 25 25 27 23 25 21 20 12 16
13 11 8 4 2 3 -2 -12 -2 -2 -4 -3 -4 16 8 -4 17 10 5 9 16 21 11 12 12 -6 -3 11 22 26 19 25 5 20 6 -20 -3 -12 17 31 23 23 21

GFSGL_prec_radar_078.txt.gz
Reflectivity
-20 -20 -20 -20 -20 -20 -20 -20 -20 -20 -20 -20 -20 8 -20 -20 -20 -20 -20 -20 -20 -20 -20 -20 -20 -20 -20 -20 -20 -20 -20 -20 -20 -20 -20 -20 -20 -20 -20 -20 -20 -20 -20
-20 -20 -20 -20 -20 -20 -20 -20 -20 -20 -20 -20 -20 -19 -20 -20 -20 -20 -20 -20 -20 -20 -20 -20 -20 -20 -20 -20 -20 -20 -20 -20 -20 -20 -20 -20 -20 -20 -20 -20 -20 -20 -20
-20 -20 -20 -20 -20 -20 -20 -20 -20 -20 -20 -20 -20 -20 -20 -20 -20 -20 -20 -20 -20 -20 -20 -20 -20 -20 -20 -20 -20 -20 -20 -20 -20 -20 -20 -20 -20 -20 -20 -20 -20 -20 -20
-20 -20 -20 -20 -20 -20 -20 -20 -20 -20 -20 -20 -20 -20 -20 -20 -20 -6 -20 -20 -20 -20 -20 -20 -20 -20 -20 -20 -20 -20 -20 -20 -20 -20 -20 -20 -20 -20 -20 -20 -20 -20 -20
-20 -20 -20 -20 -20 -20 -20 -20 -20 -20 -20 -20 -20 -20 -20 -20 -20 -5 -20 -20 -20 -20 16 -20 -20 -20 -20 -20 -20 -20 -20 -20 -20 -20 -20 -20 -20 -20 -20 -20 -20 -20 -20
-5 -20 -20 -20 -20 -20 -20 -20 -20 -20 -20 -20 -20 -20 -20 -20 -20 -20 -20 -20 -20 -20 -20 -20 -20 -20 -20 -20 -20 -20 -20 -20 -20 -20 -20 -20 -20 -20 -20 -20 -20 -20 -20
-7 15 -20 -7 -15 -20 -6 -13 -20 -20 -20 -20 -20 -20 -20 -20 -20 -20 -20 -20 -20 -20 -20 -20 -20 -20 -20 -20 -20 -20 -20 -20 -20 -20 -20 -20 -20 -20 -20 -20 -20 -20 -20
-20 -19 4 13 13 8 5 5 2 -20 -20 -20 -20 -20 -20 -20 -20 -20 -20 -20 -20 -20 -20 -20 -20 -20 -20 -20 -20 -20 -20 -20 -20 -20 -20 -20 -20 -20 -20 -20 -20 -20 -20
-20 -20 -20 -20 -5 6 -2 11 23 5 -2 -20 -20 -20 -20 -20 -20 -20 -20 -20 -20 -20 -20 -20 -20 -20 -20 -20 -20 -20 -20 -20 -20 -20 -20 -20 -20 -20 -7 -20 -20 -20 -20
-20 -5 29 29 -7 5 -3 26 29 21 8 7 -20 -20 -20 -20 -20 -20 -20 -20 -20 -20 -20 -20 -20 -20 -20 -20 -20 -20 -20 -20 -20 -20 -20 -20 3 -20 -18 -12 -20 -20 -20
-20 -20 -20 -20 20 9 37 11 19 29 28 27 2 1 -7 -20 -20 -20 -20 -20 -20 -20 -20 -20 -20 -20 -20 -20 -20 -20 -20 -20 -20 -20 -20 -20 -20 -20 -20 -20 -20 -20 -20
-20 -20 -20 -20 -20 9 15 13 18 3 -8 30 29 28 14 9 -20 -20 -20 -6 -20 -20 -20 -20 -20 -20 -20 -20 -20 -20 -20 -3 -20 -20 -20 -20 -20 -20 -20 -20 -20 -20 -20
-20 -20 -20 -20 -20 -20 -20 -15 25 24 -5 8 -20 -20 -15 -19 -18 -20 -20 -20 -20 -20 -20 -20 -20 -20 -20 3 -20 -20 0 -19 -20 -20 -20 -20 -20 -20 -20 -20 -20 -20 -20
-20 -20 -20 -20 -20 -20 -20 -20 -20 -20 -20 -15 -2 26 27 28 16 -20 18 36 4 -4 -20 -20 -20 -20 -11 -16 -11 -2 -20 -20 -20 -20 -20 -20 -20 -20 -20 -20 -20 -20 -20
-20 -20 -20 -20 -20 -20 -20 -20 -20 -20 -18 -20 -3 13 -2 -20 -3 33 33 29 21 -4 34 -20 -20 -20 -20 -20 -20 -20 -20 -20 -20 -20 -20 -20 -20 -20 -20 -20 -20 -20 -20
5 -20 -20 -20 -20 -20 -20 -20 -20 -20 -20 -20 -20 0 29 1 22 27 8 34 35 16 4 -20 -20 -20 -20 -20 -20 -20 -20 -20 -20 -20 -20 -20 -20 -20 -20 -20 -20 -20 -20
-20 5 -20 -20 -20 -20 -20 -20 -20 -20 -20 -20 -20 -4 32 11 -8 21 1 15 35 12 2 -2 -1 -20 -20 -11 -19 -20 -20 -20 -20 -20 -20 -20 -20 -20 -20 -20 -20 -20 -20
-20 -20 -20 -20 -20 -20 -20 -20 -20 -20 -20 -20 -20 -18 3 -12 -3 3 9 13 -11 4 0 1 -11 -17 -16 -20 -20 -7 -20 -20 -9 -8 -2 -20 -20 -20 -20 -20 -20 -20 -20
1 -20 -20 -20 -20 -20 -20 -20 -20 -20 -20 -20 -20 -20 -20 -20 3 -7 -4 -5 33 5 -20 -17 -20 -20 -6 3 6 7 8 -14 2 7 3 6 -6 -20 -20 -20 -20 -20 -20
9 11 10 -18 -20 -20 -20 -20 -20 -20 -20 -20 -20 -20 -20 -20 -17 -6 -17 16 30 -7 -19 3 26 -18 -20 5 7 11 29 9 34 8 1 5 12 3 1 -6 -10 -20 -15
-4 6 18 -1 -2 -20 -20 -20 -19 -17 -20 -20 -20 -20 -20 -20 -20 -20 -20 -18 29 16 2 7 3 9 29 -4 14 -3 30 30 29 -20 -19 17 6 6 -20 -20 6 2 -10
10 -11 1 4 -11 -11 2 -13 -15 -10 -14 -20 -20 -20 -20 -20 -20 -20 -20 -20 -20 3 5 5 -4 -10 -20 20 26 10 -13 -10 -3 14 2 6 10 -9 4 4 2 7 12
7 4 3 10 12 20 8 -14 -14 -20 -7 -8 -13 -16 -20 -20 -20 -9 0 -6 -20 -20 5 17 -20 -13 -20 -17 25 22 13 15 8 15 17 8 0 -9 -14 -9 10 14 12
7 4 10 8 10 3 -6 10 -6 14 -11 -20 -20 -20 0 2 -20 -20 -20 -20 -20 -20 -20 -20 -20 -20 -20 -20 -17 2 30 12 17 11 17 28 15 20 4 17 12 17 18
5 7 7 10 14 10 5 12 -11 -20 -14 -20 -20 -20 -20 -20 -20 -20 -20 -20 -20 -19 -19 -15 14 1 -20 -20 -20 -9 27 2 4 8 -12 -6 8 13 13 14 23 27 20
3 4 1 7 7 12 12 10 12 3 -20 -20 -20 -20 -20 -20 -15 -9 -5 -11 -11 -0 9 12 15 10 -20 -20 -12 13 10 6 -4 -1 -20 -20 -20 -6 4 16 11 10 20

GFSGL_prec_radar_081.txt.gz
Reflectivity
-20 -20 -20 -20 -20 -20 -20 -20 -20 -20 -20 -20 -19 -20 -20 -20 -20 -19 -20 5 -20 -20 -20 -20 -20 -20 -20 -20 -20 -20 -20 -20 -20 -20 -20 -20 -20 -20 -20 -20 -20 -20 -20
-20 -20 -20 -20 -20 -20 -20 -20 -20 -20 -20 -20 -20 -20 -20 -20 -20 -20 -20 -20 -20 -20 -20 -20 -20 -20 -20 -20 -20 -20 -20 -20 -20 -20 -20 -20 -20 -20 -20 -20 -20 -20 -20
-20 -20 -20 -20 -20 -20 -20 -20 -20 -20 -20 -20 -20 -20 -20 -20 -20 -20 -20 -20 -20 -20 -20 -20 -20 -20 -20 -20 -20 -20 -20 -20 -20 -20 -20 -20 -20 -20 -20 -20 -20 -20 -20
3 -20 -20 -20 -20 -20 -20 -20 -20 -20 -20 -20 -20 -20 -20 -20 -20 -20 -20 6 -9 -20 -20 -20 -20 -20 -20 -14 -20 -20 -20 -20 -20 -20 -20 -20 -20 -20 -20 -20 -20 -20 -20
-20 16 -1 -20 -20 -20 -20 -20 -20 -20 -20 -20 -20 -20 -20 -20 -20 -20 -20 -20 17 -20 -20 -20 -20 -20 -20 -20 -20 -20 -20 -20 -20 -20 -20 -20 -20 -20 -20 -20 -20 -20 -20
30 33 -20 21 26 -20 -20 -20 -20 -20 -20 -20 -20 -20 -20 -20 -20 -20 -20 -20 -20 -20 -20 -20 -20 -20 -20 -20 -20 -20 -20 -20 -20 -20 -20 -20 -20 -20 -20 -20 -20 -20 -20
12 -20 -20 -20 -7 5 12 12 4 -20 -20 5 -20 -20 -20 -20 -20 -20 -20 -20 -20 -20 -20 -17 -20 -20 -20 -20 -20 -20 -20 -20 -20 -20 -20 -20 -20 -20 -20 -20 -20 -20 -20
7 -13 -5 -20 -20 -9 0 24 14 13 11 -13 5 6 -6 -20 -20 -20 -20 -20 -20 -20 -20 -16 -20 -20 -20 -20 -20 -20 -20 -20 -20 -20 -20 -20 -20 -20 -20 -20 -20 -20 -20
-20 -20 -8 -13 26 -5 -20 -20 8 27 -12 -1 -14 -16 21 -3 -20 -20 -20 -20 -20 -20 -20 -20 -20 -20 -20 -20 -20 -20 -20 -20 -20 -20 -20 -20 -20 -20 -20 -20 -20 -20 -20
-20 -20 -20 -20 19 6 -20 19 22 24 32 24 -20 -18 -20 27 -5 -20 -20 -20 -20 -20 -20 -20 -20 -20 -20 -20 -20 -20 -20 -20 -20 -20 -20 -20 -20 -20 -20 -20 -20 -20 -20
-20 -20 -20 -20 -20 -8 17 14 -20 -10 5 25 -9 -3 -20 -0 11 -20 -20 -20 -20 -20 -20 -20 -20 -20 -20 -20 -20 -20 -20 -20 -20 -20 -20 -20 -20 -20 -20 -20 -20 -20 -20
-20 -20 -20 -20 -20 -20 -20 -20 -20 8 -18 3 2 -12 -17 28 -20 -7 -20 8 -20 -20 -20 -20 -20 -20 -20 -20 -20 -20 -20 -20 -20 -20 -20 -20 -20 -20 -20 -20 -20 -20 -20
-20 -20 -20 -20 -20 -20 -20 -20 -20 -20 -20 -10 -0 -20 -4 31 14 32 34 -14 26 22 -20 -20 -20 -20 -20 -20 -20 -20 -20 -20 -20 -20 -20 -20 -20 -20 -20 -20 -20 -20 -20
-20 -20 -20 -20 -20 -20 -20 -20 -20 -20 -20 -20 9 9 -19 2 27 35 33 35 31 12 -17 -20 -20 -18 -20 -20 -5 -20 -20 -20 -20 -20 -20 -20 -20 -20 -20 -20 -20 -20 -20
-20 -20 -20 -20 -20 -20 -20 -20 -20 -20 -17 -20 -20 -20 -20 0 21 -1 6 10 6 16 11 8 1 -20 -20 -20 -20 -20 -20 -20 -20 -20 -20 -20 -20 -20 -20 -20 -20 -20 -20
-9 -20 -20 -20 -20 -20 -20 -20 -20 -20 -20 -20 -20 -20 -20 -20 -20 -14 8 21 29 29 21 45 30 30 14 -20 -20 -20 -20 -20 -20 -20 -20 -20 -20 -20 -20 -20 -20 -20 -20
-1 -3 -20 -20 -20 -20 -20 -20 -20 -20 -20 -20 -20 -20 -19 -20 -20 -20 -20 3 8 14 25 17 38 28 31 31 -20 -20 -20 -18 7 -8 -20 -20 -20 -20 -20 -20 -20 -20 -20
-6 -20 -20 -20 -20 -20 -20 -20 -20 -20 -20 -20 -20 -20 -20 -20 -20 -20 -20 -8 -20 -2 -20 16 20 25 -19 31 -8 -19 -20 -13 -13 -20 -20 -20 -20 17 -3 21 -20 -20 -20
-20 -20 -20 -20 -20 -20 -20 -20 -20 -20 -20 -20 -20 -20 -20 -20 -20 -20 -12 -20 -20 3 1 -18 -3 23 17 10 7 9 5 -20 -20 -11 -16 -12 -3 4 -20 -20 -1 -10 -20
-20 -20 -20 -20 -2 2 -16 -19 -20 -20 -20 -20 -20 -20 -20 -20 -20 -20 -20 -20 -15 9 13 -16 16 37 0 -20 -16 16 7 29 -20 27 -13 -20 -20 -6 -5 5 6 -19 19
-20 -20 -15 -8 -19 -4 -2 -19 -20 -20 -20 -20 -20 -20 -20 -20 -20 -20 -20 -20 -20 -15 0 -17 0 3 7 32 20 4 17 29 31 9 -5 -20 29 -16 33 -18 -14 30 -19
-20 -20 -20 -13 -18 7 6 -9 -20 -20 -19 3 -13 -20 -20 -20 -20 -20 -20 -20 -20 -20 -20 -19 -20 -11 -1 -5 -0 24 27 18 33 30 10 -11 -9 7 26 17 -16 -20 -14
-20 -20 -15 -4 5 3 -2 6 -1 -10 -20 -7 -11 -6 -7 -20 -20 -20 -20 -20 -20 -20 -20 -20 -20 -20 -20 5 -4 -20 -20 17 9 6 25 14 12 -8 -20 -9 10 6 12
-20 -10 2 6 8 10 10 7 5 11 7 10 10 -2 -4 0 -11 -17 -20 -20 -20 -20 -20 -20 -20 -20 -20 -20 -18 -19 -20 22 -6 13 -18 -14 -12 11 9 25 14 11 11
-12 -2 -17 3 1 5 11 9 8 8 -1 -20 0 -17 -15 -8 -2 -12 -20 -20 -20 -20 -20 -20 -20 -20 -20 -20 -20 -20 4 7 -17 4 -4 -17 13 13 5 7 -4 8 -5
-12 -5 4 1 1 2 3 5 5 8 8 1 -18 -20 -20 -20 -20 -20 -20 -20 -20 -20 -20 -20 -20 -20 -20 -20 -15 8 -11 5 1 13 -10 -16 -20 -20 -20 -12 2 8 -4

GFSGL_prec_radar_084.txt.gz
Reflectivity
-20 -20 -20 -20 -20 -20 -20 -20 -20 -20 -3 -19 26 16 -20 -20 -20 -7 -4 -20 -12 -20 -20 -20 -20 -20 -20 -20 -20 -20 -20 -20 -20 -20 -20 -20 -20 -20 -20 -20 -20 -20 -20
-20 -20 -20 -20 -20 -20 -20 -20 -20 -20 -20 24 -20 -20 -18 -20 -20 -15 -20 -20 -20 -20 -20 -20 -20 -20 -20 -20 -20 -20 -20 -20 -20 -20 -20 -20 -20 -20 -20 -20 -20 -20 -20
-20 -20 -20 -20 -20 -20 -20 -20 -20 -20 -20 -20 -20 -20 -20 -20 -20 -20 -20 -20 -20 -20 -20 -20 -20 -20 -20 -20 -20 -20 -20 -20 -20 -20 -20 -20 -20 -20 -20 -20 -20 -20 -20
-20 38 23 -16 -20 -20 -20 -20 -20 -20 -20 -20 -20 -20 -20 -20 -20 -20 -20 -20 -20 -20 -20 -20 -20 -20 -20 -20 -20 -20 -20 -20 -20 -20 -20 -20 -20 -20 -20 -20 -20 -20 -20
22 44 35 34 15 -1 4 -20 -12 -12 -20 -20 -20 -20 -18 -20 -20 -20 -20 -20 -20 -20 -20 -20 -20 -20 -20 -20 -20 -20 -20 -20 -20 -20 -20 -20 -20 -20 -20 -20 -20 -20 -20
29 33 31 39 -13 -20 23 23 -11 6 -1 2 -20 -20 -20 -20 -20 -20 -20 -20 -20 -20 -20 -20 -20 -20 7 -15 -20 -20 -20 -20 -20 -20 -20 -20 -20 -20 -20 -20 -20 -20 -20
31 20 24 27 30 -11 -8 -20 -20 -4 28 -1 7 5 -20 -20 -20 -20 -20 -20 -20 -20 -20 -20 -20 -20 -20 -20 -20 -20 -20 -20 -20 -20 -20 -20 -20 -20 -20 -20 -20 -20 -20
12 23 -15 -20 29 18 -20 -18 -20 2 -5 7 -20 -15 -17 -20 -20 -20 -20 -20 -20 -20 -20 -3 -20 -20 -20 -3 -20 -20 -20 -20 -20 -20 -20 -20 -20 -20 -20 -20 -20 -20 -20
-17 9 -15 -20 25 -12 17 -17 -12 -4 -20 -14 14 -20 -12 -20 -20 -20 -20 23 -20 -20 -20 -20 -20 -20 -20 -20 -20 -20 -20 -20 -20 -20 -20 -20 -20 -20 -20 -20 -20 -20 -20
-20 -20 -19 -20 -20 -20 3 15 14 -18 -20 33 -20 -20 -20 -18 -2 -20 -20 -20 -20 -20 -20 -20 -20 -20 -20 -20 -20 -20 -20 -20 -20 -20 -20 -20 -20 -20 -20 -20 -20 -20 -20
-20 -20 -20 -20 -20 -20 -20 -20 -20 -9 1 12 -20 -20 -20 -19 -20 22 -20 9 -7 -20 -20 -20 -20 -20 -20 -20 -20 -20 -20 -20 -20 -20 -20 -20 -20 -20 -20 -20 -20 -20 -20
-20 -20 -20 -20 -20 -20 -20 -20 -20 -20 -20 -20 -20 -20 -20 -18 7 -19 -16 -7 -1 1 -1 10 9 -8 -20 -20 -9 -20 -20 -20 -20 -20 -20 -20 -20 -20 -20 -20 -20 -20 -20
-20 -20 -20 -20 -20 -20 -20 -20 -20 -20 -20 -8 -4 -20 -18 -20 -20 4 32 -7 -13 1 2 -20 -10 -20 -20 -20 -20 -20 -20 -20 -20 -20 -20 -20 -20 -20 -20 -20 -20 -20 -20
-20 -20 -20 -20 -20 -20 -20 -20 -20 -20 -20 -20 -20 -20 -20 -20 -20 -20 -20 -14 11 -9 7 10 2 -6 -20 -20 -20 -20 -20 -20 -20 -20 -20 -20 -20 -20 -20 -20 -20 -20 -20
-20 -20 -20 -20 -20 -20 -20 -20 -20 -20 -20 -20 -20 -20 -20 -20 -20 -20 1 -20 -10 2 15 19 10 -10 -8 -20 -20 -20 -20 -20 -20 -20 -20 -20 -20 -20 -20 -20 -20 -20 -20
-20 -20 -20 -20 -20 -20 -20 -20 -20 -20 -20 -20 -20 -20 -20 -20 -20 -20 -20 -17 0 3 4 -8 8 24 28 1 -20 -20 -13 16 -20 -20 13 -7 11 -20 -20 -20 -20 -20 -20
-20 -20 -20 -20 -20 -20 -20 -20 -20 -20 -20 -20 -20 -20 -20 -20 -20 -20 -20 -20 -14 6 -20 -20 -20 -20 7 22 20 13 21 17 -12 -8 -12 11 -20 -18 -20 -20 -20 -20 -20
-20 -20 -20 -20 -20 -20 -20 -20 -20 -20 -20 -20 -20 -20 -20 -20 -20 -20 -20 -20 -20 -7 -20 -20 -20 -20 -20 -20 0 14 39 11 33 20 14 -17 21 -20 -1 6 -20 -20 4
-20 -20 -20 -20 -20 -20 -20 -20 -20 -20 -20 -20 -20 -20 -20 -20 -20 -20 -20 -20 -20 -20 -20 -20 -20 -20 -20 -6 12 27 34 34 25 42 48 26 12 32 2 20 -20 -20 9
-20 -20 -20 -20 -20 -20 -20 -20 -20 -20 -20 -20 -20 -20 -20 -20 -20 -20 -20 -20 -15 -13 -20 -20 -20 -20 -14 -4 -20 -20 -20 -19 33 29 39 36 -4 -2 1 16 -20 -20 25
-20 -20 -20 -20 -20 -20 -20 -20 -20 -20 -15 -19 -20 -20 -20 -20 -20 -20 -20 -20 -20 -20 -20 -20 -20 -20 5 -6 -3 12 24 20 29 15 35 -3 -3 34 35 -5 -19 -18 -7
-20 -20 -20 -20 -20 -20 -20 -20 -9 -1 3 -4 -11 -17 -20 -20 -20 -20 -20 -20 -20 -20 -20 -8 -20 -20 -20 -20 -20 -20 7 14 21 29 31 18 20 -13 18 35 20 10 3
-20 -20 -20 -20 -20 -20 -20 -20 -18 -2 -1 2 2 1 8 7 -4 -3 -20 -20 -20 -20 -20 -20 -20 -20 -20 -20 -13 -20 -20 -20 -15 9 -14 13 27 29 38 40 36 30 27
-20 -20 -20 -20 -20 -20 -15 -20 -7 -1 5 5 8 6 6 6 11 11 7 -20 -20 -20 -20 -20 -20 -20 -20 -20 -20 -20 -20 -20 -20 -20 -1 -16 -20 -6 20 9 11 -2 8
-20 -20 -20 -20 -11 2 -20 -20 4 5 8 8 9 8 8 9 7 0 6 -17 -17 -20 -20 -20 -20 -20 -20 -20 -20 0 10 11 -11 -20 -20 -20 -20 -20 -20 21 -2 11 7
-20 -20 -20 -18 -17 -8 -3 -9 -0 -4 5 7 8 8 8 5 8 10 4 -15 -20 -20 -20 -20 -20 -20 -20 -20 -15 12 8 -0 -20 -20 -20 -20 -20 -20 -20 14 17 21 11

GFSGL_prec_radar_087.txt.gz
Reflectivity
-20 -20 -20 -20 -20 4 -20 -20 -20 -20 -20 -20 -20 -20 -20 -20 -20 -20 -20 -20 -20 -20 -20 -20 -20 -20 -20 -20 -20 -20 -20 -20 -20 -20 -20 -20 -20 -20 -20 -20 -20 -20 -20
-13 -20 -20 -20 -20 -20 -20 -20 -20 -20 -20 -20 -20 -20 -20 -20 -20 -20 -20 -20 -20 -20 -20 -20 -20 -20 -20 -20 -20 -20 -20 -20 -20 -20 -20 -20 -20 -20 -20 -20 -20 -20 -20
-15 33 33 -10 -13 -20 -20 -20 -20 -20 -20 -20 -20 -20 -20 -20 -20 -20 -20 -20 -20 -20 -20 -20 -20 -20 -20 -20 -20 -20 -20 -20 -20 -20 -20 -20 -20 -20 -20 -20 -20 -20 -20
5 31 23 -13 3 26 -14 -20 -20 -20 -20 -20 -20 -20 -20 -20 -20 -20 -20 -20 -20 -20 -20 -20 -20 -20 -20 -20 -20 -20 -20 -20 -20 -20 -20 -20 -20 -20 -20 -20 -20 -20 -20
35 31 -7 -5 26 11 33 -2 -12 -20 -20 -20 -20 -20 -20 -20 -20 -20 -20 -20 -20 -20 -20 -20 -20 -20 -20 -20 -20 -20 -20 -20 -20 -20 -20 -20 -20 -20 -20 -20 -20 -20 -20
26 29 5 22 26 32 36 28 -20 -9 20 4 -20 -20 -19 -20 -20 -20 -20 -20 -20 -20 -20 -20 -20 -20 -20 -20 -13 -20 -20 -20 -20 -20 -20 -20 -20 -20 -20 -20 -20 -20 -20
26 40 36 33 33 35 33 20 28 -8 -18 -20 -20 -12 -20 17 -16 -20 -20 -20 -20 -20 -20 -20 -20 -20 -20 -20 -20 -20 -20 -20 -20 -20 -20 -20 -20 -20 -20 -20 -20 -20 -20
33 33 28 18 31 24 31 23 21 -11 -18 -20 -20 -20 -20 -20 -20 5 33 -20 -20 -20 -20 -20 -19 -20 -20 -20 -20 -20 -20 -20 -20 -20 -20 -20 -20 -20 -20 -20 -20 -20 -20
23 17 16 1 13 13 5 31 29 13 -20 -20 24 -16 -20 -20 -20 -20 -20 -5 -20 -20 -20 -20 -20 -20 -20 -20 -20 -20 -20 -20 -20 -20 -20 -20 -20 -20 -20 -20 -20 -20 -20
-20 19 14 12 -19 -14 -20 -20 -20 10 15 16 -20 2 16 -20 -20 9 -20 -20 -20 -20 -20 -16 -20 -20 -20 -20 -20 -20 -20 -20 -20 -20 -20 -20 -20 -20 -20 -20 -20 -20 -20
-20 -20 9 23 10 1 -9 -17 -20 -20 -20 -20 -20 -20 2 -5 -12 32 13 -20 -20 -20 -20 -20 -20 -20 -20 -20 -20 -20 -20 -20 -20 -20 -20 -20 -20 -20 -20 -20 -20 -20 -20
-20 -20 -20 -11 15 13 -17 -20 -20 -20 -20 -20 -20 -20 15 -9 1 15 3 -2 -15 -20 -20 -20 -15 4 34 15 -20 -20 -20 -20 -20 -20 -20 -20 -20 -20 -20 -20 -20 -20 -20
-20 -20 -20 -20 -20 -19 -15 -11 -20 -20 -20 -20 -20 -20 -20 -20 -19 11 -17 -20 6 -17 -20 -9 0 31 -18 -20 -20 -20 -20 -20 -20 -20 -20 -20 -20 -20 -20 -20 -20 -20 -20
-20 -20 -20 -20 -20 -20 -20 -20 -20 -20 -20 -20 -20 -20 -20 -20 -20 -20 -20 -20 6 2 3 -18 -13 8 -13 -16 -14 -20 -20 -20 -20 -20 -20 -20 -20 -20 -20 -20 -20 -20 -20
-20 -20 -20 -20 -20 -20 -20 -20 -20 -20 -20 -20 -20 -20 -20 -20 -20 -20 -20 -20 -20 -20 -11 -20 -20 -20 -20 -20 -20 -20 -20 -20 -20 -20 -20 -20 -20 -20 -20 -20 -20 -20 -20
-20 -20 -20 -20 -20 -20 -20 -20 -20 -20 -20 -20 -20 -20 -20 -20 -20 -20 -20 -20 -16 -1 -15 -20 -20 -20 -20 -20 -20 12 8 -3 -18 -20 -20 -11 7 27 -20 -20 -20 -20 -20
-20 -20 -20 -20 -20 -20 -20 -20 -20 -20 -20 -20 -20 -20 -20 -20 -20 -20 -20 -20 -17 -6 -20 -20 -20 -20 -20 -20 -20 -20 -20 -12 0 -20 -20 -20 29 6 4 1 24 28 -20
-20 -20 -20 -20 -20 -20 -20 -20 -20 -20 -20 -20 -20 -20 -20 -20 -20 -20 -20 -3 -20 -10 -20 -20 -20 -20 -20 -20 -20 -20 -20 8 -17 -11 -20 -20 -20 -9 8 18 15 22 32
-20 -20 -20 -20 -20 -20 -20 -20 -20 -20 -20 -20 -20 -20 -20 -20 -20 -20 -20 -20 -20 -20 -20 -20 -20 -20 -12 8 7 9 5 5 -17 7 22 -20 -20 -2 21 34 41 47 33
-20 -20 -20 -20 -20 -20 -20 -20 -20 -20 -20 -20 -20 -20 -20 -20 -20 -20 -20 -20 -20 -20 -20 -20 -20 -20 -20 -20 -7 -19 1 4 8 9 -0 0 -20 15 22 21 31 35 32
-20 -20 -20 -20 -20 -20 -20 -20 -20 -20 -20 -20 -20 -20 -20 -20 -20 -20 -20 -20 -20 -20 -20 -20 -20 -20 -20 -20 -20 -9 -13 -20 -20 7 8 12 26 25 32 44 35 19 28
-20 -20 -20 -20 -20 -20 -20 -20 -20 -20 -20 -20 -20 -20 -20 -20 -20 -20 -20 -20 -20 -20 -20 -20 -20 -20 -20 -20 -20 -20 -20 -20 -20 -20 3 3 9 26 28 16 20 31 26
-20 -20 -20 -20 -20 -20 -20 -20 -20 -20 -20 -20 -20 -20 -20 -20 -20 -20 -13 0 -6 -15 -20 -20 -20 -20 -20 -18 1 -20 -20 -20 -9 -20 -7 7 -17 -20 12 19 11 30 35
-20 -20 -20 -20 -20 -20 -20 -20 -20 -20 -5 -20 -3 -20 -20 -1 0 -8 -16 -1 -20 -20 -19 -15 -15 -20 -20 -20 -20 -20 -20 -20 -20 -20 -20 -20 -20 -14 -20 -20 1 25 8
-20 -20 -20 -20 -20 -20 -20 -20 -20 -20 -20 1 -20 -0 -8 -2 4 5 -4 7 -19 -17 0 -2 11 -15 -20 -20 -20 -20 -5 -6 -20 -14 -9 -20 -20 -20 -20 -20 -20 -20 5
-20 -20 -20 -20 -20 -20 -20 -20 -20 -16 -20 -1 -1 -19 0 -6 4 7 10 8 7 7 7 -3 2 3 -19 -20 -17 -10 -7 -20 -20 -5 1 -19 -20 -20 -20 -18 -20 -20 -20

GFSGL_prec_radar_093.txt.gz
Reflectivity
-20 -20 -20 -20 -20 -20 -20 -20 -16 -20 -20 -20 -20 -20 -20 -20 -20 -20 -20 -20 -20 -20 -18 -20 -20 -20 -20 -20 -20 -20 -20 -20 -20 -20 -20 -20 -20 -20 -20 -20 -20 -20 -20
-20 -20 -20 -20 -20 -20 -5 -20 -20 -20 -18 -20 -20 -20 -20 -20 -20 -20 -20 -20 -20 -20 -20 -20 -20 -20 -20 -20 -20 -20 -20 -20 -20 -20 -20 -20 -20 -20 -20 -20 -20 -20 -20
-16 -20 -20 -20 -20 -20 -20 -20 -20 -20 4 -20 -20 -20 23 -20 -20 -20 -20 -10 15 -20 -20 -20 2 -20 -20 -20 -20 -20 -20 -20 -20 -20 -20 -20 -20 -20 -20 -20 -20 -20 -20
32 7 -1 -12 -20 -20 -20 -20 -16 -19 -20 -20 -20 -20 -20 -20 -20 -20 -20 -20 -20 -20 -20 -20 -20 -20 -20 -20 -20 -20 -20 -20 -20 -20 -20 -20 -20 -20 -20 -20 -20 -20 -20
27 28 5 7 -17 -6 14 31 -20 -11 -13 -20 -20 -20 -20 -20 -20 -20 -20 -20 -20 -20 -20 -20 -20 -20 -20 -20 -20 -20 -20 -20 -20 -20 -20 -20 -20 -20 -20 -20 -20 -20 -20
31 32 31 17 9 -20 -20 -20 -20 -18 2 32 33 -15 -7 -11 -20 -20 -20 -20 -20 -20 -20 -20 -20 -20 -20 -20 -20 -20 -20 -20 -20 -20 -20 -20 -20 -20 -20 -20 -20 -20 -20
9 33 20 17 28 19 9 19 19 13 -5 32 13 11 -12 -19 -14 -0 -10 -20 -20 -10 -20 -20 -20 -20 -20 -20 -20 10 -20 -20 -20 -20 -20 -20 -20 -20 -20 -20 -20 -20 -20
-7 -8 -13 6 21 29 30 26 19 22 22 31 22 24 -7 22 26 -1 -8 1 2 1 -20 -20 -20 -20 -20 -20 -20 -20 -20 -20 -20 -20 -20 -20 -20 -20 -20 -20 -20 -20 -20
-8 19 -3 4 -20 21 37 33 27 35 33 25 10 19 8 16 4 11 -2 -19 -17 -20 -8 -12 -20 -20 -20 -20 -20 -20 -20 -20 -20 -20 -20 -20 -20 -20 -20 -20 -20 -20 -20
-20 -20 -20 -3 -20 -20 14 -3 16 32 28 19 -16 0 20 30 25 23 -14 -20 -20 -20 -20 26 17 1 4 5 -20 -20 -20 -20 -20 -20 -20 -20 -20 -20 -20 -20 -20 -20 -20
-20 -20 -20 -20 -20 -20 -20 -1 -15 19 22 18 11 10 13 14 32 20 -17 -20 -20 -20 -20 -20 -20 15 30 25 13 -19 -18 -16 -18 -18 -20 -20 -20 -20 -20 -20 -20 -0 -14
-20 -20 -20 -20 -20 -20 -20 -20 -2 -4 23 20 18 -5 -6 -3 11 2 6 -5 8 -20 -20 -20 -20 10 17 8 1 -20 6 2 -20 -20 -20 -20 -20 -20 -20 -20 -20 -20 -20
-20 -20 -20 -20 -20 -20 -20 -20 -20 -14 -5 12 27 19 0 -20 -20 -20 -20 -14 -19 13 3 9 19 13 -20 -20 -20 -20 -20 -19 -20 -20 -20 -7 -20 -20 -20 -20 -20 -20 -20
-20 -20 -20 -20 -20 -20 -20 -20 -20 -20 -20 -20 -20 -13 21 15 -15 -19 -20 -20 -20 -20 -20 -20 -20 -20 -20 -20 -20 -20 -20 -20 -20 -20 -20 -20 -20 -20 -20 25 -20 19 -20
-20 -20 -20 -20 -20 -20 -20 -20 -20 -20 -20 -20 -20 -20 -20 -20 11 8 -6 -12 -20 -20 -14 -20 -20 -20 -20 -20 -20 -20 -20 -20 -20 -20 -19 -20 -20 -20 -20 -20 -20 -20 -20
-20 -20 -20 -20 -20 -20 -20 -20 -20 -20 -20 -20 -20 -20 -20 -20 -20 -20 -12 -17 -20 -17 -20 -20 -20 -20 -20 -20 -20 -20 -20 -20 -20 -20 -20 -20 1 6 6 -10 -20 -20 -20
-20 -20 -20 -20 -20 -20 -20 -20 -20 -20 -20 -20 -20 -20 -20 -20 -20 -20 -20 -20 -20 -15 -20 -20 -20 -20 -20 -20 -20 -20 -20 -20 -20 1 6 6 2 14 -1 -5 -17 12 5
-20 -20 -20 -20 -20 -20 -20 -20 -20 -20 -20 -20 -20 -20 -20 -20 -20 -20 -20 -20 -20 -20 -20 -20 -20 -20 -20 -20 -20 -20 -20 8 -1 -20 5 2 1 -4 -0 10 18 12 -2
-20 -20 -20 -20 -20 -20 -20 -20 -20 -20 -20 -20 -20 -20 -20 -20 -20 -20 -20 -20 -20 -20 -20 -20 -20 -20 -20 -6 -12 -19 -20 -17 7 -20 -20 -20 -20 -20 -20 -4 -11 -4 5
-20 -20 -20 -20 -20 -20 -20 -20 -20 -20 -20 -20 -20 -20 -20 -20 -20 -20 -20 -20 -20 -20 -20 -20 -20 -20 -20 -20 -20 -20 -2 1 1 5 2 -20 -20 -20 -20 -20 -20 -20 -4
-20 -20 -20 -20 -20 -20 -20 -20 -20 -20 -20 -20 -20 -20 -20 -20 -20 -20 -20 -20 -20 -20 -20 -20 -20 -20 -20 -12 -18 -20 1 -20 11 8 5 -20 -19 -20 -20 -20 -20 -20 -20
-20 -20 -20 -20 -20 -20 -20 -20 -20 -20 -20 -20 -20 -20 -20 -20 -20 -20 -20 -20 -20 -20 -20 -20 -5 -16 -20 -8 -18 -6 4 12 14 12 1 -7 2 -15 -20 -20 -20 -20 -20
-20 -20 -20 -20 -20 -20 -20 -20 -20 -20 -20 -20 -20 -20 -20 -20 -20 -20 -20 -20 -20 -20 -20 -20 -20 -20 -20 -17 -20 -19 -1 -6 -7 -2 -13 9 2 3 5 2 -20 -20 -20
-20 -20 -20 -20 -20 -20 -20 -20 -20 -20 -20 -20 -20 -20 -20 -20 -20 -20 -20 -20 -20 -13 -20 -20 -20 -15 -2 -9 -7 6 6 -16 -17 -18 -6 6 10 8 1 -13 -17 -20 -20
-20 -20 -20 -20 -20 -20 -20 -20 -20 -20 -20 -20 -20 -20 -20 -20 -20 -20 -18 -19 -20 -20 -20 -20 -20 -3 3 3 4 4 0 -14 -6 11 19 13 6 -2 -20 -20 -13 -4 -5
-20 -20 -20 -20 -20 -20 -20 -20 -20 -20 -20 -20 -20 -20 -20 -20 -20 -20 -20 -20 -20 -20 -20 -20 -8 -12 -11 -6 5 1 -10 -20 -20 -17 -9 -4 -14 -20 -20 -20 -20 6 14

GFSGL_prec_radar_096.txt.gz
Reflectivity
-20 -20 -20 -20 -20 -20 -20 -20 -20 -20 -10 -20 -20 7 -17 -20 -20 -20 11 -20 -20 -20 -20 -20 -20 -20 -20 -20 -20 -20 -20 -20 -20 -20 -20 -20 -20 -20 -20 -20 -20 -20 -20
-20 -20 -20 -20 -20 -20 17 -20 -20 -20 -19 27 -20 -20 -20 -17 -20 -20 -20 -13 -20 -20 -20 -20 -20 -20 -20 -20 -20 -20 -20 -20 -20 -20 -20 -20 -20 -20 -20 -20 -20 -20 -20
29 17 -15 -20 -20 -20 -20 -20 -20 -20 -20 -20 -20 -14 -20 -20 -20 -20 -20 -20 -20 -20 -3 -20 -1 -20 -20 -20 -20 -20 -20 -20 -20 -20 -20 -20 -20 -20 -20 -20 -20 -20 -20
34 30 31 -20 -20 -20 -20 -20 -20 -19 -20 -20 -20 -20 -20 -20 -20 -20 -20 -20 -20 -20 -20 1 -20 -20 -19 -20 -20 -20 -20 -20 -20 -20 -20 -20 -20 -20 -20 -20 -20 -20 -20
33 28 -11 -20 -14 -11 -12 -20 -18 -6 -20 -7 -3 -20 -20 -20 -20 -20 -20 -20 -20 -20 -20 -20 -20 -20 -20 -9 -20 10 -20 -20 -20 -20 2 -20 -20 -20 -20 -20 -20 -20 -20
25 -6 8 19 4 -20 13 -20 -20 -20 -20 -20 -20 31 -7 -20 -19 -20 -20 -20 -20 -20 -20 -20 -20 -20 -20 -20 -20 -20 -20 -20 -20 -20 -20 -20 -20 -20 -20 -20 -20 -20 -20
-20 -20 -8 21 14 11 19 3 -20 -20 -20 -20 -20 -20 -13 5 11 5 -5 -19 -20 -10 -6 -20 -20 -20 -20 -20 18 -20 -20 -20 -20 -20 -20 -20 -20 -20 -20 -20 -20 -20 -20
-20 -20 -17 6 15 9 19 12 -1 -20 -20 -20 -20 -20 -9 14 17 3 19 6 -17 -20 -20 -20 -20 -3 -8 -18 -20 -20 -20 -20 -20 -20 -20 -20 -20 -20 -20 -20 -20 -20 -20
-20 -18 -9 1 -8 2 -20 8 -14 -4 -4 -20 -7 -20 9 -16 -20 28 -8 -14 -5 -6 -12 -20 2 -3 24 16 -20 -20 -20 -20 -20 -20 -20 -20 -20 -20 -20 -20 -20 -20 -20
-20 -20 4 10 10 -20 -20 -20 -17 25 31 28 23 21 15 13 13 16 18 -8 13 33 -16 27 9 -20 24 23 24 -20 -20 35 -18 -20 -20 -20 -20 -20 -20 -20 -20 -20 -20
-20 -20 -20 -20 -19 10 5 6 -17 -14 -8 12 4 11 24 28 26 24 15 20 15 27 -4 -20 -20 -20 23 21 2 -20 -20 -20 -20 -20 -20 -20 -20 -20 -20 -20 -20 -20 -20
-20 -20 -20 -20 -20 -20 -16 -7 9 1 -20 -18 2 -14 -12 17 -7 1 17 24 28 23 -6 -3 -8 -18 -20 -20 -14 -20 -20 -15 -20 -20 -20 -20 -20 -20 -20 -20 -20 -20 -20
-20 -20 -20 -20 -20 -20 -20 -20 -20 -9 6 -18 -20 -17 5 2 -1 -18 -16 -8 19 22 -20 -20 -20 -5 -20 -20 -20 -20 -20 -20 -20 -20 -20 -20 -20 -20 -20 -20 -20 -20 -20
-20 -20 -20 -20 -20 -20 -20 -20 -20 -20 -20 -14 -14 -20 -20 -4 -9 2 4 -17 -4 0 -20 -20 -20 -20 -20 -20 -20 -20 -20 -20 -20 -20 -18 -0 3 -0 -5 7 9 8 -20
-20 -20 -20 -20 -20 -20 -20 -20 -20 -20 -20 -20 -20 -15 -20 -20 -9 5 7 8 10 2 -6 -20 -20 -20 -20 -20 -20 -20 -20 -20 -20 -9 -20 -13 -10 -20 -10 3 11 -17 9
-20 -20 -20 -20 -20 -20 -20 -20 -20 -20 -20 -20 -20 -20 -20 -20 -20 -20 -20 -14 -19 -1 1 6 -2 -12 -20 -20 -20 -20 -20 -20 -20 0 -12 2 11 7 -12 3 -3 10 9
-20 -20 -20 -20 -20 -20 -20 -20 -20 -20 -20 -20 -20 -20 -20 -20 -20 -20 -20 -20 -20 -20 -20 -20 -15 -6 6 5 3 3 6 -8 -14 -20 12 6 2 -20 -1 5 2 -5 -19
-20 -20 -20 -20 -20 -20 -20 -20 -20 -20 -20 -20 -20 -20 -20 -20 -20 -20 -20 -20 -20 -20 -20 -20 -20 -20 -20 -20 -13 -1 -8 -18 -20 -13 -4 -13 5 1 -11 -7 -20 1 -8
-20 -20 -20 -20 -20 -20 -20 -20 -20 -20 -20 -20 -20 -20 -20 -20 -20 -20 -20 -20 -20 -20 -20 -20 -20 -20 -20 -20 -20 -12 -6 -2 -1 11 12 -6 -12 -5 -4 -20 -20 -20 -5
-20 -20 -20 -20 -20 -20 -20 -20 -20 -20 -20 -20 -20 -20 -20 -20 -20 -20 -20 -20 -20 -20 -20 -20 -20 -20 -20 -20 -20 -20 -20 -12 -15 -3 1 -3 -15 -20 3 -4 -7 -10 -20
-20 -20 -20 -20 -20 -20 -20 -20 -20 -20 -20 -20 -20 -20 -20 -20 -20 -20 -20 -20 -20 -20 -20 -20 -20 -20 -20 -20 -13 -16 -20 -20 -17 -4 -5 -20 15 11 -18 -8 -9 3 -1
-20 -20 -20 -20 -20 -20 -20 -20 -20 -20 -20 -20 -20 -20 -20 -20 -20 -20 -20 -20 -20 -20 -20 -20 -20 -20 -20 -9 -3 -3 2 7 5 -10 2 11 11 9 -1 0 1 1 9
-20 -20 -20 -20 -20 -20 -20 -20 -20 -20 -20 -20 -20 -20 -20 -20 -20 -20 -20 -20 -20 -20 -20 -20 -20 -20 -20 -20 -8 1 3 6 9 10 11 9 3 -5 -17 -3 -7 6 -4
-20 -20 -20 -20 -20 -20 -20 -20 -20 -20 -20 -20 -20 -20 -20 -20 -20 -20 -20 -20 -20 -20 -20 -20 -20 -20 -20 -20 -12 -3 2 4 7 9 8 9 5 -16 -7 7 12 14 15
-20 -20 -20 -20 -20 -20 -20 -20 -20 -20 -20 -20 -20 -20 -20 -20 -20 -20 -20 -20 -20 -20 -20 -20 -20 -2 -20 -20 -20 -20 5 -0 -3 7 -8 -20 -16 -17 -20 -20 -20 -20 -5
-20 -20 -20 -20 -20 -20 -20 -20 -20 -20 -20 -20 -20 -20 -20 -20 -20 -20 -20 -20 -20 -20 -20 -20 -14 -14 -17 -20 -20 -16 -1 7 6 5 7 -19 -17 -14 -15 -17 -19 -17 -14

GFSGL_prec_radar_102.txt.gz
Reflectivity
-20 -20 -20 -20 -20 -20 -20 -20 -20 -20 18 -20 -8 -20 18 -13 -20 -20 -20 -20 -20 -20 -20 -20 -20 -20 -20 -20 -20 -20 -20 -20 -20 -20 -20 -20 -20 -20 -20 -20 -20 -20 -20
-20 -20 2 -20 -20 -20 -20 -20 -20 -20 -17 -20 -20 -17 -19 -20 33 -20 -20 -20 -20 -20 -20 -20 -20 -20 -20 -20 -20 -20 -20 -20 -20 -20 -20 -20 -20 -20 -20 -20 -20 -20 -20
2 -19 13 -20 -20 -20 -20 -20 -18 -20 -20 -20 -8 3 -20 -20 16 -20 -20 -20 -20 -20 -20 -20 -20 -20 -20 -20 -20 -20 -20 -20 -20 -20 -20 -20 -20 -20 -20 -20 -20 -20 -20
10 21 -20 -20 -20 -20 -20 -20 -18 -20 -13 -20 -20 -20 -20 -20 -20 -20 -20 -20 -20 -20 -20 -20 -20 -20 -20 -20 -20 -8 -20 -5 -20 -20 -20 -20 -20 -20 -20 -20 -20 -20 -20
28 -20 -18 -4 -20 -13 -5 7 -4 -20 -20 -17 -1 -20 -20 -20 -20 -20 -20 -20 -20 -20 -20 -20 -20 11 -20 -9 -20 -10 -20 15 -20 -20 -20 -20 -20 -20 -20 -20 -20 -20 -20
20 17 30 22 -10 -15 -11 25 1 4 2 -20 -15 5 21 27 -20 -20 6 -20 -0 21 7 -20 -20 -20 -4 -20 -20 -20 -10 30 -20 -20 -20 -20 -20 -20 -20 -20 -20 -20 -20
-17 7 23 33 31 28 27 10 24 18 -3 -20 -16 0 -20 -20 -15 -15 -20 -14 9 -14 5 3 2 -20 -20 -20 -20 -20 -5 -20 -20 -19 -17 -6 -15 -7 -19 3 -9 -1 -20
11 10 17 13 4 22 25 28 24 16 -20 21 -9 -20 -20 -19 -8 -2 -20 -11 -20 -9 -1 21 -20 -20 -12 -20 -20 -20 -20 -20 20 6 9 -13 -12 -19 -19 -8 -11 7 -17
-20 -10 -6 -19 12 34 37 24 20 17 26 -19 -20 -20 -20 -20 -20 -18 -20 -19 -20 -20 -20 -8 -17 -20 -20 -18 -20 -20 -20 -20 -20 -20 -20 -19 -20 -20 -9 -20 -20 23 7
-1 -14 -20 1 20 9 3 -20 -11 11 -1 -20 -20 -20 -20 -20 -20 -20 -18 -20 -20 -20 -20 -20 -20 -20 3 -20 -20 -20 -20 -20 -20 -20 -20 -20 -20 -20 -20 -13 4 -18 -8
-20 9 -20 -20 -20 -20 -20 -20 -6 -20 -10 3 -14 -20 -8 5 22 12 -18 -20 -20 -20 -20 -20 -20 -20 -20 -20 -3 -17 -20 -14 -20 -20 -20 -20 -20 -20 -20 -20 -20 -0 -14
20 -13 -20 -20 -20 -20 -20 -13 -13 -2 -11 -20 -20 -15 -18 -15 -7 -20 -4 -13 -20 -20 -20 3 2 -14 -20 -20 -20 -20 -20 -20 -20 -20 -20 -20 -20 -20 -20 -20 -20 -5 -1
-16 -20 -20 -20 -20 -20 -20 -20 -20 -20 -20 -20 -20 -20 -19 -2 4 0 -17 -20 -20 -16 -6 8 10 11 -20 -20 -20 -20 -20 -20 -20 -20 -20 -20 -20 -20 -20 -20 -20 -20 -20
-20 -20 -20 -20 -20 -20 -20 -20 -20 -20 -20 -20 -20 -20 -20 -20 -20 -13 5 7 -12 -19 -1 -13 -20 -20 -20 -20 -20 -20 -20 -20 -20 -20 -20 -20 -20 -20 -20 -20 -20 -20 -20
-20 -20 -20 -20 -20 -20 -20 -20 -20 -20 -20 -20 -20 -20 -20 -20 -20 -20 -20 -20 -15 5 -5 5 7 -18 -20 -20 -20 -20 -20 -20 -20 -20 -20 -20 -20 -20 -20 -20 -20 -20 -20
-20 -20 -20 -20 -20 -20 -20 -20 -20 -20 -20 -20 -20 -20 -20 -20 -20 -20 -20 -20 -20 -20 -20 -20 -19 -4 -8 1 -8 -10 -11 -5 -20 -20 -20 -20 -20 -20 -20 -20 -20 -20 -20
-20 -20 -20 -20 -20 -20 -20 -20 -20 -20 -20 -20 -20 -20 -20 -20 -20 -20 -20 -20 -20 -20 -20 -20 -20 -20 -20 -19 -15 -20 -20 -20 -20 -20 -2 -5 -20 -20 -20 -20 -20 -20 -20
-20 -20 -20 -20 -20 -20 -20 -20 -20 -20 -20 -20 -20 -20 -20 -20 -20 -20 -20 -20 -20 -20 -20 -20 -20 -20 -20 -20 -20 -20 -20 -20 -20 -20 -20 -20 -15 -9 -4 -1 -16 -20 -20
-1 -6 -14 -4 -6 -20 -20 -20 -20 -20 -20 -20 -20 -20 -20 -20 -20 -20 -20 -20 -20 -20 -20 -20 -20 -20 -20 -20 -20 -20 -20 -20 -20 -20 -20 -20 -20 -20 -20 -20 -19 -15 -20
6 9 25 21 17 -13 -17 -20 -20 -20 -20 -20 -20 -20 -20 -20 -20 -20 -20 -20 -20 -20 -20 -20 -20 -20 -20 -20 -20 -20 -20 -20 -20 -20 -20 -20 -20 -20 -20 -20 -20 -20 -20
10 14 17 16 5 -20 -20 -20 -20 -20 -20 -20 -20 -11 -20 -20 -20 -20 -20 -20 -20 -20 -20 -20 -20 -20 -20 -20 -20 -20 -20 -20 -20 -20 -20 -20 -20 -20 -20 -20 -20 -20 -20
-9 -6 -4 7 -10 -20 -18 -17 -20 -20 -20 -20 -20 -20 -20 -20 -20 -20 -20 -20 -20 -20 -20 -20 -20 -20 -20 -20 -20 -20 -20 -20 -20 -20 -20 -20 -20 -20 -20 -20 -20 -20 -20
-20 -20 -20 -20 -20 -20 -20 -20 -20 -20 -20 -20 -20 -20 -20 -20 -20 -20 -20 -20 -20 -20 -20 -20 -20 -20 -20 -20 -20 -20 -20 -20 -20 -14 -5 -1 -2 -3 -3 -7 -13 -9 -1
-20 -20 -20 -20 -20 -20 -20 -20 -20 -20 -20 -20 -20 -20 -20 -20 -20 -20 -20 -20 -20 -20 -20 -20 -20 -20 -20 -20 -20 -20 -20 -20 -14 -5 -1 1 -17 4 -15 5 3 -16 -4
-1 -20 -20 -20 -20 -20 -20 -20 -20 -20 -20 -20 -20 -20 -20 -20 -20 -20 -20 -20 -20 -20 -20 -20 -20 -20 -20 -20 -20 -2 -20 -20 -13 -13 -18 -2 -2 -20 -16 -19 1 -5 -3
-5 16 -9 -20 -20 -20 -20 -20 -20 -20 -20 -20 -20 -20 -20 -20 -20 -20 -20 -20 -20 -20 -20 -20 -20 -20 -20 -20 -20 -20 -20 -20 -20 -20 -20 -20 -20 -19 -20 -20 -20 -20 -20

GFSGL_prec_radar_105.txt.gz
Reflectivity
-20 -20 -20 -20 -20 -20 -20 -20 -20 -20 -20 -20 -15 -20 -19 -20 -20 -20 -20 19 -20 -20 -20 -20 -20 -20 -20 -20 -20 -20 -20 -20 -20 -20 -20 -20 -20 -20 -20 -20 -20 -20 -20
-16 -20 -20 -20 -20 -20 -20 -20 -20 -20 -19 -20 -20 -20 -20 -20 -20 -8 -20 -20 -20 -20 -20 -20 -20 -20 -20 -20 -20 -20 -20 -20 -20 -20 -20 -20 -20 -20 -20 -20 -20 -20 -20
-20 9 -14 -20 -20 -20 -20 -20 -20 -20 -20 -20 -20 -20 -20 -20 -20 -20 -20 -20 -20 -20 -20 -20 -20 -20 -20 -20 -20 -20 -20 -20 8 -20 -20 -20 -20 -20 -20 -20 -20 -20 -20
23 11 -11 -5 -20 -20 -20 -20 -20 -20 -20 -20 -12 -6 -20 -20 -20 -20 -20 -20 -20 -20 -20 0 -16 -14 -20 -20 -20 4 -17 -20 -20 -20 -16 3 -20 23 -14 -20 -20 -20 -20
35 23 22 18 17 16 -20 -9 -20 -20 -20 -20 -20 -19 -1 -1 -20 -20 -20 -20 -20 -20 -20 -20 -17 13 -20 -20 -20 -11 -20 -12 -20 -20 -20 -20 -20 -20 -20 -20 -20 -20 -20
-1 -7 18 27 19 30 11 -16 -20 -19 -20 -20 -20 -19 -19 21 -16 -20 7 -20 10 -20 -20 -20 -20 -19 -20 -20 -20 -20 -0 -20 -20 -20 -20 -20 -20 -20 -20 -20 -20 -20 -20
-16 -10 -3 -8 -10 8 3 33 30 -2 4 25 -20 6 2 27 -20 -20 -9 -20 17 -8 -7 -20 -13 -10 -20 -20 -20 -20 -20 -20 -20 -19 -8 -7 3 -20 -8 7 -4 16 0
2 14 1 -20 10 9 6 26 30 24 29 15 12 28 -12 -19 -8 -11 -19 -20 2 -12 8 -20 -20 -20 -20 -20 -20 -20 -20 -12 -4 -2 -2 -12 -16 -20 -20 -20 -20 -20 -13
6 23 7 30 8 -9 -3 8 19 19 21 18 1 20 -17 -20 -20 -16 -6 -16 -19 -20 -20 -20 -20 -20 -20 -20 -20 -20 -20 -20 -20 -20 -20 -20 -20 -20 -20 -20 -20 -14 26
-20 -8 -14 1 -20 -7 3 26 -10 -11 21 23 26 12 -20 -20 -20 -20 -20 -20 -7 -20 -16 -20 -20 -20 -20 -20 -20 -20 -20 -20 -20 -20 -20 -20 -20 -20 -18 -20 -14 -20 -20
19 2 -20 -20 -13 15 1 2 -20 -19 -20 -6 -10 -20 -20 -20 -20 -5 -1 -20 -11 -17 -20 -20 -20 -20 -20 -20 -20 -20 -20 -20 -20 -20 -20 -20 -20 -20 -20 -20 -20 -20 -20
19 21 -17 -20 -19 10 6 -20 -12 -15 9 2 -16 -20 -20 3 -20 -20 0 10 6 -15 -20 -20 -20 -20 -20 -20 -18 -7 -19 -7 -20 -20 -20 -20 -20 -20 -20 -20 -13 -20 -20
21 28 -4 -20 -20 1 -4 -0 -20 -11 -20 -20 -9 -17 -20 -20 1 -5 -16 -20 -20 -20 -20 -20 -20 -20 1 -14 19 -14 -20 -20 -20 -20 -20 -20 -20 -20 -20 -20 -20 -20 -20
14 16 11 -16 -20 -20 -20 -20 -20 -20 -20 -20 -20 -20 -20 -20 -20 -20 -20 -20 -18 -7 9 7 9 -0 -20 -20 -20 -20 -20 -20 -20 -20 -20 -20 -20 -20 -20 -20 -20 -20 -20
11 10 -11 -20 -18 -20 -20 -20 -20 -20 -20 -20 -20 -20 -20 -20 -20 -20 -20 -20 -20 -20 -20 -20 -20 -16 -2 5 -1 -15 -8 -14 -20 -20 -20 -20 -20 -20 -20 -20 -20 -20 -20
-10 7 1 -20 -20 -20 -20 -20 -20 -20 -20 -20 -20 -20 -20 -20 -20 -20 -20 -20 -20 -20 -20 -20 -20 -20 -20 -20 -20 -17 -20 -15 -7 -2 -3 -0 -9 -19 -20 -20 -20 -20 -20
9 0 -17 0 -20 -20 -20 -20 -20 -20 -20 -20 -20 -20 -20 -20 -20 -20 -20 -20 -20 -20 -20 -20 -20 -20 -20 -20 -20 -20 -20 -20 -20 -20 -20 -20 -20 -12 -10 -20 -20 -20 -20
-2 12 -4 -20 -13 -20 -20 -20 -20 -20 -20 -20 -20 -20 -20 -20 -20 -20 -20 -20 -20 -20 -20 -20 -20 -20 -20 -20 -20 -20 -20 -20 -20 -20 -20 -20 -20 -20 -20 -20 -20 -20 -20
-10 5 0 15 -0 3 -15 -20 -20 -20 -20 -20 -20 -20 -20 -20 -20 -20 -20 -20 -20 -20 -20 -20 -20 -20 -20 -20 -20 -20 -20 -20 -20 -20 -20 -20 -20 -20 -20 -20 -20 -20 -20
23 13 20 18 -20 -4 -20 -20 -20 -20 -20 -20 -20 -20 -20 -20 -20 -20 -20 -20 -20 -20 -20 -20 -20 -20 -20 -20 -20 -20 -20 -20 -20 -20 -20 -20 -20 -20 -20 -20 -20 -20 -20
27 17 9 10 11 9 2 -2 7 0 -0 9 16 14 10 -20 -20 -20 -20 -20 -20 -20 -20 -20 -20 -20 -20 -20 -20 -20 -20 -20 -20 -20 -20 -20 -20 -20 -20 -20 -20 -20 -20
-17 -7 2 6 -7 -3 10 13 8 -4 -4 9 14 15 16 4 -20 -20 -20 -20 -20 -20 -20 -20 -20 -20 -20 -20 -20 -20 -20 -20 -20 -20 -20 -20 -20 -20 -20 -20 -20 -20 -20
-20 -17 -8 -15 -13 -6 -8 -6 -4 -7 -8 -8 -7 -4 7 0 -18 -20 -20 -20 -20 -20 -20 -20 -20 -20 -20 -20 -20 -20 -20 -20 -20 -20 -20 -20 -20 -20 -20 -20 -20 -20 -20
-20 -20 -20 -20 -20 -13 -16 -20 -20 -19 -12 -19 -10 -17 -20 -19 -20 -20 -20 -20 -20 -20 -20 -20 -20 -20 -20 -20 -20 -20 -20 -20 -20 -20 -20 -20 -20 -8 -18 -20 -7 -10 -6
-20 -20 -20 -20 -20 -20 -20 -19 -20 -20 -20 -20 -20 -20 -20 -20 -20 -20 -20 -20 -20 -20 -20 -20 -20 -20 -20 -20 -20 -20 -14 -20 -20 -20 -20 -20 -14 -20 -20 -20 -20 -20 -20
-20 -20 -20 -20 -20 -20 -5 -0 -20 -20 -20 -20 -20 -20 -20 -20 -20 -20 -20 -20 -20 -20 -20 -20 -20 -20 -20 -20 -20 -20 -20 -20 -20 -20 -20 -20 -20 -20 -18 -11 -20 -20 -20

GFSGL_prec_radar_108.txt.gz
Reflectivity
-20 -20 -20 -20 -20 -20 -6 18 3 -19 8 -3 -14 -20 -20 -20 -19 -20 -20 -20 -7 -20 -20 -20 -20 -20 -20 -20 -20 -20 -20 -20 -20 -20 -20 -20 -20 -20 -20 -20 -20 -20 -20
-20 -20 -20 -20 -20 -20 -20 -20 -20 3 -19 -19 -16 -20 -20 -20 -20 -20 -20 27 -20 -5 -20 -20 -19 -20 -20 -20 -20 -20 -20 -20 -20 -20 -20 -20 -20 -20 -20 -20 -20 -20 -20
-18 -17 -13 -19 -16 -20 -20 -20 -20 -20 16 -20 28 -20 -20 -19 -4 -20 -5 -20 -20 -9 -20 -20 -20 16 -20 -20 -20 -20 -20 -20 -20 -20 -20 -20 -20 -20 -14 5 -20 -20 -20
30 14 -12 22 -20 -20 -16 3 -11 -20 -20 -20 -20 32 -15 -20 -20 -20 -20 31 -4 -19 -20 -20 -20 -13 -20 -20 -20 -20 -20 -20 -20 -20 -20 -20 -20 -20 32 -18 -20 -20 -20
16 -20 33 -7 -14 -20 -8 -13 -20 13 13 22 23 -14 -7 -15 -20 -2 -20 22 -20 -5 -20 -16 -13 -20 -9 -20 -14 -20 -20 -20 -20 -20 -20 -20 -20 -20 -20 -20 -20 -20 -20
-14 -20 -20 8 31 -18 14 32 -3 -20 21 22 -19 1 18 -20 -20 -3 5 -20 -20 28 -20 -20 7 -1 -20 -20 -20 -20 -20 -20 -20 -20 -20 -20 -20 -20 -20 -20 -20 -20 -20
-20 -20 -20 -20 -8 -20 -13 27 33 -17 15 27 23 17 -9 -7 -20 -20 -20 -20 29 2 -20 -20 -2 -9 -20 -20 -20 -20 -20 -20 -20 -20 -19 1 -18 -20 -20 -20 -20 -20 -20
6 -15 -20 -20 15 -0 -4 4 -17 21 29 29 27 33 16 -20 -20 -20 -20 -20 11 -20 1 -5 -20 23 -20 -20 -20 -20 -20 -20 -20 -20 -20 -20 -20 -20 -20 -20 -20 -20 9
15 -6 -20 -8 -20 -15 -20 -17 -20 23 14 13 26 28 23 3 8 2 -20 9 -3 8 31 -20 -20 -20 -20 -20 -20 -20 -20 -20 -20 -20 -20 -20 -20 -20 -20 -20 -20 -20 -15
14 17 10 3 -0 -14 -20 -20 -20 -20 16 25 23 -1 17 27 22 -15 -20 29 -19 -5 -20 -20 -20 -20 -20 -20 -20 -20 -20 -20 -20 -20 -20 -20 -20 4 -20 -20 -20 -17 -20
5 -19 -20 -20 -5 -20 -20 13 14 1 -20 -20 -18 9 7 5 -7 -5 -20 -20 24 -12 -20 -17 8 -11 -20 -20 -20 -20 -20 -20 -20 -20 -20 -20 -20 -20 -20 -20 -20 -20 -20
-7 9 9 -5 -20 -20 -20 3 -20 -20 -20 -20 7 -18 -20 -20 -20 -20 -20 -16 10 -11 -20 -14 -6 -13 -20 -20 -20 -20 -20 -15 -18 -20 -20 -20 -20 -20 -20 -20 -20 -20 -20
6 14 21 3 10 -20 -20 -15 -20 -16 -11 5 16 -20 -20 -20 -20 -20 -20 -20 -18 -20 -20 -20 -20 -20 -20 -20 -20 -20 -20 -17 -20 -20 -20 -20 -20 -20 -20 -20 -20 -20 -20
18 24 21 21 12 20 -18 -17 -16 -16 -20 5 -9 -20 -20 -20 -20 -20 -20 -20 -20 -11 -20 -13 -12 -17 -1 4 -4 1 -3 -18 -20 -20 -20 -20 -20 -20 -20 -20 -20 -20 -20
25 20 18 21 17 -12 -11 -20 -20 -20 -20 -20 -20 -20 -20 -20 -20 -20 -20 -20 -20 -20 -20 -20 -20 -20 -20 -20 -20 -20 -8 -20 -14 -6 3 -9 -15 -15 -20 -20 -20 -20 -20
5 -4 12 23 9 8 -14 -20 -20 -20 -20 -20 -20 -20 -20 -20 -20 -20 -20 -20 -20 -20 -20 -20 -20 -20 -20 -20 -20 -20 -20 -20 -20 -20 -20 -19 -17 -20 -20 -20 -18 -14 -17
-3 -18 -10 11 0 5 -19 -20 -20 -20 -20 -20 -20 -20 -20 -20 -20 -20 -20 -20 -20 -20 -20 -20 -20 -20 -20 -20 -20 -20 -20 -20 -20 -20 -20 -20 -20 -20 -20 -20 -20 -20 -20
-20 12 -15 -20 -20 -11 5 17 -16 -14 -20 -20 -20 -20 -20 -20 -20 -20 -20 -20 -20 -20 -20 -20 -20 -20 -20 -20 -20 -20 -20 -20 -20 -20 -20 -20 -20 -20 -20 -20 -20 -20 -20
0 -8 -18 -20 -20 -20 -20 -19 -20 -20 -20 -20 -20 -20 -20 -20 -20 -20 -20 -20 -20 -20 -20 -20 -20 -20 -20 -20 -20 -20 -20 -20 -20 -20 -20 -20 -20 -20 -20 -20 -20 -20 -20
-6 4 -0 3 14 18 5 19 7 8 -5 -12 -19 -18 -17 -7 -20 -20 -20 -20 -20 -16 -6 -20 -20 -20 -20 -20 -20 -20 -20 -20 -20 -20 -20 -20 -20 -20 -20 -20 -20 -20 -20
8 2 19 9 4 -6 -18 6 5 0 10 13 29 13 31 25 -3 -20 -20 -20 -20 -19 -7 -4 -20 -20 -20 -20 -20 -20 -20 -20 -20 -20 -20 -20 -20 -20 -20 -20 -20 -20 -20
-2 -8 -9 -11 -9 5 5 -3 13 18 14 11 12 8 -6 -10 -1 -17 -18 -9 -12 -9 -6 -1 -5 -18 -20 -20 -20 -20 -20 -20 -20 -20 -20 -20 -20 -20 -20 -20 -20 -20 -20
-17 -5 4 4 -10 -20 -20 -20 -14 4 10 7 -1 4 -6 -6 -2 -8 -19 -20 -20 -20 -17 -6 -2 -3 -11 -20 -20 -20 -20 -20 -20 -20 -20 -20 -20 -20 -20 -20 -20 -20 -20
-20 -20 -20 -20 -20 -20 -20 -20 -20 -20 -20 -20 -18 -5 8 7 2 -8 -12 -9 -20 -12 -15 -20 -20 -20 -20 -20 -20 -20 -20 -20 -20 -20 -20 -20 -20 -20 -20 -20 -20 -20 -20
-20 -20 -20 -20 -20 -20 -20 -20 -20 -20 -20 -20 -20 -20 -20 -20 -20 -20 -20 -19 -17 -15 -7 -0 -2 0 -0 -6 -20 -20 -20 -20 -20 -20 -20 -20 -20 -20 -20 -20 -20 -10 -1
5 -20 -20 -20 -20 -20 -20 -20 -20 -20 -20 -20 -20 -20 -20 -20 -20 -20 -20 -20 -20 -20 -20 -20 -20 -20 -20 -20 -20 -20 -20 -20 -20 -20 -20 -20 -20 -20 -20 -20 -20 -2 -8

GFSGL_prec_radar_111.txt.gz
Reflectivity
-20 -20 -20 -20 -20 -20 -20 -20 -20 -20 -16 -20 -20 -17 -20 -20 -20 -20 -20 -20 -20 -20 -20 -20 -20 -20 -20 -20 -20 -20 -20 -20 -20 -20 -20 -20 -20 -20 -20 -20 -20 -20 -20
-20 -20 -20 -20 -20 -20 -20 -20 -20 -20 -20 -20 -20 6 -20 -20 -20 15 -20 -20 -20 -20 -20 -20 -20 -20 -20 -20 -20 -20 -20 -20 -20 -20 -20 -20 -20 -20 -20 -10 -20 -20 -20
-20 -20 -20 -20 -20 -20 -20 -20 -20 -20 10 -20 -20 -20 -20 -8 -16 -20 -20 -20 -20 -5 -20 -20 -20 -8 -20 -20 -20 -20 -20 -7 -20 -20 31 -20 -20 -20 -20 -19 -20 -20 -20
-14 -20 -20 -20 -20 -20 -20 -6 -20 -20 -20 -20 34 -7 6 -20 -20 -20 5 -20 -20 -20 7 7 -20 -20 28 -2 -20 -20 -20 -20 -20 -20 -20 30 -20 -20 -20 -20 -20 -20 -20
31 21 -20 -20 5 21 -10 -17 -20 -14 -20 -20 -20 8 -17 33 -20 -20 -20 -20 -15 -20 -20 12 -4 -20 -20 -20 -20 -20 -20 -20 -20 -20 -20 -20 -20 -20 -20 -20 -20 -20 -20
26 8 -13 -9 -20 23 28 32 0 28 33 -20 -19 -20 -20 -20 -20 -20 -18 -20 -20 -20 32 -20 -20 -20 29 -20 -20 -20 -20 -20 -20 -20 -20 -20 -20 -20 -20 -20 -20 -20 -20
34 39 35 -13 -11 15 -5 -4 21 -9 30 35 22 -20 -20 -20 -20 -20 -20 -20 -20 -20 -20 -20 -20 -20 -20 17 16 -20 -20 -20 -20 -19 -20 -20 -20 -20 -20 -20 -20 -20 -20
21 -2 -6 29 1 -20 -20 -20 28 23 26 32 3 27 4 -4 -1 -20 -20 -20 -20 -20 -20 -20 -20 -20 -20 -20 -20 -20 -20 -20 -20 -20 -20 -20 -20 -20 -20 -20 -20 -20 -20
31 23 -20 -20 11 -20 -20 -20 19 20 17 23 25 -7 9 17 21 12 -16 -19 -20 -20 -20 -20 -20 -20 -20 -20 -20 -20 -20 -20 -20 -20 -20 -20 -20 -20 -20 -20 -20 -20 -20
34 23 6 -2 -19 -20 -20 -20 -20 -20 -20 -20 -20 -20 8 4 11 -20 -15 -20 -20 -20 -20 -20 -20 -20 -20 -20 -20 -20 -20 -20 -20 -20 -20 -20 -20 -20 -20 -20 -20 -20 -20
12 -9 -15 1 -11 -17 -20 -20 -20 -20 -20 -20 -20 -20 -12 -20 -19 -19 9 -20 -20 -20 -20 -20 -20 -20 -20 -20 -18 -20 -20 -20 -20 -20 -20 -20 -20 -20 -20 -20 -20 -20 -20
9 5 1 -17 4 -7 -1 -20 -20 -19 -4 9 -7 -9 -20 -20 -18 -20 -20 -20 -20 -19 -20 -16 -20 -20 -5 -14 -20 -20 -20 -20 -20 -20 -20 -20 -20 -20 -20 -20 -20 -20 -20
8 7 17 27 -8 -11 -14 -20 -20 -10 -20 -8 -20 -20 -0 -20 -20 -20 -20 -20 -20 -20 -20 -20 -20 -20 -20 -20 -20 -20 -20 -20 -20 -20 -20 -20 -20 -20 -20 -20 -20 -20 -20
4 7 22 18 30 20 -16 -20 -20 -20 -5 -11 -10 -0 -20 -20 -20 -20 -20 -20 -20 -20 -20 -20 -20 -20 -20 -20 -20 -20 -20 -20 -20 -20 -11 -11 -20 -20 -20 -20 -20 -20 -20
8 -2 5 21 17 19 16 24 12 -20 -10 -20 -20 -9 -20 -20 -20 -20 -20 -20 -20 -20 -20 -20 -20 -20 -20 -20 -20 -20 -20 -20 -20 -20 -20 -20 -20 -20 -20 -20 -20 -20 -20
-13 -19 6 8 17 1 1 13 24 18 -1 -13 -12 -20 -20 -20 -20 -20 -20 -20 -20 -20 -20 -20 -20 -20 -20 -20 -20 -20 -20 -20 -20 -20 -20 -20 -20 -20 -20 -20 -20 -20 -20
-20 -20 -16 18 -15 -19 -20 3 15 15 1 -13 12 -17 -20 -20 -20 -20 -20 -20 -20 -20 -20 -20 -20 -20 -20 -20 -20 -20 -20 -20 -20 -20 -20 -20 -20 -20 -20 -20 -20 -20 -20
17 -4 -13 15 2 10 18 -5 -18 -7 -1 -17 -8 -10 9 -20 -20 -20 -20 -20 -20 -20 -20 -20 -20 -20 -20 -20 -20 -20 -20 -20 -20 -20 -20 -20 -20 -20 -20 -20 -20 -20 -20
-20 -20 -20 -14 -7 -20 -20 -19 -20 -18 -20 -7 -1 9 5 -3 -2 -17 -20 -20 -20 -20 -20 -20 -20 -20 -20 -20 -20 -20 -20 -20 -20 -20 -20 -20 -20 -20 -20 -20 -20 -20 -20
-20 -20 -20 -20 2 -18 -20 -20 -20 -20 -20 10 5 -16 -7 -20 -11 -18 -19 -20 -20 -20 -20 -20 -20 -20 -20 -20 -20 -20 -20 -20 -20 -20 -20 -20 -20 -20 -20 -20 -20 -20 -20
-20 -20 -20 -20 -20 -20 -20 -20 -20 -20 -20 -20 -20 -20 -20 -1 15 9 -1 -11 -19 -19 -20 -20 -16 -19 -20 -20 -20 -20 -20 -20 -20 -20 -20 -20 -20 -20 -20 -20 -20 -20 -20
-20 -20 -20 -20 -20 -17 -18 -20 -20 -20 -20 -20 -20 -20 -4 -2 -0 -3 -6 1 7 8 11 10 11 15 -9 -20 -20 -20 -20 -20 -20 -20 -20 -20 -20 -20 -20 -20 -20 -20 -20
-20 -20 -20 -20 -20 -20 -19 -18 -20 -20 -20 0 0 -9 0 -2 0 -20 -20 -8 12 18 13 11 8 3 -1 -17 -20 -20 -20 -20 -20 -20 -20 -20 -20 -20 -20 -20 -20 -20 -20
-20 -20 -20 -20 -20 -20 -20 -20 -20 -20 -20 -20 -20 -20 -9 -10 -18 -16 -20 -20 -19 -4 -0 -2 -5 -8 -7 -11 -20 -20 -20 -20 -20 -20 -20 -20 -20 -20 -20 -20 -20 -20 -20
-16 -20 -20 -10 -10 -20 -20 -20 -20 -20 -20 -20 -20 -20 -20 -20 -20 -20 -20 -20 -20 -20 -17 -4 2 4 3 -2 -4 -2 4 -4 -4 -9 -20 -20 -20 -20 -20 -20 -20 -20 -20
-20 -20 -20 -11 8 -20 -6 -20 -20 -20 -20 -20 -20 -20 -20 -20 -20 -20 -20 -20 -20 -20 -20 -20 -20 -20 -20 -20 -20 -20 -20 -20 -20 -20 -20 -20 -20 -20 -20 -20 -20 -20 -20

GFSGL_prec_radar_114.txt.gz
Reflectivity
-20 -20 -20 -20 -20 -20 -20 -20 -20 -20 -20 -20 -20 -20 -20 -20 -20 -20 -20 -20 -20 -20 -20 -20 -20 -20 -20 -20 -20 -20 -19 -20 -20 -20 -20 -20 -20 -6 -20 -20 -20 -20 -20
-20 -20 -20 -20 -20 -20 -20 -20 -20 -20 -20 -20 -20 -20 -20 -20 -20 11 -20 -20 -20 -20 -20 -20 -20 -20 -20 -20 -20 -20 -20 -20 -20 -20 -20 -20 28 -20 -20 -20 -20 -20 -20
-20 6 -20 -20 -20 -20 -20 -20 -20 -20 -20 -20 -20 -20 -20 -20 16 7 -20 -19 -12 -20 -20 -20 -20 -20 -20 -20 -20 -20 -20 -20 -20 24 -20 -20 -20 -20 -20 -20 -20 -20 -20
-20 -20 -20 -20 -20 -20 -20 -20 -20 -20 -20 -20 -20 -20 -20 -20 -20 -20 35 30 -20 -20 -20 -20 -20 -20 -20 -20 -20 -20 -20 -20 -20 -20 -20 -20 -20 -20 -20 -20 -20 -20 -20
-20 25 -15 31 -20 -20 7 -20 -9 -20 -20 -20 -20 -20 1 -20 -20 -20 34 -2 -20 -11 -20 -20 -20 -20 -20 -20 35 -20 -20 -20 -20 -20 -20 -20 -20 -20 -20 -20 -20 -20 -20
21 30 12 29 10 -19 -9 10 19 20 29 29 -20 -20 -20 -20 -20 2 -19 30 -20 -20 -20 -20 -20 -20 -20 -20 -20 -20 -20 -20 -20 -20 -20 -20 -20 -20 -20 -20 -20 -20 -20
-20 11 30 18 25 5 29 24 19 22 32 26 25 12 32 -20 -20 -20 -20 -20 3 -8 -20 -20 -20 -20 -20 -20 -20 -20 -20 -20 -7 -19 -20 -20 -20 -20 -20 -20 -20 -20 -20
-8 23 -5 17 34 31 13 1 -20 32 27 27 24 11 29 13 -3 -20 -20 -20 -20 -20 -20 -20 -20 -20 -20 -20 -20 -20 -20 -20 -20 -20 -20 -20 -20 -20 -20 -20 -20 -20 -20
-20 -2 12 30 28 28 30 13 -2 -2 22 13 22 22 30 25 12 11 12 6 -9 -0 -20 -20 -20 -20 -20 -20 -20 -20 -20 -20 -20 -20 -20 -20 -20 -20 -20 -20 -20 -20 -20
23 24 6 27 33 30 19 5 -20 -1 -20 -13 22 20 25 19 11 7 -3 3 23 22 -20 -20 -20 -20 -20 -20 -20 -20 -20 -20 -20 -20 -20 -20 -20 -20 -20 -20 -20 -20 -20
42 23 26 17 30 30 15 -20 -20 -20 -20 -20 -20 -20 -20 -17 4 17 -20 -20 -14 -12 -1 -20 -20 -20 -4 -6 -20 -20 -20 -13 -20 -20 -20 -20 -20 -20 -20 -20 -20 -20 -20
39 45 38 30 26 26 15 -7 -3 -10 -20 -20 -20 -20 -20 -20 -20 -18 7 -15 12 -8 18 -8 -14 -18 -20 -20 -20 -11 -8 -20 -20 -20 -20 -20 -20 -20 -20 -20 -20 -20 -20
16 12 17 25 25 13 3 20 10 -15 -12 -6 -14 -18 -20 -19 0 -20 8 -3 -19 -16 -20 7 -10 4 -7 -20 -20 -20 -20 -20 -20 -20 -20 -20 -20 -20 -20 -20 -20 -20 -20
19 20 10 27 23 4 5 13 -1 14 -20 -20 -20 -20 5 -20 -20 -20 -20 -20 -20 -20 -20 -20 -20 -15 3 2 -14 -20 -20 -20 -20 -20 -20 -20 -20 -20 -20 -20 -20 -20 -20
14 10 9 -12 -1 26 8 -6 19 20 12 -12 -17 -19 3 11 -20 -20 -12 -20 -20 -20 -20 -20 -20 -20 -20 -20 -20 -20 -20 -20 -20 -20 -20 -20 -20 -20 -20 -20 -20 -20 -20
8 -10 8 -13 -20 -14 -9 6 22 21 24 23 16 0 -14 16 2 -20 -20 -20 -20 -20 -20 -20 -20 -20 -20 -20 -20 -20 -20 -20 -20 -20 -20 -20 -20 -20 -20 -20 -20 -20 -20
-20 -20 -20 -20 -20 -6 -20 -20 -3 17 19 -6 14 16 -18 -13 17 6 1 -20 -20 -20 -20 -20 -20 -20 -20 -20 -20 -20 -20 -20 -20 -20 -20 -20 -20 -20 -20 -20 -20 -20 -20
-20 -20 -20 -20 -7 -10 -20 -10 -17 -18 -15 14 11 -6 -16 21 -11 -13 13 11 -19 -20 -20 -20 -20 -20 -20 -20 -20 -20 -20 -20 -20 -20 -20 -20 -20 -20 -20 -20 -20 -20 -20
-20 -20 -20 -20 -20 -20 -20 -20 -15 16 14 -5 -20 -20 -20 -8 -9 -20 -17 -6 -8 13 0 -20 -20 -19 -20 -20 -20 -20 -20 -20 -20 -20 -20 -20 -20 -20 -20 -20 -20 -20 -20
-20 -20 -20 -20 -20 -20 -20 -20 -20 -20 -20 -10 2 -20 -20 -18 -15 -20 -12 -10 -14 9 -4 -19 4 15 -4 -20 -20 -20 -18 -20 -20 -20 -20 -20 -20 -20 -20 -20 -20 -20 -20
-20 -20 -20 -20 -20 -20 -20 -20 -20 -20 -20 -20 -20 -20 -20 -16 -20 -20 -20 -20 -20 -20 -20 -12 -12 -20 -20 -20 -20 -20 -20 -20 -20 -20 -20 -18 -5 -20 -20 -20 -20 -20 -20
-20 -20 -20 -20 -20 -20 -20 -20 -20 -20 -20 -20 -20 -20 -20 -20 -20 -20 -20 -20 -20 -20 -20 -20 -20 -20 1 13 6 -8 -5 1 -1 -8 -20 -19 -20 -20 -20 -20 -20 -20 -20
-20 -20 -20 -20 -20 -20 -20 -20 -20 -20 -20 -20 -20 -20 -20 -20 -20 -20 -20 -20 -20 -20 -18 -20 -20 -9 -13 -20 -20 -20 -15 -15 -7 -9 -6 -3 -4 -9 -13 -20 -20 -20 -20
-20 -20 -20 -20 -20 -20 -20 -20 -20 -20 -20 -20 -20 -20 -20 -20 -20 -20 -20 -20 -20 -20 -13 2 4 -3 -5 4 9 2 -6 -12 -17 -20 -12 -13 -20 -20 -20 -20 -20 -20 -20
-20 -20 -20 -20 -20 -20 -20 -20 -20 -20 -20 -20 -20 -20 -20 -20 -20 -20 -20 -20 -20 -20 -20 -20 -20 -20 -20 -20 -20 -20 -20 -20 -18 -16 -14 -11 -12 -16 -19 -20 -20 -20 -13
-20 -9 -20 -20 -9 -20 -20 -20 -4 -18 -20 -20 -20 -20 -20 -20 -20 -20 -20 -20 -20 -20 -20 -20 -20 -20 -20 -20 -20 -20 -20 -20 -20 -20 -20 -20 -20 -20 -20 -20 -20 -20 -20

GFSGL_prec_radar_117.txt.gz
Reflectivity
-20 -20 -20 -20 -20 -20 -20 -20 -20 -20 -20 -20 -20 -20 -20 -20 -20 -20 -20 -20 -20 -20 -20 -20 -20 -20 -20 -20 -20 -20 -20 -20 -20 -20 -20 -20 -20 -20 -20 -20 -12 -20 -20
-20 -20 -20 -20 -20 -20 -20 -20 -20 -20 -20 -20 -20 -20 -20 -20 -20 -19 -20 -20 -20 -18 -20 -20 -20 -20 -20 -20 -20 -20 -20 -20 -20 -20 -20 -20 -20 -20 -20 -20 -20 -20 -20
-20 -20 -20 -20 -20 -20 -20 -20 -20 -20 -20 -20 -20 -20 -20 -9 -20 -20 -20 -20 -20 -20 -20 -20 -20 -20 -20 -20 -20 -20 -20 -20 -20 -20 -20 -20 -20 -20 -20 -20 -20 -20 -20
-20 -20 -20 -20 -20 -20 -20 -20 -20 -20 -20 -20 -20 -20 -20 -20 -20 -20 -20 -20 7 12 -20 -20 8 -20 33 -20 -20 -20 -20 -20 -20 -20 -20 -20 -20 -20 -20 -20 -20 -20 -20
15 -17 -20 -20 -20 -20 -20 -20 -20 -20 -20 -20 -20 -20 -10 -20 -20 -20 -20 -20 17 14 -20 -20 -20 -20 -20 -16 -20 -20 -20 -20 -20 -20 -20 -20 -20 -20 -20 -20 -20 -20 -20
-4 -20 17 -2 -19 -19 3 -20 -20 32 31 30 -20 -20 18 -20 -20 -20 27 29 -20 -20 -20 -20 -20 -20 -20 -20 -20 -20 -20 -20 -20 -20 -20 -20 -20 -20 -20 -20 -20 -20 -20
28 30 9 -3 25 14 -15 7 -16 26 18 33 22 26 -8 -20 -20 -13 -20 -20 -20 5 33 -20 -20 -20 -20 -20 -20 11 -20 -20 -20 -20 -20 -20 -20 -20 -20 -20 -20 -20 -20
26 32 14 -13 13 17 24 16 31 27 33 25 25 30 35 24 15 24 9 -20 -20 -20 28 -1 -20 -20 -20 -20 -20 -20 -20 -20 -20 -20 -20 -20 -20 -20 -20 -20 -20 -20 -20
28 -8 4 30 13 28 26 28 32 24 22 23 25 24 30 28 23 14 -13 4 -20 -20 -20 1 14 22 -20 -20 -20 -20 -20 -20 -20 -20 -20 -20 -20 -20 -20 -20 -20 -20 -20
29 -2 -20 7 26 28 29 30 35 35 26 16 21 21 11 36 29 28 26 22 9 -16 -19 18 26 16 6 -16 -20 -20 -20 -20 -20 -20 -20 -20 -20 -20 -20 -20 -20 -20 -20
41 26 22 28 30 32 32 37 37 30 16 -10 10 3 15 5 -5 -5 -6 -2 -9 6 -10 -0 1 -5 -15 -16 -20 -20 -20 -12 -20 -20 -20 -20 -20 -20 -20 -20 -20 -20 -20
33 33 34 43 45 39 39 38 37 29 10 10 -1 -10 -20 -17 8 0 -15 -19 -6 -19 -20 -11 1 13 1 17 8 7 -18 -20 -20 -20 -7 -20 -20 -20 -20 -20 -20 -20 -20
14 20 25 32 33 41 39 32 30 25 22 13 -7 -20 -19 4 3 -13 -20 -19 -4 -20 -20 10 19 16 17 15 14 22 25 10 13 -3 -19 -20 -20 -20 -20 -20 -20 -20 -20
23 25 13 21 29 28 23 29 28 24 6 16 8 -7 -6 -12 -19 -18 4 -0 -20 -11 -0 2 -16 -20 -20 -20 -3 -20 -20 -20 -15 -6 -5 -11 -20 -20 -20 -19 -16 -20 -20
-6 8 13 7 9 19 24 19 25 10 19 23 2 7 3 12 16 7 -3 -20 -20 9 -2 -20 -20 -20 -20 -20 -20 -20 -20 -20 -20 -20 -20 -20 -20 -20 -20 -20 -20 -20 -20
-20 -20 5 24 2 13 14 25 24 19 30 18 20 17 11 20 18 15 17 9 8 8 -20 -20 -20 -20 -20 -20 -20 -20 -20 -20 -20 -20 -20 -20 -20 -20 -20 -20 -20 -20 -20
-11 -20 -20 -15 -20 -20 -20 -12 -9 -6 3 5 19 22 23 25 19 22 15 18 13 3 -19 -14 -7 -20 -20 -20 -20 -20 -20 -20 -20 -20 -20 -20 -20 -20 -20 -20 -20 -20 -20
-20 -20 -20 -19 -20 -20 -20 -20 -20 -20 -20 -20 -17 15 2 -1 1 13 -2 9 -8 17 -5 -6 12 -15 -20 -20 -20 -20 -20 -20 -20 -20 -20 -20 -20 -20 -20 -20 -20 -20 -20
-20 -20 -20 -3 -17 -20 -20 -20 -20 -20 -20 -20 -20 4 4 -17 6 -0 -20 -20 -8 14 -12 -20 -20 -12 -8 -10 -19 -20 -20 -18 -20 -20 -20 -19 -10 -16 -19 -19 -20 -20 -20
-20 -20 -20 -20 -20 -20 -20 -20 -20 -20 -20 -20 -20 -20 -17 -14 24 9 14 10 -20 -20 -20 -19 -20 -20 -18 -7 -17 -13 6 11 -7 -8 -0 5 -18 -17 -17 -20 -20 -20 -20
-20 -20 -20 -20 -20 -20 -20 -20 -20 -20 -20 -20 -20 -20 -20 -20 -20 -20 -20 -20 -20 -12 -18 -16 -19 -20 -20 -20 -10 -4 11 -8 -13 -11 4 6 -20 -20 -20 -20 -20 -20 -20
-20 -20 -20 -20 -20 -20 -20 -20 -20 -20 -20 -20 -20 -20 -20 -20 -20 -20 -20 -20 -20 -20 -20 -20 -19 -20 -8 -9 -18 -20 -20 -20 -20 -12 -12 -13 -10 -4 -2 -5 -3 -12 -20
-20 -20 -20 -20 -20 -20 -20 -20 -20 -20 -20 -20 -20 -20 -20 -20 -20 -20 -20 -20 -20 -20 -20 -20 -20 -20 -20 -20 -20 -18 -17 -20 -5 5 5 7 11 10 6 5 4 -4 -17
-20 -20 -20 -20 -20 -20 -20 -20 -20 -20 -20 -20 -20 -20 -20 -20 -20 -20 -20 -20 -20 -20 -20 -20 -20 -20 -20 -20 -20 -20 -20 -19 -8 -6 -14 -19 -20 -20 -20 -20 -20 -20 -20
-20 -20 -20 -20 -20 -20 -20 -20 -20 -20 -20 -20 -20 -20 -20 -20 -20 -20 -20 -20 -20 -20 -20 -20 -20 -20 -20 -20 -20 -20 -20 -20 -20 -20 -20 -20 -20 -20 -18 -20 -20 -20 -20
-20 -20 -20 -20 -20 -20 -20 -20 -20 -20 -20 -20 -20 -20 -20 -20 -20 -20 -20 -20 -20 -20 -20 -20 -20 -20 -20 -20 -20 -20 -20 -20 -20 -20 -20 -20 -20 -20 -20 -20 -20 -20 -20

GFSGL_prec_radar_120.txt.gz
Reflectivity
-20 -20 -20 -20 -20 -20 -20 -20 -20 -20 -20 -20 -20 -20 -20 -20 -20 -20 -20 -20 -20 -20 -20 -20 -20 -20 -20 -20 -20 -20 -20 -20 -20 -20 -20 -20 -20 -20 -20 -20 -20 -20 -20
-20 -20 -20 -20 -20 -20 -20 -20 -20 -20 -20 -20 -20 -20 -20 -20 -20 -20 -20 -20 -20 -20 -20 -20 -20 -20 -20 -20 -20 -20 -20 -20 -20 -20 -20 -20 -20 -20 -20 -20 -20 -20 -20
-20 -20 -20 -20 -20 -20 -20 -20 -20 -20 -20 -20 -20 -20 -20 -20 -20 -14 29 -20 -20 -20 -20 -20 -20 -20 -20 -20 -14 -20 -20 -20 -20 -20 -20 -20 -20 -20 -20 -20 -20 -20 -20
-20 -20 -20 -20 -20 -20 -20 -20 -20 -20 -20 -20 -20 -20 -20 -20 -20 -20 31 -20 -20 -20 -20 -20 -20 -20 -20 -20 -20 -20 -20 -20 -20 -20 -20 -20 -20 -20 -20 -20 -20 -20 -20
-20 -20 -20 -20 -20 -20 -20 -20 -20 -20 -20 -20 -20 -20 -20 -20 -20 -13 29 -20 -20 -20 -3 -20 -20 -20 -20 -20 -20 -20 -20 -20 -20 -20 -20 -20 -20 -20 -20 -20 -20 21 -20
-2 -20 -20 3 -20 -20 -20 -20 -20 -20 -20 -20 -20 -20 -20 -20 -20 11 23 -20 -20 -20 -20 -20 -20 -20 -20 -20 4 30 -20 -20 -20 -20 -20 -20 -20 -20 -20 -20 -20 -20 -20
25 31 10 30 30 31 32 -2 -20 -6 -1 1 -20 11 20 -9 -20 16 -20 -20 -20 -20 -20 -20 -20 -20 -20 -20 -20 -20 -20 -20 -20 -20 -20 -20 -20 -20 -20 -20 -20 -20 -20
25 26 26 27 23 38 28 26 6 24 26 28 19 31 32 8 5 -20 -18 -20 -16 -15 -20 -20 -20 -20 -20 -20 -20 -20 -20 -20 -20 -20 -20 -20 -20 -20 -20 -20 -20 -20 -20
31 32 33 35 40 34 23 21 26 32 23 27 36 27 34 16 27 35 26 11 8 -16 -20 -20 0 -20 -20 -6 1 0 -20 -20 -20 -20 -20 -20 -20 -20 -20 -20 -20 -20 -20
25 18 23 23 38 35 17 27 24 20 26 17 24 20 19 24 30 23 28 27 21 -19 -17 10 24 -0 -0 13 9 17 12 3 -20 -20 -20 -20 -20 -20 -20 -20 -20 -20 -20
7 32 36 41 26 -11 21 20 33 34 35 31 28 32 31 33 35 31 34 20 9 26 22 27 12 16 14 20 19 9 -20 -20 -16 -20 -20 -20 -20 -20 -20 -20 -20 -20 -20
13 26 19 30 10 13 6 22 28 36 34 36 33 32 25 29 23 19 25 13 17 10 9 29 8 10 -1 -2 10 -5 -2 -4 -0 3 -18 -20 -20 -20 -16 -20 -20 -20 -20
-9 9 13 17 26 17 10 33 37 31 37 37 31 12 19 26 24 16 15 9 -2 2 -3 11 10 -10 9 8 19 17 -8 -20 -3 4 5 -16 -19 -20 -20 -20 -20 -20 -20
9 6 12 16 15 21 30 27 18 30 35 31 30 28 23 17 19 4 -11 5 -15 17 17 24 8 -1 3 -6 -20 -20 -14 -9 14 6 -20 -20 -20 -20 0 -9 -5 -11 -19
3 10 16 25 11 25 25 26 25 32 28 24 26 16 3 -6 -19 2 8 -19 -20 6 1 -19 -17 -20 -20 -20 -20 -20 -20 -20 -20 -20 -20 -20 -20 -20 -20 -20 -20 -19 -14
-17 -14 3 -0 -6 -4 10 19 21 20 28 25 23 32 8 18 16 16 15 23 6 18 -3 -20 -20 -20 -20 -20 -20 -20 -20 -20 -20 -20 -20 -20 -20 -20 -20 -20 -20 -20 -20
-20 -17 -9 -10 -8 -9 -20 -17 13 13 22 19 16 6 25 26 24 12 -10 12 17 5 -9 -20 -20 -20 -20 -7 5 12 -10 -20 -20 -20 -20 -20 -20 -20 -20 -20 -20 -20 -20
-20 -20 -20 -20 -20 -20 -20 -20 -20 -20 -20 -18 9 -2 -8 20 18 21 20 14 5 -1 12 5 -6 19 17 16 8 3 -0 -20 -20 -20 -20 -20 -20 -20 -20 -20 -20 -20 -20
-20 -20 -20 -20 -20 -20 -15 -12 -20 -20 -20 -20 -20 -20 -20 11 9 6 -1 -19 -20 -7 13 -12 -17 24 20 10 -6 -19 -20 -20 -16 -20 -20 -9 6 -14 -20 -10 -3 -13 -9
-20 -20 -20 -20 -20 -20 -20 -20 -20 -20 -20 -20 -20 -20 -20 -20 -20 -20 -20 -17 -2 -2 22 22 21 7 12 14 6 -9 -19 -19 -20 -20 -20 -18 -11 -13 -20 -20 -20 -20 -20
-20 -20 -20 -20 -20 -20 -20 -20 -20 -20 -20 -20 -20 -20 -20 -20 -20 -20 -20 -20 -20 -20 -20 -20 -20 -1 -7 -9 -3 5 1 -3 -2 -6 -9 -13 -20 -5 -4 -8 -20 -20 -20
-20 -20 -20 -20 -20 -20 -20 -20 -20 -20 -20 -20 -20 -20 -20 -20 -20 -20 -20 -20 -20 -20 -20 -20 -20 -20 -20 -20 -20 -20 -20 -19 1 6 -5 6 -8 -10 7 13 6 7 0
-20 -20 -20 -20 -20 -20 -20 -20 -20 -20 -20 -20 -20 -20 -20 -20 -20 -20 -20 -20 -20 -20 -20 -20 -20 -20 -20 -20 -20 -20 -20 -20 -20 -20 -20 -16 -4 1 -9 -11 0 5 -7
-20 -20 -20 -20 -20 -20 -20 -20 -20 -20 -20 -20 -20 -20 -20 -20 -20 -20 -20 -20 -20 -20 -20 -20 -20 -20 -20 -20 -20 -20 -20 -20 -20 -20 -20 -20 -20 -20 -20 -18 -18 -11 -6
-20 -20 -9 -20 -20 -20 -20 -20 -20 -20 -20 -20 -20 -20 -20 -20 -20 -20 -20 -20 -20 -20 -20 -20 -20 -20 -20 -20 -20 -20 -20 -20 -20 -20 -20 -20 -20 -20 -20 -20 -20 -20 -20
-20 -20 -20 -20 -20 -20 -20 -20 -20 -20 -20 -20 -20 -20 -17 -20 -20 -20 -20 -20 -20 -20 -20 -20 -20 -20 -20 -20 -20 -20 -20 -20 -20 -20 -20 -20 -20 -20 -20 -20 -20 -20 -20

GFSGL_prec_radar_123.txt.gz
Reflectivity
-20 -20 -20 -20 -20 -20 -20 -20 -20 -20 -20 -20 -20 -20 -20 -20 -20 11 13 -20 -20 -9 -20 -14 -20 -20 -20 -20 -20 5 -20 -9 -20 -20 -20 -20 -8 -20 -20 -20 -20 -20 -20
-20 -20 -20 -20 -20 -20 -20 -20 -20 -20 -20 -20 -20 -20 -20 -20 -20 -20 -20 -20 -20 -20 -20 -18 -17 -20 -20 -19 -19 -20 -20 -19 -20 -20 -20 -19 -20 -17 -20 -20 -20 -20 -20
-20 -20 -20 -20 -20 -20 -20 -20 -20 -20 -20 -20 -20 -20 -20 -20 -20 -20 -19 23 -20 -20 -20 -20 2 -7 18 -17 -20 -13 -20 -20 -20 -20 -20 -20 -20 -20 -20 -20 -20 -20 -20
-20 -20 -20 -20 -20 -20 -20 -20 -20 -20 -20 -20 -20 -20 -20 -20 -20 -20 -20 30 5 22 32 -15 -20 -1 31 28 -8 -20 -17 5 6 -15 -20 -20 -20 -11 -20 -20 -17 -20 -17
-18 -20 -9 -19 -20 -20 -20 -20 -20 -20 -20 -20 -20 -20 -20 -20 -20 -20 -20 -18 20 27 -20 32 -20 31 -19 28 22 14 30 -9 27 22 -20 -20 -20 -20 -20 -20 8 -20 -20
6 12 -2 -3 -20 -20 -19 -19 -20 -20 -19 -20 -20 -20 -20 -20 -20 -20 -20 -20 -20 -20 -20 -20 3 -20 -20 15 -20 -20 2 16 -20 -14 -16 -19 -20 -20 -20 -20 -5 10 -20
-20 17 11 30 -20 -20 22 29 28 -6 25 27 -6 -20 -20 -20 -20 -20 -20 -20 -20 -20 -20 17 5 16 -20 -20 -20 -20 -20 -20 -20 -20 28 -20 -20 -20 -20 -20 -20 -20 -20
-11 -20 8 4 32 6 -11 32 34 28 30 27 -20 -20 -20 -20 7 8 10 -20 -20 -20 -20 -15 -9 17 14 -20 -20 -20 -20 -20 -20 -20 -20 -20 -20 -20 -20 -20 -20 -20 -20
-16 13 -2 20 23 20 -13 29 39 42 27 21 -1 16 -5 23 27 24 26 -18 6 -17 -18 -20 -20 -20 -20 -20 -20 -20 -20 -20 -13 -20 -20 -20 -20 -20 -20 -20 -20 14 -12
36 19 31 20 26 29 21 33 37 31 42 27 18 26 21 -0 30 34 30 -5 -2 17 23 -7 -7 9 -20 -20 -18 -20 -19 -5 -10 1 -20 -20 -20 -20 -20 -20 -20 -20 -20
-20 16 20 -1 15 13 26 30 32 36 41 23 26 14 16 27 5 24 34 16 30 23 22 3 3 -20 -10 12 12 -8 14 2 0 -15 -20 -20 -20 -20 -20 -20 -20 -20 -20
-10 -7 7 -2 -4 8 22 28 34 31 31 36 30 30 29 17 22 19 22 29 26 33 26 21 29 26 29 23 -5 5 -20 4 4 -20 -20 -20 -20 -20 -20 -20 -20 -20 -20
-18 6 -18 -19 11 -13 18 9 18 28 23 7 16 17 30 26 11 20 23 18 13 14 17 21 20 20 24 20 10 1 -12 -8 -9 -20 -17 -20 -8 -20 -20 -20 -14 -13 -19
-20 -20 -18 -20 -0 -7 -9 4 1 14 22 28 17 17 25 23 25 5 23 32 30 24 22 21 19 17 8 6 7 -16 -20 -14 6 -16 2 -20 2 3 -20 -3 -19 -20 -20
-20 -20 -18 2 18 3 11 22 22 12 2 22 17 18 12 15 37 11 18 15 25 9 10 4 12 -9 19 -5 -20 -20 -20 -20 -20 -20 -20 -20 -20 -20 -20 -20 -20 -20 -20
-17 -14 7 2 6 2 -4 16 19 16 25 6 20 17 22 10 20 42 17 18 21 29 20 16 -8 -20 14 -16 -20 -20 -20 -20 -20 -20 -20 -20 -20 -20 -20 -20 -20 -20 -20
-20 -20 -12 -4 -19 13 13 -4 -19 11 -2 9 15 14 9 24 24 13 9 22 17 2 2 -17 19 18 3 -20 -20 -18 -20 -8 1 0 1 -8 -20 -20 -20 -20 -20 -20 -20
-20 -2 -20 -19 -20 -20 -20 -20 -20 -20 -20 -14 -1 -6 -14 -15 10 8 -16 7 -5 12 23 16 14 7 26 27 14 5 -14 -3 6 -5 -6 -12 1 -9 -20 -20 -20 -20 -20
-20 -20 -20 -20 -20 -20 -20 -20 -20 -20 -20 -20 -20 -20 -20 -20 -20 -20 -20 -20 -20 -10 14 -6 -8 -8 11 -20 -9 13 27 -4 4 10 26 10 -18 -20 -20 -13 -7 -1 -16
-20 -20 -20 -20 -20 -20 -20 -20 -20 -20 -20 -20 -20 -20 -20 -20 -20 -20 -20 -20 -20 -20 -20 -20 -20 -20 -20 -20 -20 -20 -20 -20 0 -4 -6 13 15 12 4 9 10 -1 -19
-20 -20 -20 -20 -20 -20 -20 -20 -20 -20 -20 -20 -20 -20 -20 -20 -20 -20 -20 -20 -20 -20 -20 -20 -20 -20 -20 -20 -20 -20 -20 -20 -20 -20 -20 -18 -1 -14 -12 -2 10 11 3
-20 -20 -20 -20 -20 -20 -20 -20 -20 -20 -20 -20 -20 -20 -20 -20 -20 -20 -20 -20 -20 -20 -20 -20 -20 -20 -20 -20 -20 -20 -20 -20 -20 -20 -20 -20 -20 -20 -15 -9 0 -10 -20
-20 -20 -20 -20 -20 -20 -20 -20 -20 -20 -20 -20 -20 -20 -20 -20 -20 -20 -20 -20 -20 -20 -20 -20 -20 -20 -20 -20 -20 -20 -20 -20 -20 -20 -20 -20 -20 -20 -20 -20 -20 -15 -14
-20 -20 -20 -20 -20 -20 -20 -20 -20 -20 -20 -20 -20 -20 -20 -20 -20 -20 -20 -20 -20 -20 -20 -20 -20 -20 -20 -20 -20 -20 -20 -20 -20 -20 -20 -20 -20 -20 -20 -20 -20 -20 -20
13 -20 -20 -20 -20 -20 -20 -20 -20 -20 -20 -20 -20 -20 -20 -20 -20 -20 -20 -20 -20 -20 -20 -20 -20 -20 -20 -20 -20 -20 -20 -20 -20 -20 -20 -20 -20 -20 -20 -20 -20 -20 -20
-20 -20 1 -20 -20 -20 -18 -20 -20 -14 -20 -20 -20 -20 -20 -20 -20 -20 -20 -20 -20 -20 -20 -20 -20 -20 -20 -20 -20 -20 -20 -20 -20 -20 -20 -20 -20 -20 -20 -20 -20 -20 -20

GFSGL_prec_radar_129.txt.gz
Reflectivity
-20 -20 -20 -20 -20 -20 -20 -20 -20 -20 -20 -20 -20 -20 -20 -20 -20 -20 27 -20 -20 -20 -20 -20 -20 -20 -20 -20 -20 -18 -20 -20 3 -20 -20 -20 -8 -20 -20 -20 -20 -20 -20
-20 -20 -20 -20 -20 -20 -20 -20 -20 -20 -20 -20 -17 -20 -20 -20 -20 -4 -20 28 9 26 22 -20 -20 -20 -18 -20 -20 -20 -20 -20 -20 -20 -20 -20 -3 -20 -20 -20 -20 -20 -20
-20 -20 -20 -20 -20 -20 -20 -20 -20 -20 -20 -20 -20 19 -14 -20 -20 -20 -20 -20 -20 -20 -20 -20 -3 -5 -13 -19 -2 -9 15 -6 -3 -12 -20 -20 -20 -18 -18 -20 5 -20 -20
-20 -20 -20 -20 -20 -20 -20 -20 -20 -20 -20 -20 -20 -8 5 -20 -20 -20 -20 -20 -20 -20 -20 1 -20 29 28 5 -13 -16 -19 20 -5 11 2 -20 -2 -17 -6 -9 -8 22 -20
-20 -20 -20 -20 -20 -20 -20 -20 -20 -20 -20 -20 -20 -20 -20 -20 -20 -20 -20 -20 6 28 -18 2 -4 -20 -14 29 23 18 29 0 1 16 9 -20 -7 34 -20 28 16 20 -20
-20 13 -20 -20 -20 -20 -20 -20 -20 -20 -20 -20 -20 -20 -20 -20 12 -20 -0 -20 26 -15 -20 20 -19 -20 -20 -20 -20 -20 -20 8 8 -20 26 25 13 36 -20 -20 27 25 -13
3 -20 -20 -20 -20 -20 -20 -20 -20 -15 -19 -20 -20 -20 -20 -8 -9 -20 -20 -20 2 -20 22 -3 -6 1 16 28 -20 -13 -20 -20 -20 -15 9 -20 -20 -20 -14 20 19 -7 24
-19 -16 0 -7 -20 -20 -1 4 -20 -20 1 -7 16 -9 -6 35 28 14 -8 -12 -11 23 6 -0 21 13 23 5 24 18 19 -20 -20 -20 -0 -16 12 1 -20 -12 -20 -0 -0
3 18 27 29 9 26 5 9 9 16 16 25 23 -10 -18 19 15 28 20 7 -20 -8 -18 -19 -11 6 -4 25 25 25 30 14 -20 -20 -20 -20 -20 -15 -20 -20 -5 31 24
3 8 -18 -19 -15 -17 -20 -20 -16 -5 9 19 23 23 25 -20 -17 18 20 19 14 -7 -1 6 -20 -20 -1 9 12 -6 22 25 -20 -20 -20 -20 -20 -20 -18 -10 -5 -3 23
8 8 -11 -0 10 11 0 -7 -17 -20 -20 -20 12 4 -17 4 2 27 24 12 29 26 10 8 6 2 25 25 26 15 3 -9 -6 -18 -20 -20 -20 -20 -20 16 25 -15 -6
-18 -8 -13 -2 0 -7 -9 -1 -6 -14 -20 -14 -2 21 25 32 31 33 21 29 29 26 23 23 28 34 28 25 20 27 19 10 -3 -5 1 -12 -10 -2 21 27 28 19 20
-2 -6 -4 -5 -4 -7 -1 1 -15 -20 -20 -20 -20 -10 -5 -7 1 18 -18 -2 12 13 11 14 19 20 21 24 25 27 23 20 24 26 22 17 25 28 23 -2 -9 -19 -18
-8 -6 -20 -20 -17 -20 -20 -20 -20 -20 -18 -20 -20 -20 -20 -20 -20 -16 -6 2 16 -4 3 1 15 18 22 -12 13 16 17 19 3 19 19 24 24 22 18 16 7 -11 -7
-17 -20 -20 -20 -20 -20 -20 -20 -20 -20 -11 -14 -17 -20 -17 -9 -20 -3 11 20 13 5 -5 18 24 6 -12 -15 15 14 26 12 7 16 20 12 4 8 2 7 12 12 11
-17 -8 -2 -17 -20 -20 -20 -20 -20 -20 -20 -20 -18 -20 -18 -6 -16 3 6 9 10 7 17 19 23 28 21 31 28 26 25 30 30 10 10 21 29 22 20 -1 -4 -10 -14
-20 -20 -8 -16 -9 -20 -20 -20 -20 -20 -20 -20 -20 -20 -20 -20 -20 -20 -20 -20 -20 -9 -16 -19 11 24 3 18 24 19 -9 -17 -5 -14 16 21 9 24 18 12 15 29 33
-20 -20 -20 -20 -20 -20 -20 -20 -20 -20 -20 -20 -20 -16 -20 -20 -20 -20 -20 -20 -20 -20 -20 -20 -20 -8 -20 3 6 2 2 4 -17 -20 -15 -7 28 -13 -20 -20 -20 -6 2
-20 -20 -20 -20 -20 -20 -20 -20 -20 -20 -20 -20 -20 -20 -17 -20 -20 -20 -20 -20 -20 -20 -20 -20 -20 -20 -20 -20 -20 -20 -14 -12 -10 -5 -0 3 -5 -7 -9 -16 -20 -20 -18
-20 -20 -20 -20 -20 -20 -20 -20 -20 -20 -20 -20 -20 -20 -20 -20 -20 -20 -20 -20 -20 -20 -20 -20 -20 -20 -20 -20 -20 -20 -20 -20 -20 -20 -20 -20 -20 -19 -18 -16 -11 -8 -11
-20 -20 -20 -20 -20 -20 -20 -20 -20 -20 -20 -20 -20 -20 -20 -20 -20 -20 -20 -20 -20 -20 -20 -20 -20 -20 -20 -20 -20 -20 -20 -20 -20 -20 -20 -20 -20 -20 -20 -20 -20 -20 -20
-20 -20 -20 -20 -20 -20 -20 -20 -20 -20 -20 -20 -20 -20 -20 -20 -20 -20 -20 -20 -20 -20 -20 -20 -20 -20 -20 -20 -20 -20 -20 -20 -20 -20 -20 -20 -20 -20 -20 -20 -20 -20 -20
-20 -16 -15 -20 -20 -20 -20 -20 -20 -20 -20 -20 -20 -20 -20 -20 -20 -20 -20 -20 -20 -20 -20 -20 -20 -20 -20 -20 -20 -20 -20 -20 -20 -20 -20 -20 -20 -20 -20 -20 -20 -20 -20
-20 -1 -18 -20 -20 -20 -20 -20 -20 -20 -20 -20 -20 -0 -3 -3 -20 -13 -20 -20 -20 -20 -20 -20 -20 -20 -20 -20 -20 -20 -20 -20 -20 -20 -20 -20 -20 -20 -20 -20 -20 -20 -20
-20 -20 -20 -20 -18 -20 -18 -20 -20 -18 -19 -20 -16 -20 -15 -20 -20 -20 -20 -20 -20 -20 -20 -20 -20 -20 -20 -20 -20 -20 -20 -20 -20 -20 -20 -20 -20 -20 -20 -20 -20 -20 -20
-20 -20 -20 -20 -9 -20 -17 -20 -7 -13 -16 -20 -20 -20 -20 -20 -20 -20 -20 -20 -20 -20 -20 -20 -20 -20 -20 -20 -20 -20 -13 -20 -20 -20 -20 -20 -20 -20 -20 -20 -20 -20 -20